[[{"header":{"parameterUnit":"m.s-1","parameterCategory":1,"la1":30.6,"la2":29.2853,"lo1":-89.7004,"lo2":-87.6739,"dy":0.0162,"dx":0.0183,"nx":112,"ny":82,"refTime":"2024-08-13T18:00:00:Z","depth":0,"parameterNumber":2,"parameterNumberName":"U-component_of_WINDS"},"data":[0.0,0.0,0.0,0.0,0.0,0.0,0.0,0.0,0.0,0.0,0.0,0.0,0.0,0.0,0.0,0.0,0.0,0.0,0.0,0.0,0.0,0.0,0.0,0.0,0.0,0.0,0.0,0.0,0.0,0.0,0.0,0.0,0.0,0.0,0.0,0.0,0.0,0.0,0.0,0.0,0.0,0.0,0.0,0.0,0.0,0.0,0.0,0.0,0.0,0.0,0.0,0.0,0.0,0.0,0.0,0.0,0.0,0.0,0.0,0.0,0.0,0.0,0.0,0.0,0.0,0.0,0.0,0.0,0.0,0.0,0.0,0.0,0.0,0.0,0.0,0.0,0.0,0.0,0.0,0.0,0.0,0.0,0.0,0.0,0.0,0.0,0.0,0.0,0.0,0.0,0.0,-0.5438,-0.7125,-0.8447,-0.9062,-0.9473,-0.911,-0.7673,0.0,0.0,0.0,0.0,0.0,0.0,0.0,0.0,0.0,0.0,0.0,0.0,0.0,0.0,0.0,0.0,0.0,0.0,0.0,0.0,0.0,0.0,0.0,0.0,0.0,0.0,0.0,0.0,0.0,0.0,0.0,0.0,0.0,0.0,0.0,0.0,0.0,0.0,0.0,0.0,0.0,0.0,0.0,0.0,0.0,0.0,0.0,0.0,0.0,0.0,0.0,0.0,0.0,0.0,0.0,0.0,0.0,0.0,0.0,0.0,0.0,0.0,0.0,0.0,0.0,0.0,0.0,0.0,0.0,0.0,0.0,0.0,0.0,0.0,0.0,0.0,0.0,0.0,0.0,0.0,0.0,0.0,0.0,0.0,0.0,0.0,0.0,0.0,0.0,0.0,0.0,0.0,0.0,0.0,0.0,0.0,0.0,0.0,0.0,0.0,0.0,0.0,0.0,0.0,-0.5091,-0.7007,-0.7915,-0.8589,-0.9112,-0.9028,-0.8546,-0.7511,0.0,0.0,0.0,0.0,0.0,0.0,0.0,0.0,0.0,0.0,0.0,0.0,0.0,0.0,0.0,0.0,0.0,0.0,0.0,0.0,0.0,0.0,0.0,0.0,0.0,0.0,0.0,0.0,0.0,0.0,0.0,0.0,0.0,0.0,0.0,0.0,0.0,0.0,0.0,0.0,0.0,0.0,0.0,0.0,0.0,0.0,0.0,0.0,0.0,0.0,0.0,0.0,0.0,0.0,0.0,0.0,0.0,0.0,0.0,0.0,0.0,0.0,0.0,0.0,0.0,0.0,0.0,0.0,0.0,0.0,0.0,0.0,0.0,0.0,0.0,0.0,0.0,0.0,0.0,0.0,0.0,0.0,0.0,0.0,0.0,0.0,0.0,0.0,0.0,0.0,0.0,0.0,0.0,0.0,0.0,0.0,0.0,0.0,0.0,0.0,0.0,0.0,0.0,-0.523,-0.6105,-0.8477,-0.877,-0.9065,-0.9704,-0.9455,-0.8758,-0.7468,-0.6912,0.0,0.0,0.0,0.0,0.0,0.0,0.0,0.0,0.0,0.0,0.0,0.0,0.0,0.0,0.0,0.0,0.0,0.0,0.0,0.0,0.0,0.0,0.0,0.0,0.0,0.0,0.0,0.0,0.0,0.0,0.0,0.0,0.0,0.0,0.0,0.0,0.0,0.0,0.0,0.0,0.0,0.0,0.0,0.0,0.0,0.0,0.0,0.0,0.0,0.0,0.0,0.0,0.0,0.0,0.0,0.0,0.0,0.0,0.0,0.0,0.0,0.0,0.0,0.0,0.0,0.0,0.0,0.0,0.0,0.0,0.0,0.0,0.0,0.0,0.0,0.0,0.0,0.0,0.0,0.0,0.0,0.0,0.0,0.0,0.0,0.0,0.0,0.0,0.0,0.0,0.0,0.0,0.0,0.0,0.0,0.0,0.0,0.0,0.0,0.0,0.0,0.0,-0.6531,-0.7404,-0.9462,-0.9505,-0.9576,-1.0172,-0.9777,-0.8912,-0.7631,-0.6951,0.0,0.0,0.0,0.0,0.0,0.0,0.0,0.0,0.0,0.0,0.0,0.0,0.0,0.0,0.0,0.0,0.0,0.0,0.0,0.0,0.0,0.0,0.0,0.0,0.0,0.0,0.0,0.0,0.0,0.0,0.0,0.0,0.0,0.0,0.0,0.0,0.0,0.0,0.0,0.0,0.0,0.0,0.0,0.0,0.0,0.0,0.0,0.0,0.0,0.0,0.0,0.0,0.0,0.0,0.0,0.0,0.0,0.0,0.0,0.0,0.0,0.0,0.0,0.0,0.0,0.0,0.0,0.0,0.0,0.0,0.0,0.0,0.0,0.0,0.0,0.0,0.0,0.0,0.0,0.0,0.0,0.0,0.0,0.0,0.0,0.0,0.0,0.0,0.0,0.0,0.0,0.0,0.0,0.0,0.0,0.0,0.0,0.0,0.0,0.0,0.0,0.0,-0.7607,-0.8878,-0.9637,-0.9897,-1.0125,-1.0394,-0.9436,-0.8645,-0.8097,-0.6912,0.0,0.0,0.0,0.0,0.0,0.0,0.0,0.0,0.0,0.0,0.0,0.0,0.0,0.0,0.0,0.0,0.0,0.0,0.0,0.0,0.0,0.0,0.0,0.0,0.0,0.0,0.0,0.0,0.0,0.0,0.0,0.0,0.0,0.0,0.0,0.0,0.0,0.0,0.0,0.0,0.0,0.0,0.0,0.0,0.0,0.0,0.0,0.0,0.0,0.0,0.0,0.0,0.0,0.0,0.0,0.0,0.0,0.0,0.0,0.0,0.0,0.0,0.0,0.0,0.0,0.0,0.0,0.0,0.0,0.0,0.0,0.0,0.0,0.0,0.0,0.0,0.0,0.0,0.0,0.0,0.0,0.0,0.0,0.0,0.0,0.0,0.0,0.0,0.0,0.0,0.0,0.0,0.0,0.0,0.0,0.0,0.0,0.0,0.0,0.0,0.0,0.0,-0.7708,-0.8735,0.0,-0.9771,-0.9929,-1.0527,-0.9971,-0.927,-0.8643,0.0,0.0,0.0,0.0,0.0,0.0,0.0,0.0,0.0,0.0,0.0,0.0,0.0,0.0,0.0,0.0,0.0,0.0,0.0,0.0,0.0,0.0,0.0,0.0,0.0,0.0,0.0,0.0,0.0,0.0,0.0,0.0,0.0,0.0,0.0,0.0,0.0,0.0,0.0,0.0,0.0,0.0,0.0,0.0,0.0,0.0,0.0,0.0,0.0,0.0,0.0,0.0,0.0,0.0,0.0,0.0,0.0,0.0,0.0,0.0,0.0,0.0,0.0,0.0,0.0,0.0,0.0,0.0,0.0,0.0,0.0,0.0,0.0,0.0,0.0,0.0,0.0,0.0,0.0,0.0,0.0,0.0,0.0,0.0,0.0,0.0,0.0,0.0,0.0,0.0,0.0,0.0,0.0,0.0,0.0,0.0,0.0,0.0,0.0,0.0,0.0,0.0,-0.7353,-0.8123,-0.9005,0.0,-0.997,-1.0061,-1.0923,-1.0423,-0.9776,-0.9157,0.0,0.0,0.0,0.0,0.0,0.0,0.0,0.0,0.0,0.0,0.0,0.0,0.0,0.0,0.0,0.0,0.0,0.0,0.0,0.0,0.0,0.0,0.0,0.0,0.0,0.0,0.0,0.0,0.0,0.0,0.0,0.0,0.0,0.0,0.0,0.0,0.0,0.0,0.0,0.0,0.0,0.0,0.0,0.0,0.0,0.0,0.0,0.0,0.0,0.0,0.0,0.0,0.0,0.0,0.0,0.0,0.0,0.0,0.0,0.0,0.0,0.0,0.0,0.0,0.0,0.0,0.0,0.0,0.0,0.0,0.0,0.0,0.0,0.0,0.0,0.0,0.0,0.0,0.0,0.0,0.0,0.0,0.0,0.0,0.0,0.0,0.0,0.0,0.0,0.0,0.0,0.0,0.0,0.0,0.0,0.0,0.0,0.0,0.0,0.0,0.0,0.0,-0.7926,-0.8926,-0.9941,-1.0792,-1.0601,-1.0745,-1.1631,-1.0779,-1.0057,0.0,0.0,0.0,0.0,0.0,0.0,0.0,0.0,0.0,0.0,0.0,0.0,0.0,0.0,0.0,0.0,0.0,0.0,0.0,0.0,0.0,0.0,0.0,0.0,0.0,0.0,0.0,0.0,0.0,0.0,0.0,0.0,0.0,0.0,0.0,0.0,0.0,0.0,0.0,0.0,0.0,0.0,0.0,0.0,0.0,0.0,0.0,0.0,0.0,0.0,0.0,0.0,0.0,0.0,0.0,0.0,0.0,0.0,0.0,0.0,0.0,0.0,0.0,0.0,0.0,0.0,0.0,0.0,0.0,0.0,0.0,0.0,0.0,0.0,0.0,0.0,0.0,0.0,0.0,0.0,0.0,0.0,0.0,0.0,0.0,0.0,0.0,0.0,0.0,0.0,0.0,0.0,0.0,0.0,0.0,0.0,0.0,0.0,0.0,0.0,0.0,0.0,0.0,-0.7926,-0.8926,-0.9859,-1.0478,-1.0458,-1.0853,-1.1879,-1.1617,-1.1031,-1.0224,0.0,0.0,0.0,0.0,0.0,0.0,0.0,0.0,0.0,0.0,0.0,0.0,0.0,0.0,0.0,0.0,0.0,0.0,0.0,0.0,0.0,0.0,0.0,0.0,0.0,0.0,0.0,0.0,0.0,0.0,0.0,0.0,0.0,0.0,0.0,0.0,0.0,0.0,0.0,0.0,0.0,0.0,0.0,0.0,0.0,0.0,0.0,0.0,0.0,0.0,0.0,0.0,0.0,0.0,0.0,0.0,0.0,0.0,0.0,0.0,0.0,0.0,0.0,0.0,0.0,0.0,0.0,0.0,0.0,0.0,0.0,0.0,0.0,0.0,0.0,0.0,0.0,0.0,0.0,0.0,0.0,0.0,0.0,0.0,0.0,0.0,0.0,0.0,0.0,0.0,0.0,0.0,0.0,0.0,0.0,0.0,0.0,0.0,0.0,0.0,0.0,0.0,-0.8245,-0.9439,-1.0438,-1.1006,-1.1057,-1.1418,-1.2323,-1.2332,-1.1827,-1.0695,0.0,0.0,0.0,0.0,0.0,0.0,0.0,0.0,0.0,0.0,0.0,0.0,0.0,0.0,0.0,0.0,0.0,0.0,0.0,0.0,0.0,0.0,0.0,0.0,0.0,0.0,0.0,0.0,0.0,0.0,0.0,0.0,0.0,0.0,0.0,0.0,0.0,0.0,0.0,0.0,0.0,0.0,0.0,0.0,0.0,0.0,0.0,0.0,0.0,0.0,0.0,0.0,0.0,0.0,0.0,0.0,0.0,0.0,0.0,0.0,0.0,0.0,0.0,0.0,0.0,0.0,0.0,0.0,0.0,0.0,0.0,0.0,0.0,0.0,0.0,0.0,0.0,0.0,0.0,0.0,0.0,0.0,0.0,0.0,0.0,0.0,0.0,0.0,0.0,0.0,0.0,0.0,0.0,0.0,0.0,0.0,0.0,0.0,0.0,0.0,0.0,0.0,-0.8762,-1.0233,-1.141,-1.2026,-1.2076,-1.2323,-1.2832,-1.2881,-1.239,-1.1158,0.0,0.0,0.0,0.0,0.0,0.0,0.0,0.0,0.0,0.0,0.0,0.0,0.0,0.0,0.0,0.0,0.0,0.0,0.0,0.0,0.0,0.0,0.0,0.0,0.0,0.0,0.0,0.0,0.0,0.0,0.0,0.0,0.0,0.0,0.0,0.0,0.0,0.0,0.0,0.0,0.0,0.0,0.0,0.0,0.0,0.0,0.0,0.0,0.0,0.0,0.0,0.0,0.0,0.0,0.0,0.0,0.0,0.0,0.0,0.0,-0.8339,0.0,0.0,0.0,0.0,0.0,0.0,0.0,0.0,0.0,0.0,0.0,0.0,0.0,0.0,0.0,0.0,0.0,0.0,0.0,0.0,0.0,0.0,0.0,0.0,0.0,0.0,0.0,0.0,0.0,0.0,0.0,0.0,0.0,0.0,0.0,0.0,0.0,0.0,0.0,0.0,0.0,-0.9006,-1.0363,-1.141,-1.2026,-1.2076,-1.2323,-1.2832,-1.2881,-1.2518,-1.1591,-1.0676,0.0,0.0,0.0,0.0,0.0,0.0,0.0,0.0,0.0,0.0,0.0,0.0,0.0,0.0,0.0,0.0,0.0,0.0,0.0,0.0,0.0,0.0,0.0,0.0,0.0,0.0,0.0,0.0,0.0,0.0,0.0,0.0,0.0,0.0,0.0,0.0,0.0,0.0,0.0,0.0,0.0,0.0,0.0,0.0,0.0,0.0,0.0,0.0,0.0,0.0,0.0,0.0,0.0,0.0,0.0,0.0,0.0,0.0,0.0,0.0,-0.9886,0.0,0.0,0.0,0.0,0.0,0.0,0.0,0.0,0.0,0.0,0.0,0.0,0.0,0.0,0.0,0.0,0.0,0.0,0.0,0.0,0.0,0.0,0.0,0.0,0.0,0.0,0.0,0.0,0.0,0.0,0.0,0.0,0.0,0.0,0.0,0.0,0.0,0.0,0.0,0.0,-0.9537,-1.1086,-1.2224,-1.248,-1.2529,-1.2686,-1.2881,-1.2881,-1.2645,-1.1979,-1.1168,0.0,0.0,0.0,0.0,0.0,0.0,0.0,0.0,0.0,0.0,0.0,0.0,0.0,0.0,0.0,0.0,0.0,0.0,0.0,0.0,0.0,0.0,0.0,0.0,0.0,0.0,0.0,0.0,0.0,0.0,0.0,0.0,0.0,0.0,0.0,0.0,0.0,0.0,0.0,0.0,0.0,0.0,0.0,0.0,0.0,0.0,0.0,0.0,0.0,0.0,0.0,0.0,0.0,-1.2529,-1.2966,-1.3584,-1.4156,-1.4626,-1.4971,-1.3872,-1.3099,-1.2619,-1.1687,0.0,0.0,0.0,0.0,0.0,0.0,0.0,0.0,0.0,0.0,0.0,0.0,0.0,0.0,0.0,0.0,0.0,0.0,0.0,0.0,0.0,0.0,0.0,0.0,-1.2276,-1.2463,-1.0838,0.0,0.0,0.0,0.0,0.0,0.0,0.0,0.0,0.0,0.0,0.0,-1.0303,-1.1981,-1.3075,-1.2968,-1.3065,-1.3075,-1.2968,-1.2968,-1.2763,-1.24,-1.1679,-1.0882,0.0,0.0,0.0,0.0,0.0,0.0,0.0,0.0,0.0,0.0,0.0,0.0,0.0,0.0,0.0,0.0,0.0,0.0,0.0,0.0,0.0,0.0,0.0,0.0,0.0,0.0,0.0,0.0,0.0,0.0,0.0,0.0,-0.663,-0.7384,0.0,0.0,0.0,0.0,0.0,0.0,0.0,0.0,0.0,0.0,0.0,0.0,0.0,-1.1948,-1.2588,-1.4038,-1.4528,-1.4076,-1.5742,-1.6327,-1.5871,-1.6547,-1.712,-1.7499,-1.7352,0.0,-1.4112,-1.2698,0.0,0.0,0.0,0.0,0.0,0.0,0.0,0.0,0.0,0.0,0.0,0.0,0.0,0.0,0.0,0.0,0.0,0.0,0.0,0.0,0.0,0.0,-1.3342,-1.3456,-1.358,-1.3724,0.0,-1.207,-1.0062,-0.9503,-0.8865,0.0,0.0,0.0,0.0,0.0,0.0,0.0,-1.1516,-1.2563,-1.317,-1.317,-1.317,-1.317,-1.317,-1.317,-1.315,-1.309,-1.2526,-1.2039,-1.1614,-1.0251,0.0,0.0,0.0,0.0,0.0,0.0,0.0,0.0,0.0,0.0,0.0,0.0,0.0,0.0,0.0,0.0,0.0,0.0,0.0,0.0,0.0,0.0,0.0,0.0,0.0,0.0,0.0,0.0,0.0,-0.6627,-0.7722,-0.829,-0.8445,-0.856,0.0,0.0,0.0,0.0,0.0,0.0,0.0,0.0,0.0,-1.2076,-1.2837,-1.3652,-1.4592,-1.5381,-1.5801,-1.6029,-1.7109,-1.7463,-1.7209,-1.804,-1.8522,-1.8743,-1.8746,-1.8186,-1.7127,-1.5508,-1.4826,-1.4698,0.0,0.0,0.0,0.0,-1.3516,-1.3752,-1.4316,-1.4317,-1.3931,-1.3385,0.0,0.0,0.0,0.0,0.0,0.0,0.0,-1.2722,0.0,0.0,-1.49,-1.5189,-1.5435,-1.5602,-1.5528,-1.4345,-1.2967,0.0,-1.1416,-1.0832,-0.9583,0.0,0.0,0.0,0.0,-1.1723,-1.2309,-1.339,-1.3983,-1.362,-1.3639,-1.3587,-1.3238,-1.3218,-1.3218,-1.3218,-1.299,-1.2689,-1.2313,-1.1424,-1.0446,0.0,0.0,0.0,0.0,0.0,0.0,0.0,0.0,0.0,0.0,0.0,0.0,0.0,0.0,0.0,0.0,0.0,0.0,0.0,0.0,0.0,0.0,0.0,0.0,0.0,0.0,0.0,0.0,-0.7638,-0.8746,-0.9515,-0.981,-1.0009,0.0,0.0,0.0,0.0,0.0,0.0,-1.178,-1.2549,-1.3273,-1.3839,-1.4347,-1.5023,-1.6014,-1.6369,-1.6957,-1.7789,-1.8373,-1.873,-1.8854,-1.9586,-1.9868,-1.9913,-1.9922,-1.9899,-1.9659,-1.7862,-1.7056,-1.6863,-1.5719,-1.5448,-1.5745,-1.5899,-1.5839,-1.5878,-1.6848,-1.6798,-1.6273,-1.57,-1.519,-1.4502,-1.3504,0.0,0.0,0.0,0.0,-1.4244,-1.508,-1.5709,-1.6236,-1.6667,-1.6974,-1.7059,-1.6601,-1.6171,-1.544,0.0,-1.372,-1.3185,-1.1626,0.0,0.0,0.0,0.0,-1.2934,-1.3273,-1.4205,-1.4696,-1.4246,-1.4267,-1.4083,-1.3527,-1.3486,-1.3435,-1.3324,-1.3266,-1.3125,-1.2801,-1.2333,-1.1568,-1.0479,0.0,0.0,0.0,0.0,0.0,0.0,0.0,0.0,0.0,0.0,0.0,0.0,0.0,0.0,0.0,0.0,0.0,0.0,0.0,0.0,0.0,0.0,0.0,0.0,0.0,0.0,0.0,0.0,0.0,-1.1524,-1.1584,0.0,0.0,0.0,0.0,-1.2175,-1.2617,-1.3146,-1.3839,-1.4675,-1.5087,-1.501,-1.578,-1.6211,-1.6257,-1.7676,-1.863,-1.9152,-2.0222,-2.0956,-2.1413,-2.1435,-2.1505,-2.1505,-2.1494,-2.1221,-2.0642,-1.8753,-1.8049,-1.8134,-1.7411,-1.7313,-1.7467,-1.7124,-1.7316,-1.7599,-1.737,-1.7252,-1.7245,-1.746,-1.7054,-1.6436,-1.6838,-1.6402,0.0,0.0,-1.6613,-1.6967,-1.6922,-1.7234,-1.7606,-1.7606,-1.7626,-1.7637,-1.7606,-1.7234,-1.6578,0.0,-1.4841,-1.4438,-1.3972,0.0,-1.392,-1.393,-1.4091,-1.4306,-1.4654,-1.4861,-1.4987,-1.4966,-1.4966,-1.4769,-1.4314,-1.4223,-1.4037,-1.3594,-1.3467,-1.3362,-1.3379,-1.2868,-1.2402,-1.1991,-1.055,0.0,0.0,0.0,0.0,0.0,0.0,0.0,0.0,0.0,0.0,0.0,0.0,0.0,0.0,0.0,0.0,0.0,0.0,0.0,0.0,0.0,0.0,0.0,0.0,0.0,0.0,0.0,0.0,-1.2091,-1.281,0.0,-1.3402,-1.339,-1.3523,-1.3886,-1.4183,-1.4477,-1.4703,-1.5504,-1.6253,-1.6816,-1.7396,-1.8172,-1.9153,-1.9723,-2.0237,-2.0754,-2.1181,-2.1428,-2.1592,-2.1592,-2.1592,-2.1592,-2.1592,-2.1494,-2.1275,-2.0587,-1.9997,-1.9383,-1.884,-1.8715,-1.8764,-1.8544,-1.8542,-1.8725,-1.8764,-1.8543,-1.8155,-1.7843,-1.7573,-1.7455,-1.749,-1.7314,-1.7095,-1.7262,-1.7417,-1.7604,-1.7833,-1.803,-1.8143,-1.8143,-1.8143,-1.8071,-1.7792,-1.7544,-1.7327,-1.6937,-1.6033,-1.518,-1.4769,-1.4697,-1.4594,-1.4245,-1.4759,-1.5256,-1.5368,-1.5701,-1.5773,-1.5473,-1.5442,-1.5132,-1.4376,-1.4304,-1.4107,-1.3652,-1.3563,-1.3515,-1.3515,-1.3267,-1.2924,-1.2566,-1.1714,-1.0487,0.0,0.0,0.0,0.0,0.0,0.0,0.0,0.0,0.0,0.0,0.0,0.0,0.0,0.0,0.0,0.0,0.0,0.0,0.0,0.0,0.0,0.0,0.0,0.0,0.0,0.0,-1.2274,-1.2978,-1.3858,-1.4471,-1.4587,-1.4893,-1.5059,-1.5207,-1.5541,-1.5771,-1.59,-1.6551,-1.7316,-1.818,-1.8469,-1.9199,-2.0512,-2.0736,-2.1094,-2.1599,-2.1751,-2.192,-2.2062,-2.2062,-2.2062,-2.2062,-2.2062,-2.1974,-2.1832,-2.1832,-2.1363,-2.0598,-2.0271,-2.0151,-2.0151,-2.0031,-2.0042,-1.9998,-1.9929,-1.9581,-1.9057,-1.8532,-1.8375,-1.8438,-1.8248,-1.8248,-1.8248,-1.8185,-1.8185,-1.8247,-1.8537,-1.8609,-1.8609,-1.8609,-1.8609,-1.8537,-1.8247,-1.8061,-1.7957,-1.7957,-1.7098,-1.6229,-1.5773,-1.568,-1.5535,-1.507,-1.5535,-1.5918,-1.5918,-1.6187,-1.626,-1.5949,-1.5918,-1.5546,-1.4624,-1.4542,-1.4273,-1.3652,-1.3621,-1.3621,-1.3621,-1.3361,-1.3099,-1.2857,-1.2022,-1.1013,-0.9868,0.0,0.0,0.0,0.0,0.0,0.0,0.0,0.0,0.0,0.0,0.0,0.0,0.0,0.0,0.0,0.0,0.0,0.0,0.0,0.0,0.0,0.0,0.0,-1.1163,-1.2122,-1.3199,-1.4232,-1.4823,-1.5201,-1.5325,-1.5569,-1.5918,-1.6321,-1.6716,-1.711,-1.7567,-1.7899,-1.8406,-1.9058,-1.9058,-1.936,-2.0062,-2.0625,-2.1132,-2.1554,-2.2107,-2.2575,-2.3001,-2.3001,-2.3001,-2.3001,-2.3001,-2.275,-2.2335,-2.2335,-2.2062,-2.1625,-2.1603,-2.1592,-2.1592,-2.1592,-2.1592,-2.1527,-2.0841,-2.0396,-2.0117,-1.973,-1.9526,-1.9393,-1.9327,-1.9306,-1.9295,-1.9162,-1.9152,-1.9142,-1.9075,-1.9075,-1.9075,-1.9075,-1.9075,-1.9075,-1.9075,-1.8713,-1.8402,-1.8402,-1.8061,-1.7564,-1.709,-1.6997,-1.6853,-1.6467,-1.6394,0.0,-1.6384,-1.6384,-1.6384,-1.6384,-1.6384,-1.6011,-1.5101,-1.5007,-1.4614,-1.3693,-1.3621,-1.3621,-1.3621,-1.3186,-1.2903,-1.2903,-1.1542,-1.0853,-1.0805,0.0,0.0,0.0,0.0,0.0,0.0,0.0,0.0,0.0,0.0,0.0,0.0,0.0,0.0,0.0,0.0,0.0,0.0,0.0,0.0,0.0,-1.2166,-1.3044,-1.2809,-1.3479,-1.4252,-1.4828,-1.5551,-1.5982,-1.6048,-1.6597,-1.7046,-1.7165,-1.755,-1.8044,-1.8575,-1.8689,-1.9404,-2.074,-2.0824,-2.1209,-2.2167,-2.2315,-2.2453,-2.2572,-2.2731,-2.2881,-2.3001,-2.3001,-2.3001,-2.3001,-2.3001,-2.2936,-2.2815,-2.2815,-2.2739,-2.2542,-2.1854,-2.1592,-2.1592,-2.1592,-2.1592,-2.157,-2.122,-2.1107,-2.1144,-2.0727,-2.0685,-2.0695,-2.0615,-2.0313,-1.9991,-1.9844,-1.9536,-1.9208,-1.9142,-1.9075,-1.9075,-1.9075,-1.9075,-1.9075,-1.9075,-1.8971,-1.8878,-1.8878,-1.8785,-1.8454,-1.7678,-1.7482,-1.7327,-1.6933,-1.686,0.0,-1.6425,-1.6384,-1.6384,-1.6384,-1.6384,-1.6146,-1.5546,-1.5194,-1.4749,-1.4159,-1.3807,-1.3621,-1.3621,-1.3496,-1.3424,-1.3424,-1.241,-1.1727,0.0,0.0,0.0,0.0,0.0,0.0,0.0,0.0,0.0,0.0,0.0,0.0,0.0,0.0,0.0,0.0,0.0,0.0,0.0,0.0,0.0,0.0,-1.3497,-1.4483,-1.4593,-1.4964,-1.5349,-1.5579,-1.6321,-1.6807,-1.6807,-1.7385,-1.7761,-1.7761,-1.8351,-1.8873,-1.9226,-1.9697,-2.0511,-2.1681,-2.1766,-2.2115,-2.3001,-2.3001,-2.3001,-2.3001,-2.3001,-2.3001,-2.3001,-2.3001,-2.3001,-2.3001,-2.3001,-2.3001,-2.3001,-2.3001,-2.3001,0.0,0.0,0.0,0.0,0.0,-2.2182,-2.2149,-2.1821,-2.1745,-2.1702,-2.1355,-2.129,-2.1312,-2.115,-2.0968,-2.0685,-2.0525,-2.0117,-1.9702,-1.9557,-1.9354,-1.9142,-1.9131,-1.9075,-1.9075,-1.9075,-1.933,-1.9528,-1.9528,-1.9781,0.0,-1.925,-1.874,-1.8267,-1.779,-1.7556,-1.7403,-1.7137,-1.6717,-1.6384,-1.6384,-1.6384,-1.6187,-1.5732,-1.5442,0.0,0.0,0.0,-1.3734,-1.3341,-1.3331,0.0,0.0,0.0,0.0,0.0,0.0,0.0,0.0,-1.1071,-1.0848,0.0,0.0,0.0,0.0,0.0,0.0,0.0,0.0,0.0,0.0,0.0,0.0,0.0,0.0,0.0,0.0,-1.4556,-1.5524,-1.6331,-1.645,-1.645,-1.645,-1.7064,-1.7513,-1.7559,-1.8018,-1.8257,-1.8257,-1.9202,-1.981,-1.9885,0.0,0.0,0.0,0.0,-2.2478,-2.3001,-2.3001,-2.3001,-2.3001,-2.3001,-2.3001,-2.3001,-2.3001,-2.3001,-2.3001,-2.3001,-2.3001,-2.3001,-2.3001,-2.3001,-2.3001,-2.3001,-2.3001,-2.3001,-2.3001,-2.3001,-2.2936,-2.2531,0.0,0.0,-2.1816,-2.1604,-2.1463,-2.1463,-2.1431,-2.1388,-2.1144,-2.0743,-2.0381,-2.0249,-1.9864,-1.947,-1.9274,-1.933,-1.9386,-1.9264,-1.9781,-2.0226,-2.0226,-2.0741,-2.1123,-2.1123,-2.0243,-1.9412,-1.8978,-1.8563,-1.8242,-1.8176,-1.7266,-1.6602,-1.6488,0.0,0.0,-1.5804,-1.5722,-1.5339,-1.4511,-1.4417,-1.3993,-1.3068,-1.3082,-1.3082,-1.3082,-1.3082,-1.331,-1.3776,-1.3776,-1.3983,-1.4324,-1.1799,-1.1501,0.0,0.0,0.0,0.0,0.0,0.0,0.0,0.0,0.0,0.0,0.0,0.0,0.0,0.0,0.0,-1.509,-1.5707,-1.6358,-1.7156,-1.7266,-1.7266,-1.7266,-1.7403,-1.7623,-1.7963,-1.8789,-1.9316,-1.9316,-2.0318,-2.111,-2.1576,-2.1821,-2.2176,-2.2777,-2.2852,-2.2852,-2.3001,-2.3001,-2.3001,-2.3001,0.0,0.0,-2.3001,-2.3001,-2.3001,-2.3001,-2.3001,-2.3001,-2.3001,-2.3001,-2.3001,-2.3001,-2.3001,-2.3001,-2.3001,-2.3001,-2.3001,-2.299,-2.2903,-2.287,-2.2774,-2.2761,-2.2728,-2.2655,-2.2655,-2.2393,0.0,-2.1851,-2.1446,-2.1075,-2.0937,-2.0885,-2.0776,-2.026,-2.0666,-2.0985,-2.0409,-2.0741,-2.1135,-2.1135,-2.1135,-2.1123,-2.1123,-2.0917,-2.0614,-2.0163,-1.9673,-1.9193,-1.8783,-1.8192,-1.7611,-1.7101,-1.7056,-1.6856,-1.6306,-1.5908,-1.5608,-1.5432,-1.507,-1.4614,-1.4066,-1.4035,-1.4035,-1.4035,-1.4035,-1.4273,-1.4728,-1.4728,-1.478,-1.4842,-1.3941,-1.391,0.0,0.0,0.0,0.0,0.0,0.0,0.0,0.0,0.0,0.0,0.0,-1.2733,-1.3699,0.0,-1.5368,-1.6166,-1.6817,-1.7358,-1.7752,-1.7807,-1.7807,-1.7807,-1.8266,-1.861,-1.8826,-1.981,-2.0367,-2.0367,-2.1197,-2.1787,-2.2101,-2.2402,-2.281,-2.3362,-2.3362,-2.3493,-2.3744,-2.3744,-2.3744,-2.3744,-2.3744,-2.3744,-2.3744,-2.3744,-2.3602,-2.3362,-2.3362,-2.323,-2.3001,-2.3001,-2.3001,-2.3001,-2.3001,-2.3001,-2.3001,-2.3001,-2.3001,-2.3001,-2.3001,-2.3001,-2.3001,-2.3001,-2.3001,-2.3001,-2.3001,-2.2848,-2.2663,-2.2494,-2.2435,-2.2347,-2.2159,-2.2103,-2.1908,-2.1537,-2.1475,-2.1491,-2.1164,-2.1491,-2.1877,-2.1877,-2.2002,-2.2137,-2.2261,-2.2199,-2.1906,-2.1325,-2.0902,-2.0535,-2.0228,-1.9282,-1.8527,-1.807,-1.779,-1.7545,-1.729,-1.6841,-1.6407,-1.6105,-1.5669,-1.5194,-1.4666,-1.4656,-1.4656,-1.4656,-1.4656,-1.4769,-1.4997,-1.4997,-1.5121,-1.5339,-1.5101,-1.5121,0.0,0.0,0.0,0.0,0.0,0.0,0.0,0.0,-1.2738,-1.3294,-1.3901,-1.4607,-1.5414,-1.6101,-1.6679,-1.7073,-1.776,-1.8286,-1.8369,-1.8527,-1.8602,-1.8527,-1.9164,-1.9686,-1.9924,-2.0791,-2.1395,-2.1395,-2.1939,-2.2294,-2.2389,-2.2843,-2.3372,-2.3864,-2.3875,-2.4071,-2.4486,-2.4486,-2.4486,-2.4486,-2.4486,-2.4486,-2.4486,-2.4486,-2.4268,-2.3875,-2.3875,-2.3656,-2.3285,-2.3285,-2.323,-2.3143,-2.3143,-2.3088,-2.3001,-2.3001,-2.3001,-2.3001,-2.3001,-2.3065,-2.3213,-2.3075,-2.3213,-2.3434,-2.3287,-2.3361,-2.3434,-2.3434,-2.3568,-2.3723,-2.3607,-2.3431,-2.3147,-2.2922,-2.2516,-2.2195,-2.2083,-2.2383,-2.2689,-2.2689,-2.2944,-2.3258,-2.339,-2.3318,-2.3005,-2.2482,-2.2089,-2.1876,-2.1758,-2.0559,-1.9622,-1.9385,-1.8818,-1.8414,-1.8147,-1.7767,-1.7326,-1.6709,-1.64,-1.5951,-1.5237,-1.5184,-1.5184,-1.5237,-1.5184,-1.5226,-1.5373,-1.5373,-1.556,-1.5925,-1.5925,-1.588,-1.2424,-1.2119,-1.2192,-1.3336,-1.3152,-1.3154,0.0,0.0,-1.4902,-1.5735,-1.5982,-1.6285,-1.7082,-1.7303,-1.7495,-1.7917,-1.8488,-1.9027,-1.9391,-1.9909,-2.0292,-2.0143,-1.9788,-1.9963,-2.0891,-2.1603,-2.2025,-2.2025,-2.2553,-2.3112,-2.3471,-2.3569,-2.3875,-2.4388,-2.441,-2.4432,-2.4486,-2.4486,-2.4486,-2.4486,-2.4486,-2.4486,-2.4486,-2.4486,-2.4454,-2.441,-2.441,-2.4377,-2.4323,-2.4323,-2.4061,-2.3646,-2.3646,-2.3383,-2.3001,-2.3001,-2.3001,-2.3001,-2.3001,-2.3423,-2.3829,-2.3213,-2.3948,-2.4945,-2.4204,-2.4504,-2.5016,-2.5016,-2.5052,-2.5107,-2.5093,-2.514,-2.5049,-2.4471,-2.4519,-2.4481,-2.3853,-2.3733,-2.37,-2.37,-2.3628,-2.3569,-2.3569,-2.3569,-2.3497,-2.3437,-2.2908,-2.2553,-2.2668,-2.212,-2.1491,-2.0883,-2.0349,-1.951,-1.8375,-1.824,-1.7947,-1.7434,-1.7434,-1.7037,-1.6041,-1.5858,-1.5858,-1.5966,-1.5858,-1.6058,-1.6602,-1.6602,-1.6634,-1.6676,-1.6676,-1.6574,-1.4931,-1.4729,0.0,0.0,-1.5696,-1.6072,-1.6908,-1.7103,-1.7163,-1.7483,-1.8033,-1.8453,-1.8351,-1.8533,-1.876,0.0,-1.9392,-1.9774,-1.9937,-2.0295,-2.0585,-2.0956,-2.0798,-2.0795,-2.1288,-2.2083,-2.2628,-2.2628,-2.2852,-2.3209,-2.37,-2.3733,-2.4082,-2.4858,-2.4891,-2.5022,-2.5306,-2.5306,-2.5306,-2.5306,-2.5306,-2.5306,-2.5306,-2.5306,-2.5153,-2.4869,-2.4607,-2.4486,-2.4486,-2.4486,-2.4366,-2.4215,-2.4368,-2.4273,-2.4048,-2.3734,-2.3632,-2.3706,-2.4154,-2.4515,-2.4719,-2.4443,-2.4802,-2.5229,-2.4933,-2.5016,-2.5312,-2.5312,-2.5581,-2.5951,-2.5921,-2.6092,-2.6128,-2.591,-2.5625,-2.5305,-2.4722,-2.4464,-2.4266,-2.3955,-2.376,-2.3628,-2.376,-2.37,-2.3688,-2.3865,-2.3625,-2.3354,-2.327,-2.2897,-2.2352,-2.1673,-2.1075,-2.0526,-1.9957,-1.9596,-1.9056,-1.8159,-1.8147,-1.7686,-1.6575,-1.6454,-1.6454,-1.652,-1.6454,-1.656,-1.6818,-1.6818,-1.6818,-1.6818,-1.7084,-1.7143,-1.6578,0.0,0.0,-1.707,-1.7712,-1.8244,-1.8501,-1.8814,-1.8936,-1.8813,-1.9412,-1.9785,-1.9112,-1.9364,-1.9597,-1.9638,-2.0156,-2.0564,-2.0692,-2.0868,-2.1062,-2.1385,-2.1437,-2.1437,-2.1437,-2.2421,-2.3001,-2.3001,-2.3121,-2.3416,-2.3908,-2.4061,-2.4508,-2.5349,-2.5371,-2.5546,-2.5895,-2.5895,-2.5895,-2.5895,-2.5895,-2.5895,-2.5895,-2.5895,-2.571,-2.536,-2.5022,-2.5029,-2.5258,-2.5258,-2.5328,-2.5397,-2.5627,-2.5611,-2.5424,-2.5107,-2.4741,-2.448,-2.5087,-2.5441,-2.5581,-2.5382,-2.5581,-2.5861,-2.5652,-2.5734,-2.5931,-2.5931,-2.6277,-2.6688,-2.6688,-2.6812,-2.6909,-2.6909,-2.6465,-2.5903,-2.5328,-2.5005,-2.4598,-2.4053,-2.3819,-2.3747,-2.3949,-2.3819,-2.3806,-2.4054,-2.4008,-2.3878,-2.376,-2.3502,-2.3023,-2.2399,-2.1892,-2.1583,-2.1429,-2.0849,-2.0089,-1.9114,-1.8768,-1.8213,-1.719,-1.6976,-1.6864,-1.6931,-1.6864,-1.6864,-1.6931,-1.7059,-1.7123,-1.7134,-1.7584,-1.7857,0.0,0.0,-1.6917,-1.8583,-1.8819,-1.8837,-1.9739,-1.9968,-1.9889,-1.9807,-1.9807,-1.9611,-1.8976,-1.935,-1.9707,-1.9589,-2.0575,-2.1512,-2.1962,-2.2167,-2.2067,-2.1669,-2.1614,-2.1614,0.0,-2.2455,-2.3001,-2.3001,-2.3438,-2.3929,-2.4443,-2.4891,-2.536,-2.5863,-2.5884,-2.5884,-2.5895,-2.5895,-2.5895,-2.5895,-2.5895,-2.5895,-2.5895,-2.5895,-2.5895,-2.5884,-2.5863,-2.634,-2.7139,-2.7139,-2.7298,-2.7596,-2.7584,-2.736,-2.694,-2.712,-2.6374,-2.5241,-2.5312,-2.5791,-2.6277,-2.5511,-2.6277,-2.7323,-2.6552,-2.6837,-2.7456,-2.7456,-2.7456,-2.7469,-2.7469,-2.7443,-2.751,-2.751,-2.7066,-2.6491,-2.5916,-2.5354,-2.4792,-2.423,-2.4112,-2.4112,-2.4112,-2.4112,-2.4112,-2.4112,-2.4112,-2.4112,-2.4112,-2.4099,-2.3851,-2.325,-2.3015,-2.2726,-2.2224,-2.1613,-2.1,-2.0441,-1.9531,-1.8709,-1.8093,-1.739,-1.7078,-1.7278,-1.7078,-1.7078,-1.7278,-1.7759,-1.7988,-1.7988,-1.8447,-1.8665,0.0,0.0,-1.9169,-2.0198,-2.064,-2.1051,-2.2114,-2.2018,-2.1776,-2.1646,-2.1226,-2.0737,-2.0302,-2.0024,-1.9969,-2.0545,-2.1042,-2.1565,-2.2038,-2.2241,-2.2258,-2.2095,-2.2073,0.0,0.0,0.0,0.0,-2.2979,-2.3449,-2.4018,-2.4826,-2.5073,-2.5557,-2.6268,-2.629,-2.6135,-2.5895,-2.6456,-2.6456,-2.5895,-2.5895,-2.5895,-2.5895,-2.5895,-2.5895,-2.5895,-2.6539,-2.694,-2.7267,-2.781,-2.8092,-2.8192,-2.8369,-2.8349,-2.8213,-2.8515,-2.8094,-2.7334,-2.6896,-2.6905,-2.7121,-2.6837,-2.7108,-2.7456,-2.7188,-2.7323,-2.7523,-2.7523,-2.7523,-2.7523,-2.7523,-2.7523,-2.7523,-2.7523,-2.7379,-2.7092,-2.6517,-2.6242,-2.5811,-2.487,-2.4687,-2.4557,-2.4178,-2.4112,-2.4112,-2.4112,-2.4112,-2.4112,-2.4112,-2.4112,-2.4034,-2.3838,-2.3402,-2.3033,-2.2893,-2.2359,-2.1792,-2.1222,-2.0839,-2.0238,-1.9262,-1.8654,-1.8182,-1.7843,-1.7732,-1.769,-1.7759,-1.8239,-1.8458,-1.8469,-1.8949,-1.9168,0.0,-1.9876,-2.0663,-2.1758,-2.2065,-2.2386,-2.3247,-2.3041,-2.2457,-2.1834,-2.1374,-2.0702,-1.9753,-1.9275,-1.9479,-2.059,-2.101,-2.1489,-2.2488,-2.2597,-2.2457,-2.2324,-2.2313,-2.2379,0.0,0.0,0.0,-2.3213,-2.3996,-2.4681,-2.5305,-2.571,-2.6203,-2.6764,-2.6775,-2.661,-2.6385,-2.694,-2.694,-2.6385,-2.6218,-2.629,-2.6693,-2.6693,-2.6835,-2.7069,-2.7557,-2.7879,-2.8279,-2.8664,-2.9057,-2.9344,-2.953,-2.9616,-2.9553,-2.9567,-2.9209,-2.8621,-2.8033,-2.7693,-2.7523,-2.7523,-2.7523,-2.7523,-2.7523,-2.7523,-2.7523,-2.7523,-2.7523,-2.7523,-2.7523,-2.7523,-2.7523,-2.7523,-2.7523,-2.7366,-2.6791,-2.6674,-2.6399,-2.5458,-2.5105,-2.4857,-2.4491,-2.4243,-2.4112,-2.4112,-2.4112,-2.4112,-2.4112,-2.4112,-2.4112,-2.4112,-2.3772,-2.3537,-2.3537,-2.3001,-2.2496,-2.2137,-2.1724,-2.1169,-2.0422,-1.9639,-1.909,-1.8688,-1.8414,-1.825,-1.825,-1.872,-1.8949,-1.896,-1.9452,-1.9681,-2.0452,-2.0983,-2.1389,-2.3143,-2.3121,-2.2868,-2.3293,-2.2949,-2.2122,-2.0614,-2.0259,-1.9565,0.0,0.0,-1.8213,-1.9957,-2.0495,-2.1375,-2.329,-2.3201,-2.2789,0.0,0.0,0.0,0.0,0.0,0.0,-2.3779,0.0,-2.5825,-2.5773,-2.6657,-2.7185,-2.7267,-2.7267,-2.7185,-2.7185,-2.7185,-2.7185,-2.7267,-2.6775,-2.708,-2.8096,-2.8096,-2.8469,-2.8995,-2.8863,-2.9266,-2.9986,-2.9845,-3.0266,-3.0986,-3.0986,-3.0986,-3.0921,-3.0372,-2.981,-2.9248,-2.8634,-2.8033,-2.7523,-2.7523,-2.7523,-2.7523,-2.7523,-2.7523,-2.7523,-2.7523,-2.7523,-2.7523,-2.7523,-2.7523,-2.7523,-2.7523,-2.7523,-2.7379,-2.6831,-2.6713,-2.6543,-2.5968,-2.538,-2.5022,-2.5022,-2.4491,-2.4112,-2.4112,-2.4112,-2.4112,-2.4112,-2.4112,-2.4112,-2.4112,-2.4112,-2.4112,-2.4112,-2.3589,-2.3263,-2.3263,-2.2227,-2.163,-2.1592,-2.0447,-1.9796,-1.9773,-1.9168,-1.8841,-1.8791,-1.9273,-1.9452,-1.9462,-1.9868,-2.0085,-2.1021,-2.1846,-2.2755,-2.3922,-2.3875,-2.353,-2.3661,-2.2686,-2.1459,-2.0677,-1.9406,-1.823,-1.7486,0.0,0.0,-1.9016,-2.0353,0.0,-2.2512,-2.3139,0.0,-2.3372,0.0,-2.4128,-2.4537,-2.5128,0.0,0.0,-2.6014,-2.6472,-2.6738,-2.7002,-2.736,-2.7708,-2.7708,-2.7534,-2.7185,-2.7185,-2.736,-2.7708,-2.7592,-2.7637,-2.7879,-2.8323,-2.8627,-2.8785,-2.9589,-2.9909,-3.0075,-3.081,-3.1123,-3.1198,-3.1198,-3.1198,-3.1185,-3.0891,-3.0411,-2.9836,-2.9248,-2.8386,-2.7523,-2.7523,-2.7523,-2.7523,-2.7523,-2.7523,-2.7523,-2.7523,-2.7523,-2.7523,-2.7523,-2.7523,-2.7523,-2.7523,-2.7523,-2.7484,-2.734,-2.7314,-2.7144,-2.6569,-2.5654,-2.5022,-2.5022,-2.4491,-2.4112,-2.4112,-2.4112,-2.4112,-2.4112,-2.4112,-2.4112,-2.4112,-2.4112,-2.4112,-2.4112,-2.3968,-2.389,-2.389,-2.3573,-2.323,-2.2778,-2.2071,-2.1527,-2.105,-2.0794,-2.0461,-2.0,-2.0438,-2.0381,-1.99,-2.002,-2.0085,-2.2173,-2.3039,-2.3797,-2.4374,-2.4145,-2.3592,-2.2895,-2.1861,-2.0646,-1.9167,-1.7993,0.0,-1.6209,0.0,0.0,0.0,0.0,0.0,-2.2435,-2.3345,-2.3952,0.0,-2.4659,0.0,-2.5645,-2.6325,-2.6817,0.0,-2.7032,-2.7182,-2.7328,-2.7643,-2.7857,-2.8122,-2.8203,-2.803,-2.7765,-2.7615,-2.7857,-2.8578,-2.8315,-2.8597,-2.9279,-2.9601,-2.9909,-3.0279,0.0,-3.0797,-3.0859,-3.1272,-3.1434,-3.1272,-3.1272,-3.1272,-3.1123,-3.1061,-3.0464,-2.9719,-2.9392,-2.8516,-2.7523,-2.7523,-2.7523,-2.7523,-2.7523,-2.7523,-2.7523,-2.7523,-2.7523,-2.7523,-2.7523,-2.7523,-2.7523,-2.7523,-2.7523,-2.7523,-2.7523,-2.7523,-2.7353,-2.6778,-2.6151,-2.5563,-2.5114,-2.47,-2.4413,-2.4151,-2.4112,-2.4112,-2.4112,-2.4112,-2.4112,-2.4112,-2.4112,-2.4112,-2.4112,-2.4112,-2.4112,-2.4112,-2.4112,-2.3968,-2.3629,-2.3012,-2.2556,-2.2229,-2.1871,-2.1365,-2.0699,-2.0986,-2.088,-2.0506,-2.027,-2.027,-2.3364,-2.4085,-2.4434,-2.4506,-2.4085,-2.3244,-2.1668,-2.073,-1.9492,-1.6979,0.0,-1.5897,-1.4542,-1.4748,-1.5843,-1.799,0.0,-2.0643,-2.2484,-2.3542,-2.4212,-2.4487,-2.5307,-2.6063,-2.6633,-2.7462,-2.7881,-2.7973,-2.7962,-2.7921,-2.7771,-2.8258,-2.851,-2.851,-2.851,-2.851,-2.851,-2.8191,-2.8498,-2.9419,-2.9184,-2.9793,-3.1158,-3.1123,-3.1508,-3.2096,-3.1643,-3.1582,-3.189,-3.1569,-3.1421,-3.1347,-3.1347,-3.1211,-3.1048,-3.0895,-3.0241,-2.9366,-2.9209,-2.849,-2.7628,-2.7562,-2.7523,-2.7523,-2.7523,-2.7523,-2.7523,-2.7523,-2.7523,-2.7523,-2.7523,-2.7523,-2.7523,-2.7523,-2.7523,-2.7523,-2.7523,-2.7523,-2.7379,-2.6883,-2.6661,-2.6242,-2.5249,-2.4949,-2.4687,-2.4191,-2.4112,-2.4112,-2.4112,-2.4112,-2.4112,-2.4112,-2.4112,-2.4112,-2.4112,-2.4112,-2.4112,-2.4112,-2.4112,-2.4112,-2.4112,-2.3531,-2.322,-2.322,-2.2665,-2.2051,-2.1376,-2.1376,-2.1313,-2.1187,-2.0635,-2.07,-2.346,-2.3833,-2.4001,-2.441,-2.3809,-2.2702,-2.1115,-1.9312,0.0,0.0,0.0,-1.4627,-1.4337,-1.5171,0.0,-1.7249,0.0,0.0,0.0,0.0,-2.3654,0.0,0.0,0.0,0.0,0.0,0.0,0.0,0.0,-2.8395,-2.8378,-2.8462,-2.851,-2.851,-2.851,-2.851,-2.851,-2.8961,-2.9263,-2.9419,-3.0203,-3.0748,-3.1048,-3.1508,-3.1817,-3.1963,-3.2036,0.0,-3.189,-3.2023,-3.1963,-3.1817,-3.1596,-3.1535,-3.1394,-3.0537,-3.0163,-2.9849,-2.8869,-2.8399,-2.815,-2.768,-2.7523,-2.7523,-2.7523,-2.7523,-2.7523,-2.7523,-2.7523,-2.7523,-2.7523,-2.7523,-2.7523,-2.7523,-2.7523,-2.7523,-2.7523,-2.7523,-2.7497,-2.7406,-2.6621,-2.5903,-2.5707,-2.4883,-2.423,-2.4138,-2.4112,-2.4112,-2.4112,-2.4112,-2.4112,-2.4112,-2.4112,-2.4112,-2.4112,-2.4112,-2.4112,-2.4112,-2.4112,-2.4112,-2.4112,-2.3995,-2.3923,-2.3923,-2.3806,-2.3424,-2.2774,-2.2774,-2.2482,-2.1916,-2.1803,-2.1803,-2.3147,-2.3556,-2.3761,-2.3725,-2.2931,-2.1668,-1.978,0.0,0.0,0.0,0.0,-1.3795,-1.3517,0.0,0.0,0.0,0.0,0.0,0.0,0.0,0.0,0.0,0.0,0.0,0.0,0.0,0.0,0.0,0.0,-2.851,-2.851,-2.851,-2.851,-2.851,-2.851,-2.8669,-2.8961,-2.9263,-2.9716,-3.0317,-3.0872,-3.1272,-3.1656,-3.1817,-3.1963,-3.2036,-3.1963,-3.1963,-3.2036,-3.2036,-3.1963,-3.189,-3.1817,-3.1483,-3.1089,-3.0593,-3.0032,-2.9368,-2.8858,-2.8394,-2.8024,-2.7748,-2.759,-2.7523,-2.7523,-2.7523,-2.7523,-2.7523,-2.7523,-2.7523,-2.7523,-2.7523,-2.7523,-2.7523,-2.7523,-2.7523,-2.7523,-2.7523,-2.7445,-2.7144,-2.6648,-2.6073,-2.5484,-2.4922,-2.4452,-2.4164,-2.4112,-2.4112,-2.4112,-2.4112,-2.4112,-2.4112,-2.4112,-2.4112,-2.4112,-2.4112,-2.4112,-2.4112,-2.4112,-2.4112,-2.4112,-2.4112,-2.4112,-2.4112,-2.4112,-2.3793,-2.3088,-2.3088,-2.2955,-2.2592,-2.2286,-2.2286,-2.2666,-2.3195,-2.3508,-2.3087,-2.2101,-2.0706,-1.8662,-1.7207,0.0,0.0,0.0,-1.324,-1.2926,0.0,0.0,0.0,0.0,0.0,0.0,0.0,0.0,0.0,0.0,0.0,0.0,0.0,0.0,0.0,0.0,-2.851,-2.851,-2.8578,-2.8657,-2.8657,-2.8816,-2.9106,-2.9561,-2.9716,-3.0241,-3.122,-3.1381,-3.1703,-3.2182,-3.2036,-3.2036,-3.2182,-3.189,-3.189,-3.2182,-3.2036,-3.1963,-3.195,-3.1756,-3.1334,-3.0735,-3.041,-2.9731,-2.8864,-2.8744,-2.8319,-2.7855,-2.7855,-2.7723,-2.7523,-2.7523,-2.7523,-2.7523,-2.7523,-2.7523,-2.7523,-2.7523,-2.7523,-2.7523,-2.7523,-2.7523,-2.7523,-2.7523,-2.7523,-2.7392,-2.6948,-2.6661,-2.6203,-2.5315,-2.4949,-2.4635,-2.4178,-2.4112,-2.4112,-2.4112,-2.4112,-2.4112,-2.4112,-2.4112,-2.4112,-2.4112,-2.4112,-2.4112,-2.4112,-2.4112,-2.4112,-2.4112,-2.4112,-2.4112,-2.4112,-2.4112,-2.3852,-2.3339,-2.3339,-2.3339,-2.328,-2.2786,-2.2786,-2.2125,-2.2654,-2.3039,-2.2991,-2.1825,-2.0249,-1.859,0.0,0.0,0.0,-1.3119,-1.2914,-1.3348,-1.3504,0.0,0.0,0.0,0.0,0.0,0.0,0.0,0.0,0.0,0.0,0.0,0.0,0.0,0.0,0.0,-2.851,-2.851,-2.904,-2.9341,-2.9341,-2.9871,-3.0165,-3.0241,-3.0771,-3.1071,-3.122,-3.179,-3.2169,-3.2182,-3.2182,-3.2182,-3.2182,-3.2182,-3.2182,0.0,-3.2182,-3.2182,-3.2128,-3.1384,-3.107,-3.0811,-2.9547,-2.9025,-2.8811,-2.8345,-2.8132,-2.8079,-2.8079,-2.7802,-2.7523,-2.7523,-2.7523,-2.7523,-2.7523,-2.7523,-2.7523,-2.7523,-2.7523,-2.7523,-2.7523,-2.7523,-2.7523,-2.7523,-2.7523,-2.751,-2.7458,-2.6608,-2.5876,-2.5759,-2.4883,-2.4178,-2.4125,-2.4112,-2.4112,-2.4112,-2.4112,-2.4112,-2.4112,-2.4112,-2.4112,-2.4112,-2.4112,-2.4112,-2.4112,-2.4112,-2.4112,-2.4112,-2.4112,-2.4112,-2.4112,-2.4112,-2.4054,-2.3995,-2.3995,-2.3995,-2.3995,-2.3923,-2.3923,-2.1488,-2.2101,-2.2426,-2.2113,-2.0827,-1.9215,-1.7616,0.0,0.0,-1.324,-1.2854,-1.277,-1.2987,-1.3288,-1.384,0.0,-1.516,-1.6045,0.0,0.0,0.0,0.0,0.0,0.0,0.0,0.0,0.0,0.0,0.0,-2.9561,-2.9561,-2.9496,-2.9574,-2.9947,-3.0165,-3.0469,-3.0846,-3.1071,-3.1381,-3.179,-3.2096,-3.2182,-3.2182,-3.2182,-3.2182,-3.2182,-3.2182,-3.2182,0.0,-3.2182,-3.1965,-3.1626,-3.1324,-3.0713,-3.0011,-2.9443,-2.9053,-2.8716,-2.8487,-2.8327,-2.8249,-2.8249,-2.8066,-2.7868,-2.7723,-2.7656,-2.7656,-2.7523,-2.7523,-2.7523,-2.7523,-2.759,-2.7656,-2.7656,-2.7802,-2.7802,-2.7723,-2.7656,-2.7551,-2.721,-2.6488,-2.5831,-2.5489,-2.4741,-2.4203,-2.4203,-2.4203,-2.4261,-2.439,-2.4332,-2.4203,-2.4203,-2.4157,-2.4112,-2.4112,-2.4112,-2.4112,-2.4112,-2.4112,-2.4171,-2.4203,-2.4203,-2.4261,-2.439,-2.439,-2.439,-2.439,-2.439,-2.439,-2.439,-2.439,-2.439,-2.0394,-2.1079,-2.1428,-2.1211,-1.9949,-1.8386,0.0,0.0,-1.3987,-1.2926,-1.2709,-1.2709,-1.2709,-1.3011,-1.3433,-1.3975,-1.4332,-1.5274,-1.7255,0.0,0.0,0.0,0.0,0.0,0.0,0.0,0.0,0.0,-3.0088,-3.0393,-3.0545,-3.0165,-3.0088,-3.0545,-3.0784,-3.1097,-3.1468,-3.1468,-3.1703,-3.2182,-3.2182,-3.2182,-3.2182,-3.2182,-3.2182,-3.2182,-3.2182,-3.2182,0.0,-3.1992,-3.1667,-3.126,-3.0907,-3.0228,-2.9455,-2.9279,-2.894,-2.8587,-2.8587,-2.8509,-2.8365,-2.8365,-2.8314,-2.821,-2.7987,-2.7908,-2.7855,-2.7736,-2.7669,-2.7669,-2.7669,-2.7802,-2.7855,-2.7855,-2.8,-2.8079,-2.7934,-2.7855,-2.7736,-2.7326,-2.6638,-2.599,-2.558,-2.4866,-2.4421,-2.4421,-2.4421,-2.4421,-2.4549,-2.4492,-2.4421,-2.4421,-2.4332,-2.4229,-2.4157,-2.4157,-2.4157,-2.4216,-2.4229,-2.4274,-2.4363,-2.4421,-2.4492,-2.462,-2.462,-2.462,-2.462,-2.462,-2.462,-2.462,-2.462,-2.462,-1.8734,-1.9408,-1.9925,-2.0511,-1.9384,-1.7941,0.0,-1.5392,-1.3987,-1.2926,-1.2709,-1.2709,-1.2709,-1.2709,-1.289,-1.3421,-1.3951,-1.5037,-1.7123,0.0,0.0,0.0,0.0,0.0,0.0,0.0,0.0,0.0,-3.0317,0.0,-3.1158,-3.1145,-3.1145,-3.122,-3.185,-3.2169,-3.2182,-3.2182,-3.2182,-3.2182,-3.2182,-3.2182,-3.2182,-3.2182,-3.2182,-3.2182,-3.2182,-3.2182,0.0,-3.1544,-3.13,-3.1165,-2.9971,-2.9482,-2.9401,-2.8817,-2.86,-2.8587,-2.8587,-2.8587,-2.8587,-2.8587,-2.8587,-2.8587,-2.8365,-2.8183,-2.8079,-2.8079,-2.8079,-2.8079,-2.8079,-2.8079,-2.8079,-2.8079,-2.8079,-2.8079,-2.8079,-2.8079,-2.8079,-2.8079,-2.712,-2.6294,-2.6294,-2.5322,-2.462,-2.462,-2.462,-2.462,-2.462,-2.462,-2.462,-2.462,-2.462,-2.4492,-2.4292,-2.4292,-2.4363,-2.4549,-2.462,-2.462,-2.462,-2.462,-2.462,-2.462,-2.462,-2.462,-2.462,-2.462,-2.462,-2.462,-2.462,-2.462,-1.6691,-1.7748,-1.8482,-1.7568,-1.6955,-1.6305,-1.5247,-1.4084,-1.3107,-1.2782,-1.242,-1.2287,-1.2649,-1.2709,-1.3083,-1.4345,-1.4927,0.0,0.0,0.0,0.0,0.0,0.0,0.0,0.0,0.0,0.0,0.0,-3.132,-3.1703,-3.1863,-3.1863,-3.1863,-3.1863,-3.2096,-3.2182,-3.2182,-3.2182,-3.2182,-3.2182,-3.2182,-3.2182,-3.2182,-3.2182,-3.2182,-3.2182,-3.2182,-3.1951,-3.1558,-3.1368,-3.0798,-3.0011,-2.9631,-2.9224,-2.8845,-2.8655,-2.8587,-2.8587,-2.8587,-2.8587,-2.8587,-2.8587,-2.8587,-2.8587,-2.8509,-2.8379,-2.8249,-2.8145,-2.8079,-2.8079,-2.8079,-2.8197,-2.8235,-2.8235,-2.8314,-2.8392,-2.8249,-2.8235,-2.8235,-2.8235,-2.7618,-2.6961,-2.6572,-2.5848,-2.519,-2.4788,-2.4721,-2.4778,-2.4835,-2.4778,-2.4721,-2.4721,-2.4677,-2.4563,-2.4492,-2.4492,-2.4549,-2.462,-2.462,-2.462,-2.4734,-2.4721,-2.4778,-2.4892,-2.4892,-2.4892,-2.4892,-2.4892,-2.4892,-2.4892,-2.4892,-2.4892,0.0,-1.5957,-1.657,-1.5936,-1.5492,-1.5019,-1.4192,-1.318,-1.2348,-1.2155,-1.201,-1.2022,-1.2472,-1.2704,-1.3276,-1.4553,-1.5201,0.0,0.0,0.0,0.0,0.0,0.0,0.0,0.0,0.0,0.0,-3.089,-3.1276,-3.1504,-3.1504,-3.1504,-3.1504,-3.1504,-3.1938,-3.2182,-3.2182,-3.2182,-3.2182,-3.2182,-3.2182,-3.2182,-3.2182,-3.2182,-3.2182,-3.2182,-3.2182,-3.1843,0.0,-3.1042,-3.0364,-2.9455,-2.9224,-2.8912,-2.8587,-2.8587,-2.8587,-2.8587,-2.8587,-2.8587,-2.8587,-2.8587,-2.8587,-2.8587,-2.8587,-2.8509,-2.8379,-2.8327,-2.8276,-2.8276,-2.8276,-2.8327,-2.843,-2.843,-2.8509,-2.8587,-2.8444,-2.843,-2.843,-2.843,-2.7719,-2.7058,-2.6708,-2.5999,-2.5324,-2.4946,-2.4892,-2.4892,-2.5005,-2.4948,-2.4892,-2.4892,-2.4778,-2.4721,-2.4721,-2.4677,-2.4677,-2.4721,-2.4721,-2.4778,-2.4892,-2.4892,-2.4892,-2.5005,-2.5005,-2.5005,-2.5005,-2.5005,-2.5005,-2.5005,-2.5005,-2.5005,0.0,-1.406,-1.4349,-1.5169,-1.473,-1.3939,-1.3445,-1.254,0.0,-1.1183,-1.1496,-1.1943,-1.2287,-1.2805,-1.3461,-1.4426,0.0,0.0,0.0,0.0,0.0,0.0,0.0,0.0,0.0,0.0,-3.0405,-3.0405,-3.0405,-3.0405,-3.0405,-3.0405,-3.0405,-3.0405,-3.1477,-3.2074,-3.2114,-3.2074,-3.2074,-3.2114,-3.2074,-3.2046,-3.2046,-3.2046,-3.2046,0.0,-3.2046,-3.1721,-3.1124,-3.0568,-2.9971,-2.936,-2.8804,-2.8587,-2.8587,-2.8587,-2.8587,-2.8587,-2.8587,-2.8587,-2.8587,-2.8587,-2.8587,-2.8587,-2.8587,-2.8587,-2.8587,-2.8587,-2.8587,-2.8587,-2.8587,-2.8587,-2.8587,-2.8587,-2.8587,-2.8587,-2.8587,-2.8587,-2.8587,-2.8587,-2.7691,-2.6932,-2.6891,-2.5914,-2.5113,-2.5073,-2.5032,-2.5005,-2.5005,-2.5005,-2.5005,-2.5005,-2.5005,-2.5005,-2.5005,-2.4892,-2.4892,-2.5005,-2.5005,-2.5005,-2.5005,-2.5005,-2.5005,-2.5005,-2.5005,-2.5005,-2.5005,-2.5005,-2.5005,-2.5005,-2.5005,-2.5032,-1.087,0.0,-1.2301,-1.1748,-1.1724,-1.1808,0.0,-1.1147,-1.0762,0.0,0.0,-1.1628,-1.278,-1.3426,-1.4362,0.0,0.0,0.0,0.0,0.0,0.0,0.0,0.0,0.0,0.0,0.0,-3.0405,-3.0405,-3.0405,-3.0405,-3.0405,-3.0405,-3.0405,-3.0405,-3.069,-3.1042,-3.1504,-3.1042,-3.1042,-3.1504,-3.1042,-3.0825,-3.0825,-3.0825,-3.0825,-3.0825,-3.0825,-3.0473,-2.9889,-2.9754,-2.9347,-2.879,-2.8655,-2.8587,-2.8587,-2.8587,-2.8587,-2.8587,-2.8587,-2.8587,-2.8587,-2.8587,-2.8587,-2.8587,-2.8587,-2.8587,-2.8587,-2.8587,-2.8587,-2.8587,-2.8587,-2.8587,-2.8587,-2.8587,-2.8587,-2.8587,-2.8587,-2.8587,-2.8587,-2.8587,-2.837,-2.803,-2.7583,-2.6891,-2.624,-2.5751,-2.5303,-2.5005,-2.5005,-2.5005,-2.5005,-2.5005,-2.5005,-2.5005,-2.5005,-2.4948,-2.4948,-2.5005,-2.5005,-2.5005,-2.5005,-2.5005,-2.5005,-2.5005,-2.5005,-2.5005,-2.5005,-2.5005,-2.5005,-2.5005,-2.5005,-2.5249,-0.9572,-1.0791,-1.1808,-1.1471,-1.1519,-1.1575,-1.1491,0.0,0.0,0.0,0.0,0.0,-1.312,0.0,0.0,0.0,0.0,0.0,0.0,0.0,0.0,0.0,0.0,0.0,0.0,0.0,-2.9577,-2.9577,-2.9577,-2.9577,-2.9577,-2.9577,-2.9577,-2.9577,-2.9577,-2.9998,-3.088,-3.0568,-3.0568,-3.088,-3.0568,-3.0405,-3.0405,-3.0405,-3.0405,-3.0405,-3.0405,-3.0052,-2.9482,-2.9482,-2.9116,-2.8587,-2.8587,-2.8587,-2.8587,-2.8587,-2.8587,-2.8587,-2.8587,-2.8587,-2.8587,-2.8587,-2.8766,-2.8931,-2.8716,-2.8817,-2.8944,-2.8716,-2.8587,-2.8587,-2.8587,-2.8587,-2.8587,-2.8587,-2.8587,-2.8587,-2.8587,-2.8587,-2.8587,-2.8587,-2.837,-2.8085,-2.7773,-2.7216,-2.6606,-2.5982,-2.5615,-2.5317,-2.5046,-2.5005,-2.5005,-2.5005,-2.5005,-2.5005,-2.5005,-2.5005,-2.5005,-2.5005,-2.5005,-2.5005,-2.5005,-2.5005,-2.5005,-2.5005,-2.5005,-2.5005,-2.5005,-2.5005,-2.5005,-2.5018,-2.5276,-2.5588,-0.924,-1.0636,-1.2086,-1.2399,-1.2407,-1.2282,-1.2099,0.0,0.0,0.0,0.0,0.0,0.0,0.0,0.0,0.0,0.0,0.0,0.0,0.0,0.0,0.0,0.0,0.0,0.0,-2.8587,-2.8587,-2.8587,-2.8587,-2.8587,-2.8587,-2.8587,-2.8587,-2.8587,-2.8587,-2.9089,-3.012,-3.0133,-3.0174,-3.0269,-3.0174,-3.0133,-3.0133,-3.0133,-3.0133,-3.0133,-3.0133,0.0,-2.9333,-2.9333,-2.9048,-2.8587,-2.8587,-2.8651,-2.8766,-2.8766,-2.883,-2.8894,-2.8894,-2.8894,-2.8894,-2.8894,-2.9233,-2.958,-2.9071,-2.9233,-2.9518,-2.9008,-2.8766,-2.8587,-2.8587,-2.8587,-2.8587,-2.8587,-2.8587,-2.8587,-2.8587,-2.8587,-2.8587,-2.8587,-2.8193,-2.7841,-2.7841,-2.7271,-2.6647,-2.6117,-2.5873,-2.5575,-2.5073,-2.5005,-2.5005,-2.5005,-2.5005,-2.5005,-2.5005,-2.5005,-2.5005,-2.5005,-2.5005,-2.5005,-2.5005,-2.5005,-2.5005,-2.5005,-2.5005,-2.5005,-2.5005,-2.5005,-2.5059,-2.5154,-2.5656,-2.5982,-1.0326,-1.1706,-1.2411,-1.1702,-1.2233,-1.2935,-1.2847,0.0,0.0,0.0,0.0,0.0,0.0,0.0,0.0,0.0,0.0,0.0,0.0,0.0,0.0,0.0,0.0,0.0,-2.8587,-2.8587,-2.8587,-2.8587,-2.8587,-2.8587,-2.8587,-2.8587,-2.8587,-2.8587,-2.8587,-2.8682,-2.8872,-2.8872,-2.9116,-2.9618,-2.9116,-2.8872,-2.8872,-2.8872,-2.8872,-2.8872,0.0,-2.8817,-2.8736,-2.8736,-2.8668,-2.8587,-2.8587,-2.8944,-2.9331,-2.9331,-2.9718,-3.0222,-3.0222,-3.0222,-3.0222,-3.0222,-3.0283,-3.0329,-3.0222,-3.0269,-3.0329,-3.0208,-2.9435,-2.8587,-2.8587,-2.8587,-2.8587,-2.8587,-2.8587,-2.8587,-2.8587,-2.8587,-2.8587,-2.8587,-2.8519,-2.8451,-2.8451,-2.7556,-2.6796,-2.6701,-2.5805,-2.51,-2.5018,-2.5005,-2.5005,-2.5005,-2.5005,-2.5005,-2.5005,-2.5005,-2.5005,-2.5005,-2.5005,-2.5005,-2.5005,-2.5005,-2.5005,-2.5005,-2.5005,-2.5005,-2.5005,-2.5005,-2.5263,-2.5751,-2.5846,-2.6443,-0.9644,-1.1452,-1.2922,-1.2689,-1.3579,-1.4422,-1.4271,0.0,0.0,0.0,0.0,0.0,0.0,0.0,0.0,0.0,0.0,0.0,0.0,0.0,0.0,0.0,0.0,-2.8587,-2.8587,-2.8587,-2.8587,-2.8587,-2.8587,-2.8587,-2.8587,-2.8587,-2.8587,-2.8587,-2.8587,-2.8587,-2.8587,-2.8587,-2.8736,-2.8994,-2.8722,-2.8587,-2.8587,-2.8587,-2.8766,-2.9107,0.0,-2.9296,-2.9623,-2.9623,-2.9623,-2.9623,-2.9623,-2.9794,-3.0011,-3.0011,-3.0269,-3.0524,-3.0524,-3.0524,-3.0524,-3.0524,-3.0763,-3.0999,-3.0644,-3.0763,-3.094,-3.0584,-3.0101,-2.9623,-2.9623,-2.9623,-2.9623,-2.9623,-2.9623,-2.9623,-2.9623,-2.9623,-2.9484,-2.917,-2.9107,-2.8898,-2.823,-2.7664,-2.7081,-2.6416,-2.5846,-2.5371,-2.5046,-2.5005,-2.5005,-2.5005,-2.5005,-2.5005,-2.5005,-2.5005,-2.5005,-2.5005,-2.5005,-2.5005,-2.5005,-2.5005,-2.5005,-2.5005,-2.5005,-2.5005,-2.5005,-2.5005,-2.5317,-2.59,-2.624,-2.6864,-0.9252,-1.1089,-1.2972,-1.4038,0.0,-1.5751,-1.5915,0.0,0.0,0.0,0.0,0.0,0.0,0.0,0.0,0.0,0.0,0.0,0.0,0.0,0.0,0.0,-2.8587,-2.8587,-2.8587,-2.8587,-2.8587,-2.8587,-2.8587,-2.8587,-2.8587,-2.8587,-2.8587,-2.8587,-2.8587,-2.8587,-2.8587,-2.8587,-2.8587,-2.8587,-2.8766,-2.8817,-2.883,-2.8944,-2.9233,-2.9504,-2.9504,-2.9766,-3.0269,-3.0269,-3.0329,-3.0524,-3.0524,-3.0584,-3.0763,-3.0866,-3.0925,-3.0925,-3.0925,-3.0925,-3.0925,-3.0925,-3.1291,-3.1595,-3.1102,-3.1291,-3.1595,-3.1116,-3.0925,-3.0866,-3.0584,-3.0524,-3.0524,-3.0524,-3.0524,-3.0524,-3.0524,-3.0524,-3.0329,-2.9827,-2.9638,-2.9228,-2.8304,-2.7878,-2.7368,-2.6431,-2.6155,-2.5894,-2.5285,-2.523,-2.5174,-2.5005,-2.5005,-2.5005,-2.5005,-2.5005,-2.5005,-2.5005,-2.5005,-2.5005,-2.5005,-2.5005,-2.5005,-2.5005,-2.5005,-2.5073,-2.5208,-2.5208,-2.5588,-2.6321,-2.6809,-2.7339,-1.042,-1.1178,-1.2053,-1.502,-1.5858,0.0,-1.7598,-1.7411,0.0,0.0,0.0,0.0,0.0,0.0,0.0,0.0,0.0,0.0,0.0,0.0,0.0,-2.8451,-2.8587,-2.8587,-2.8587,-2.8587,-2.8587,-2.8587,-2.8587,-2.8587,-2.8587,-2.8587,-2.8587,-2.8587,-2.8587,-2.8587,-2.8587,-2.8587,-2.8587,-2.8587,-2.917,-2.9456,-2.9456,-3.0086,-3.0086,-2.9504,-2.9504,-2.9504,-2.9566,-2.9566,-2.995,-3.0524,-3.0524,-3.0881,-3.148,-3.2048,-3.2272,-3.2272,-3.2272,-3.2272,-3.2272,-3.2272,-3.2272,-3.2342,-3.2272,-3.2272,-3.2342,-3.2272,-3.2272,-3.1977,-3.0807,-3.0524,-3.0524,-3.0524,-3.0524,-3.0524,-3.0524,-3.0524,-3.0524,-3.045,-2.9927,-2.9449,-2.9406,-2.8368,-2.7561,-2.7461,-2.6982,-2.6433,-2.5893,-2.5839,-2.5619,-2.5061,-2.5005,-2.5005,-2.5005,-2.5005,-2.5005,-2.5005,-2.5005,-2.5005,-2.5005,-2.5005,-2.5005,-2.5005,-2.5005,-2.5276,-2.5833,-2.5833,-2.643,-2.7569,-2.7623,-2.7963,-0.972,-1.097,-1.2326,-1.4752,0.0,0.0,0.0,0.0,0.0,0.0,0.0,0.0,0.0,0.0,0.0,0.0,0.0,0.0,0.0,0.0,-2.6986,-2.7447,-2.7488,-2.7488,-2.7488,-2.7827,-2.8044,-2.8044,-2.8383,-2.8766,-2.917,-2.917,-2.9345,-2.9794,-2.9435,-2.9184,-2.917,-2.931,-2.9324,-2.9324,-2.9546,-2.9889,-3.024,-3.0147,-3.0101,-3.0133,-3.0133,-3.0375,-3.0793,-3.1145,-3.1435,-3.1694,-3.1694,-3.1807,-3.2104,-3.2342,-3.2398,-3.2398,-3.2398,-3.2398,-3.2398,-3.2398,-3.2453,-3.2523,-3.2453,-3.2453,-3.2523,-3.2398,-3.2398,-3.2272,-3.1807,-3.1694,-3.1694,-3.1694,-3.1694,-3.1694,-3.1694,-3.1694,-3.1459,-3.0641,-3.0317,-2.9734,-2.8536,-2.7943,-2.748,-2.7113,-2.6837,-2.664,-2.6443,-2.639,-2.6336,-2.6108,-2.6054,-2.5797,-2.5061,-2.5342,-2.5397,-2.5005,-2.5005,-2.5005,-2.5005,-2.5005,-2.5005,-2.5005,-2.5005,-2.5303,-2.5887,-2.5887,-2.6321,-2.7162,-2.7162,-2.7271,-0.9523,-1.095,-1.2593,0.0,0.0,0.0,0.0,0.0,0.0,0.0,0.0,0.0,0.0,0.0,0.0,0.0,0.0,0.0,0.0,-2.6253,-2.6606,-2.6796,-2.6823,-2.6823,-2.6823,-2.7189,-2.7482,-2.7701,-2.7912,-2.8443,-2.9291,-2.911,-2.9291,-2.9973,-2.9806,-2.9651,-2.9622,-2.9911,-3.0208,-3.0435,-3.0435,-3.0674,-3.1072,-3.0866,-3.0807,-3.0911,-3.0911,-3.116,-3.1595,-3.1992,-3.2272,-3.2398,-3.2398,-3.2398,-3.2398,-3.2398,-3.2398,-3.2398,-3.2398,-3.2398,-3.2398,-3.2398,-3.2453,-3.2523,-3.2453,-3.2523,-3.2578,-3.2523,-3.2523,-3.2578,-3.2578,-3.2453,-3.2398,-3.2398,-3.2398,-3.2398,-3.2398,-3.2228,-3.1827,-3.097,-3.0452,-2.9717,-2.8379,-2.8039,-2.7795,-2.7386,-2.7312,-2.7312,-2.7093,-2.7093,-2.7027,-2.682,-2.673,-2.6269,-2.5412,-2.5619,-2.5578,-2.5005,-2.5005,-2.5005,-2.5005,-2.5005,-2.5005,-2.5005,-2.5005,-2.5303,-2.5887,-2.5887,-2.6212,-2.6823,-2.6823,-2.6823,-1.0122,-1.1247,0.0,0.0,0.0,0.0,0.0,0.0,0.0,0.0,0.0,0.0,0.0,0.0,0.0,0.0,0.0,0.0,-2.5805,-2.5873,-2.6117,-2.6742,-2.6809,-2.6809,-2.6809,-2.6809,-2.7083,-2.7736,-2.7189,-2.744,-2.8817,-2.8197,-2.814,-2.8873,-2.9572,-2.9881,-2.9881,-3.0426,-3.1115,-3.1875,-3.1875,-3.1931,-3.1946,-3.2578,-3.2523,-3.189,-3.189,-3.1834,-3.1679,-3.1679,-3.1977,-3.2398,-3.2398,-3.2398,-3.2398,-3.2398,-3.2398,-3.2398,-3.2398,-3.2398,-3.2398,-3.2398,-3.2398,-3.2398,-3.2398,-3.2523,-3.2594,-3.2594,-3.2773,-3.2897,-3.2897,-3.2648,-3.2382,-3.2382,-3.2398,-3.2398,-3.2398,-3.1859,-3.1382,-3.1366,-3.032,-2.9412,-2.9396,-2.894,-2.8573,-2.8573,-2.8684,-2.8573,-2.8012,-2.7898,-2.77,-2.7181,-2.6745,-2.6375,-2.6026,-2.5715,-2.5369,-2.5005,-2.5005,-2.5005,-2.5005,-2.5005,-2.5005,-2.5005,-2.5005,-2.5303,-2.5887,-2.5887,-2.6212,-2.6809,-2.6809,-2.6809,-1.0382,-1.1816,0.0,0.0,0.0,0.0,0.0,0.0,0.0,0.0,0.0,0.0,0.0,0.0,0.0,-2.5015,-2.5364,-2.5689,-2.5855,-2.5883,-2.6106,-2.6647,-2.6826,-2.6895,-2.6895,-2.7351,-2.772,-2.7926,-2.8123,-2.865,-2.9514,-2.9337,-2.9514,-3.0225,-2.9993,-2.9838,-2.9838,-3.0087,-3.0598,-3.1357,-3.1942,-3.2329,-3.2594,-3.2422,-3.2185,-3.189,-3.189,-3.189,-3.189,-3.2342,-3.2648,-3.2773,-3.2773,-3.2773,-3.2773,-3.2773,-3.2773,-3.2718,-3.2578,-3.2523,-3.2523,-3.2453,-3.2453,-3.2523,-3.2523,-3.2648,-3.2843,-3.2843,-3.2469,-3.2257,-3.2772,-3.2453,-3.2082,-3.2648,-3.2773,-3.2773,-3.2773,-3.2213,-3.1508,-3.0938,-3.02,-2.9506,-2.8927,-2.8776,-2.8747,-2.8747,-2.8747,-2.8747,-2.8573,-2.8525,-2.8189,-2.7333,-2.7795,-2.7545,-2.6068,-2.6428,-2.6443,-2.566,-2.5619,-2.5453,-2.5005,-2.5005,-2.5005,-2.5005,-2.5005,-2.5303,-2.5887,-2.5887,-2.5982,-2.6172,-2.6172,-2.5941,-1.1508,0.0,0.0,0.0,0.0,0.0,0.0,0.0,0.0,0.0,0.0,0.0,0.0,0.0,0.0,-2.5877,-2.6184,-2.6336,-2.6297,-2.6297,-2.639,-2.6678,-2.6849,-2.6901,-2.6901,-2.7342,-2.7735,-2.801,-2.8142,-2.8576,-2.9469,-2.9266,-2.9434,-3.011,-3.003,-2.9986,-2.9986,-3.0248,-3.0603,-3.1087,-3.1534,-3.1923,-3.2138,-3.2182,-3.1975,-3.1605,-3.1567,-3.1705,-3.1951,-3.2338,-3.2647,-3.2897,-3.2897,-3.2897,-3.2897,-3.2897,-3.2725,-3.2476,-3.2338,-3.2113,-3.1843,-3.1774,-3.1843,-3.1896,-3.1896,-3.2017,-3.2138,-3.2138,-3.1862,-3.1679,-3.2118,-3.1898,-3.1768,-3.2663,-3.2694,-3.2476,-3.2476,-3.1711,-3.0849,-3.0394,-2.9822,-2.923,-2.8762,-2.8779,-2.8858,-2.8858,-2.8873,-2.892,-2.892,-2.892,-2.87,-2.8061,-2.8383,-2.814,-2.6864,-2.7159,-2.7093,-2.6443,-2.639,-2.6215,-2.5837,-2.5536,-2.5342,-2.5342,-2.5342,-2.552,-2.5878,-2.5878,-2.5878,-2.5878,-2.5878,-2.5685,0.0,0.0,0.0,0.0,0.0,0.0,0.0,0.0,0.0,0.0,0.0,0.0,0.0,0.0,0.0,-2.6953,-2.7093,-2.7129,-2.699,-2.7004,-2.6953,-2.6886,-2.699,-2.7093,-2.7093,-2.7181,-2.7535,-2.8174,-2.765,-2.7784,-2.9029,-2.8527,-2.8479,-2.9075,-2.9753,-3.0085,-3.0085,-3.0571,-3.0867,-3.093,-3.093,-3.093,-3.0961,-3.1804,-3.1823,-3.1207,-3.1074,-3.1369,-3.1919,-3.1779,-3.2117,-3.2763,-3.2763,-3.2763,-3.2763,-3.2763,-3.2289,-3.1727,-3.1727,-3.1337,-3.0803,-3.0787,-3.0787,-3.0787,-3.0787,-3.0888,-3.0974,-3.1024,-3.1076,-3.1128,-3.1191,-3.116,-3.141,-3.2504,-3.2211,-3.1727,-3.1727,-3.0729,-2.9824,-2.9824,-2.9262,-2.8842,-2.8794,-2.8842,-2.8904,-2.8904,-2.9013,-2.9075,-2.9075,-2.9075,-2.9091,-2.9029,-2.8764,-2.8415,-2.8125,-2.7765,-2.7449,-2.7181,-2.7181,-2.7181,-2.7181,-2.639,-2.5988,-2.5988,-2.5948,-2.5893,-2.5948,-2.5893,-2.5893,-2.5893,-2.5893,-2.5893,0.0,0.0,0.0,0.0,0.0,0.0,0.0,0.0,0.0,0.0,0.0,0.0,0.0,0.0,0.0,-2.7595,-2.77,-2.77,-2.77,-2.77,-2.7864,-2.8317,-2.8431,-2.8463,-2.8463,-2.8606,-2.8716,-2.8873,-2.8764,-2.8826,-2.9075,-2.8967,-2.8936,-2.9091,-2.9279,-2.9358,-2.9358,-2.9454,-2.9817,-3.0353,-3.0353,-3.0353,-3.0385,-3.1128,-3.1365,-3.1223,-3.1173,-3.1252,-3.1378,-3.1328,-3.1423,-3.1565,-3.1565,-3.1565,-3.1565,-3.1565,-3.147,-3.1328,-3.1193,-3.1099,-3.0939,-3.0838,-3.0787,-3.0838,-3.0939,-3.0974,-3.1024,-3.1124,-3.0779,-3.0528,-3.1065,-3.0812,-3.0622,-3.136,-3.1439,-3.1328,-3.1328,-3.0683,-3.0084,-3.0003,-2.9438,-2.8982,-2.8889,-2.8982,-2.9075,-2.9075,-2.9075,-2.9075,-2.9075,-2.9075,-2.8982,-2.8669,-2.8826,-2.8669,-2.8012,-2.8158,-2.811,-2.775,-2.775,-2.775,-2.775,-2.6849,-2.6496,-2.6834,-2.6244,-2.6056,-2.6351,-2.6042,-2.5893,-2.5893,-2.5893,-2.5893,0.0,0.0,0.0,0.0,0.0,0.0,0.0,0.0,0.0,0.0,0.0,0.0,0.0,0.0,-2.6995,-2.735,-2.7473,-2.7628,-2.7843,-2.7889,-2.8123,-2.87,-2.8842,-2.8904,-2.8904,-2.9013,-2.9075,-2.9075,-2.9075,-2.9075,-2.9075,-2.9075,-2.9075,-2.9075,-2.9075,-2.9075,-2.9075,-2.9075,-2.9311,-2.9674,-2.9674,-2.9674,-2.969,-3.0054,-3.0212,-3.0212,-3.0212,-3.0401,-3.0717,-3.0717,-3.0923,-3.1223,-3.1223,-3.1223,-3.1223,-3.1223,-3.1002,-3.0717,-3.062,-3.0415,-3.0083,-2.9986,-2.9986,-2.9986,-3.0083,-3.0083,-3.0131,-3.0164,-2.9959,-2.9753,-3.0117,-2.9943,-2.9769,-3.0133,-3.0464,-3.0717,-3.0717,-3.0164,-2.9627,-2.958,-2.9343,-2.9075,-2.9013,-2.9075,-2.9075,-2.9075,-2.9075,-2.9075,-2.9075,-2.9075,-2.9029,-2.8826,-2.8982,-2.892,-2.8511,-2.8669,-2.8716,-2.8511,-2.8463,-2.8463,-2.8463,-2.7815,-2.7464,-2.7485,-2.7093,-2.6864,-2.6945,-2.6864,-2.6669,-2.634,-2.6539,-2.6486,0.0,0.0,0.0,0.0,0.0,0.0,0.0,0.0,0.0,0.0,0.0,0.0,0.0,0.0,-2.6796,-2.6922,-2.7056,-2.7245,-2.7724,-2.7758,-2.7933,-2.8466,-2.8544,-2.8606,-2.8778,-2.884,-2.8995,-2.9075,-2.9075,-2.9075,-2.9075,-2.9075,-2.9075,-2.9075,-2.9075,-2.9075,-2.9075,-2.9075,-2.9075,-2.9075,-2.9075,-2.9075,-2.9075,-2.9075,-2.9075,-2.9075,-2.9075,-2.9453,-3.0006,-3.0006,-3.0338,-3.086,-3.086,-3.086,-3.086,-3.086,-3.0496,-3.0006,-3.0006,-2.9611,-2.9075,-2.9075,-2.9075,-2.9075,-2.9075,-2.9075,-2.9075,-2.9075,-2.9075,-2.9075,-2.9075,-2.9075,-2.9075,-2.9075,-2.958,-3.0006,-3.0006,-2.9532,-2.9075,-2.9075,-2.9075,-2.9075,-2.9075,-2.9075,-2.9075,-2.9075,-2.9075,-2.9075,-2.9075,-2.9075,-2.9075,-2.9075,-2.9075,-2.9075,-2.9075,-2.9075,-2.9075,-2.9075,-2.9075,-2.9075,-2.9075,-2.8764,-2.8463,-2.811,-2.7963,-2.778,-2.759,-2.7745,-2.7545,-2.6974,-2.7181,-2.7144,0.0,0.0,0.0,0.0,0.0,0.0,0.0,0.0,0.0,0.0,0.0,0.0,0.0,0.0,-2.6314,-2.6961,-2.7099,-2.7146,-2.7182,-2.7198,-2.7229,-2.7324,-2.7324,-2.7561,-2.8173,-2.8221,-2.8474,-2.9044,-2.9075,-2.9075,-2.9075,-2.9075,-2.9075,-2.9075,-2.9075,-2.9075,-2.9075,-2.9075,-2.9075,-2.9075,-2.9075,-2.9075,-2.9075,-2.9075,-2.9075,-2.9075,-2.9075,-2.9138,-2.9264,-2.9264,-2.928,-2.9359,-2.9359,-2.9359,-2.9359,-2.9359,-2.9343,-2.9264,-2.9264,-2.9154,-2.9075,-2.9075,-2.9075,-2.9075,-2.9075,-2.9075,-2.9075,-2.9075,-2.9075,-2.9075,-2.9075,-2.9075,-2.9075,-2.9075,-2.9154,-2.9264,-2.9264,-2.9185,-2.9075,-2.9075,-2.9075,-2.9075,-2.9075,-2.9075,-2.9075,-2.9075,-2.9075,-2.9075,-2.9075,-2.9075,-2.9075,-2.9075,-2.9075,-2.9075,-2.9075,-2.9075,-2.9075,-2.9075,-2.9075,-2.9075,-2.9075,-2.9029,-2.8967,-2.8936,-2.8271,-2.8061,-2.8319,-2.7775,-2.756,-2.7715,-2.7167,-2.7041,0.0,0.0,0.0,0.0,0.0,0.0,0.0,0.0,0.0,0.0,0.0,0.0,0.0,0.0,-2.5535,-2.5851,-2.5898,-2.604,-2.6435,-2.6483,-2.6641,-2.7051,-2.7099,-2.7225,-2.751,-2.7541,-2.7668,-2.7968,-2.8,-2.8,-2.8,-2.8347,-2.8553,-2.8553,-2.8916,-2.9075,-2.9075,-2.9075,-2.9075,-2.9075,-2.9075,-2.9075,-2.9075,-2.9075,-2.9075,-2.9075,-2.9075,-2.9075,-2.9075,-2.9075,-2.9075,-2.9075,-2.9075,-2.9075,-2.9075,-2.9075,-2.9075,-2.9075,-2.9075,-2.9075,-2.9075,-2.9075,-2.9075,-2.9075,-2.9075,-2.9075,-2.9075,-2.9075,-2.9075,-2.9075,-2.9075,-2.9075,-2.9075,-2.9075,-2.9075,-2.9075,-2.9075,-2.9075,-2.9075,-2.9075,-2.9075,-2.9075,-2.9075,-2.9075,-2.9075,-2.9075,-2.9075,-2.9075,-2.9075,-2.9075,-2.9075,-2.9075,-2.9075,-2.9075,-2.9075,-2.9075,-2.9075,-2.9075,-2.9075,-2.9075,-2.9075,-2.9075,-2.9075,-2.9075,-2.8764,-2.8559,-2.8511,-2.8398,-2.8189,-2.7898,-2.778,-2.7745,0.0,0.0,0.0,0.0,0.0,0.0,0.0,0.0,0.0,0.0,0.0,0.0,0.0,0.0,-2.5005,-2.5005,-2.5005,-2.5195,-2.5677,-2.574,-2.5945,-2.6498,-2.6562,-2.6625,-2.6799,-2.683,-2.6909,-2.7099,-2.7099,-2.7099,-2.7099,-2.7573,-2.7841,-2.7841,-2.8347,-2.857,-2.857,-2.8774,-2.8902,-2.9075,-2.9075,-2.9075,-2.9075,-2.9075,-2.9075,-2.9075,-2.9075,-2.9075,-2.9075,-2.9075,-2.9075,-2.9075,-2.9075,-2.9075,-2.9075,-2.9075,-2.9075,-2.9075,-2.9075,-2.9075,-2.9075,-2.9075,-2.9075,-2.9075,-2.9075,-2.9075,-2.9075,-2.9075,-2.9075,-2.9075,-2.9075,-2.9075,-2.9075,-2.9075,-2.9075,-2.9075,-2.9075,-2.9075,-2.9075,-2.9075,-2.9075,-2.9075,-2.9075,-2.9075,-2.9075,-2.9075,-2.9075,-2.9075,-2.9075,-2.9075,-2.9075,-2.9075,-2.9075,-2.9075,-2.9075,-2.9075,-2.9075,-2.9075,-2.9075,-2.9075,-2.9075,-2.9075,-2.9075,-2.9075,-2.9075,-2.8967,-2.8669,-2.8873,-2.8669,-2.8207,-2.8304,-2.8255,0.0,0.0,0.0,0.0,0.0,0.0,0.0,0.0,0.0,0.0,0.0,0.0,0.0,0.0,-2.5005,-2.5005,-2.5005,-2.5021,-2.5069,-2.5069,-2.5084,-2.5116,-2.5116,-2.5385,-2.5993,-2.6056,-2.6356,-2.7051,-2.7099,-2.7099,-2.7099,-2.713,-2.7162,-2.7162,-2.7194,-2.7209,-2.7209,-2.7826,-2.8474,-2.9075,-2.9075,-2.9075,-2.9075,-2.9075,-2.9075,-2.9075,-2.9075,-2.9075,-2.9075,-2.9075,-2.9075,-2.9075,-2.9075,-2.9075,-2.9075,-2.9075,-2.9075,-2.9075,-2.9075,-2.9075,-2.9075,-2.9075,-2.9075,-2.9075,-2.9075,-2.9075,-2.9075,-2.9075,-2.9075,-2.9075,-2.9075,-2.9075,-2.9075,-2.9075,-2.9075,-2.9075,-2.9075,-2.9075,-2.9075,-2.9075,-2.9075,-2.9075,-2.9075,-2.9075,-2.9075,-2.9075,-2.9075,-2.9075,-2.9075,-2.9075,-2.9075,-2.9075,-2.9075,-2.9075,-2.9075,-2.9075,-2.9075,-2.9075,-2.9075,-2.9075,-2.9075,-2.9075,-2.9075,-2.9075,-2.9075,-2.9075,-2.9075,-2.8716,-2.8716,-2.9029,-2.8271,-2.811,0.0,0.0,0.0,0.0,0.0,0.0,0.0,0.0,0.0,0.0,0.0,0.0,0.0,0.0,0.0,-2.4223,-2.4286,-2.446,-2.4942,-2.5005,-2.5005,-2.5005,-2.5005,-2.51,-2.5313,-2.5345,-2.5456,-2.5708,-2.5724,-2.5724,-2.5724,-2.6151,-2.6404,-2.6404,-2.6862,-2.7142,-2.7296,-2.7662,-2.8153,-2.8854,-2.8854,-2.9022,-2.935,-2.935,-2.9259,-2.9075,-2.9075,-2.9075,-2.9075,-2.9075,-2.9075,-2.9075,-2.9075,-2.9075,-2.9075,-2.9075,-2.9075,-2.9075,-2.9075,-2.9075,-2.9075,-2.9075,-2.9075,-2.9075,-2.9075,-2.9075,-2.9075,-2.9075,-2.9075,-2.9075,-2.9075,-2.9075,-2.9075,-2.9075,-2.9075,-2.9075,-2.9075,-2.9075,-2.9075,-2.9075,-2.9075,-2.9075,-2.9075,-2.9075,-2.9075,-2.9075,-2.9075,-2.9075,-2.9075,-2.9075,-2.9075,-2.9075,-2.9075,-2.9075,-2.9075,-2.9075,-2.9075,-2.9075,-2.9075,-2.9075,-2.9075,-2.9075,-2.9075,-2.9075,-2.9075,-2.9075,-2.9075,-2.8982,-2.8967,-2.9075,-2.8811,-2.8764,0.0,0.0,0.0,0.0,0.0,0.0,0.0,0.0,0.0,0.0,0.0,0.0,0.0,0.0,0.0,-2.3417,-2.365,-2.3846,-2.4246,-2.4515,-2.4618,-2.4618,-2.4863,-2.5005,-2.5005,-2.5005,-2.5005,-2.5005,-2.5005,0.0,-2.5005,-2.5408,-2.5661,-2.5661,-2.6135,-2.6624,-2.7054,-2.7178,-2.7598,-2.8359,-2.8359,-2.8575,-2.8914,-2.8914,-2.8782,-2.8621,-2.8621,-2.8785,-2.9075,-2.9075,-2.9075,-2.9075,-2.9075,-2.9075,-2.9075,-2.9075,-2.9075,-2.9075,-2.9075,-2.9075,-2.9075,-2.9075,-2.9075,-2.9075,-2.9075,-2.9167,-2.9213,-2.9213,-2.9289,-2.938,-2.9454,-2.9499,-2.9454,-2.938,-2.9335,-2.9335,-2.9335,-2.9213,-2.9075,-2.9075,-2.9075,-2.9075,-2.9075,-2.9075,-2.9075,-2.9075,-2.9075,-2.9075,-2.9075,-2.9075,-2.9075,-2.9075,-2.9075,-2.9075,-2.9075,-2.9075,-2.9075,-2.9075,-2.9075,-2.9075,-2.9075,-2.9075,-2.9075,-2.9075,-2.9075,-2.9075,-2.9075,-2.9075,-2.9075,-2.9075,-2.9075,-2.9075,0.0,0.0,0.0,0.0,0.0,0.0,0.0,0.0,0.0,0.0,0.0,0.0,0.0,0.0,0.0,-2.2667,-2.3154,-2.3291,-2.2952,-2.3486,-2.3875,-2.3891,-2.453,-2.4942,-2.4942,-2.4974,-2.4974,-2.4974,-2.5005,-2.5005,-2.5005,-2.5005,-2.5005,-2.5005,-2.5005,-2.5417,-2.6262,-2.6302,-2.6752,-2.768,-2.768,-2.7696,-2.7712,-2.7712,-2.7712,-2.7712,-2.7712,-2.8217,-2.9058,-2.909,-2.9106,-2.9167,-2.9167,-2.9167,-2.9167,-2.9167,-2.9167,-2.9167,-2.9167,-2.9167,-2.9167,-2.9167,-2.9167,-2.9167,-2.9167,-2.9335,-2.956,-2.9515,-2.9677,-2.9924,-3.0208,-3.0293,-3.0208,-2.9924,-2.9837,-2.9853,-2.9793,-2.947,-2.9121,-2.9121,-2.9121,-2.9075,-2.9075,-2.9075,-2.9075,-2.9075,-2.9075,-2.9075,-2.9075,-2.9075,-2.9075,-2.9075,-2.9075,-2.9075,-2.9075,-2.9075,-2.9075,-2.9075,-2.9075,-2.9075,-2.9075,-2.9075,-2.9075,-2.9075,-2.9075,-2.9075,-2.9075,-2.9075,-2.9075,-2.9075,-2.9075,-2.9075,-0.8849,0.0,0.0,0.0,0.0,0.0,0.0,0.0,0.0,0.0,0.0,0.0,0.0,0.0,0.0,0.0,-2.2362,-2.3047,-2.3227,-2.3576,-2.3759,-2.3562,-2.3703,-2.3759,-2.3486,-2.3923,-2.4207,0.0,-2.4681,-2.5045,-2.5217,-2.5333,-2.5448,-2.5416,-2.5584,-2.5756,-2.6005,-2.6155,-2.6644,-2.7427,-2.7427,-2.7574,-2.7907,-2.7907,-2.7931,-2.7914,-2.7914,-2.819,-2.8631,-2.9025,-2.9606,-3.0335,-3.026,-3.0318,-3.0335,-3.0335,-3.0318,-3.0243,-3.0243,-3.0318,-3.0335,-3.0335,-3.0335,-3.0293,-3.0208,-3.0293,-3.0418,-3.0335,-3.0418,-3.0543,-3.0592,-3.0649,-3.0625,-3.0559,-3.0502,-3.046,-3.0208,-3.0054,-2.9837,-2.947,-2.9213,-2.9075,-2.9075,-2.9075,-2.9075,-2.9075,-2.9075,-2.9075,-2.9075,-2.9075,-2.9075,-2.9075,-2.9075,-2.9075,-2.9075,-2.9075,-2.9075,-2.9075,-2.9075,-2.9075,-2.9075,-2.9075,-2.9075,-2.9075,-2.9075,-2.9075,-2.9075,-2.9075,-2.9075,-2.9075,-2.9075,-2.9075,0.0,0.0,0.0,0.0,0.0,0.0,0.0,-1.4538,0.0,0.0,0.0,0.0,0.0,0.0,0.0,0.0,-2.1753,-2.2391,-2.2524,-2.3047,-2.3358,-2.3161,-2.3439,-2.3568,-2.3329,-2.3629,-2.3815,-2.3815,-2.4159,-2.4527,-2.4944,-2.5088,-2.5292,-2.5605,-2.5733,-2.5807,-2.5897,-2.6007,-2.633,-2.6833,-2.6833,-2.7031,-2.7429,-2.7429,-2.7487,-2.7584,-2.7584,-2.7897,-2.8488,-2.8783,-2.9257,-2.9828,-3.0129,-3.0246,-3.0352,-3.0687,-3.0788,-3.0754,-3.0754,-3.0754,-3.0771,-3.0788,-3.0804,-3.0804,-3.0707,-3.0804,-3.0925,-3.0828,-3.1027,-3.1223,-3.1089,-3.1145,-3.1223,-3.1123,-3.1083,-3.1044,-3.0845,-3.0707,-3.0418,-2.9766,-2.9515,-2.938,-2.938,-2.938,-2.938,-2.9305,-2.9335,-2.9335,-2.9121,-2.9213,-2.9213,-2.9121,-2.9075,-2.9075,-2.9075,-2.9075,-2.9075,-2.9075,-2.9075,-2.9075,-2.9075,-2.9075,-2.9075,-2.9075,-2.9075,-2.9075,-2.9075,-2.9075,-2.9075,-2.9075,-2.9075,-2.9075,0.0,0.0,0.0,0.0,0.0,0.0,-1.4657,-1.4434,-1.4348,0.0,0.0,0.0,0.0,0.0,0.0,0.0,0.0,-2.1524,-2.1425,-2.2266,-2.2848,-2.2772,-2.3398,-2.3796,-2.3717,-2.3638,-2.3605,-2.3605,-2.3518,-2.3721,-2.4385,-2.4418,-2.4762,-2.5512,-2.5529,-2.5689,-2.5934,-2.5934,-2.6043,-2.6239,-2.6239,-2.638,-2.664,-2.664,-2.6792,-2.7038,-2.7038,-2.7577,-2.8424,-2.8424,-2.8459,-2.8652,-2.9379,-2.9648,-2.9732,-3.046,-3.0763,-3.083,-3.083,-3.0847,-3.0897,-3.0948,-3.1004,-3.0948,-3.0965,-3.1083,-3.124,-3.124,-3.1582,-3.1912,-3.1654,-3.1765,-3.1912,-3.1671,-3.1596,-3.1596,-3.1542,-3.1372,-3.0948,-3.0123,-2.9924,-2.9881,-2.9924,-2.9881,-2.981,-2.9694,-2.975,-2.9705,-2.9289,-2.9425,-2.9425,-2.9213,-2.9167,-2.9167,-2.9167,-2.9167,-2.9167,-2.9167,-2.9167,-2.9167,-2.9167,-2.9121,-2.9121,-2.9075,-2.9075,-2.9121,-2.9121,-2.9121,-2.9075,-2.9075,-2.9075,-2.9075,-1.3536,-1.4056,-1.4624,-1.3078,0.0,0.0,-1.3428,-1.3929,-1.4968,0.0,0.0,0.0,0.0,0.0,0.0,0.0,0.0,-2.1132,-2.1961,-2.2473,-2.2658,-2.2412,-2.253,-2.2558,-2.2387,-2.2831,-2.3133,-2.3133,-2.3619,-2.3868,-2.3847,-2.3999,-2.4446,-2.5172,-2.5205,-2.5485,-2.6132,-2.6132,-2.6274,-2.652,-2.652,-2.6657,-2.6908,-2.6908,-2.707,-2.731,-2.731,-2.7535,-2.787,-2.787,-2.86,-2.976,-2.995,-3.0019,-3.0037,-3.0193,-3.0611,-3.1116,-3.1116,-3.1533,-3.2073,-3.2073,-3.209,-3.2073,-3.1948,-3.2037,-3.2161,-3.2161,-3.2232,-3.2284,-3.2249,-3.2267,-3.2284,-3.2249,-3.2196,-3.2161,-3.1875,-3.1785,-3.162,-3.1257,-3.0642,-3.0293,-3.0543,-3.0377,-3.0293,-3.0502,-3.0335,-3.0182,-3.0097,-2.9881,-2.9722,-2.9677,-2.9677,-2.9677,-2.9677,-2.9677,-2.9677,-2.9677,-2.9677,-2.9589,-2.9441,-2.9425,-2.9305,-2.9121,-2.9075,-2.9213,-2.9425,-2.9213,-2.9075,-2.9075,-2.9075,-2.9075,0.0,-1.5488,-1.5853,-1.5088,0.0,0.0,0.0,-1.4697,-1.5009,-1.694,0.0,0.0,0.0,0.0,0.0,0.0,0.0,0.0,-2.0808,-2.2046,-2.2799,-2.2634,-2.266,-2.266,-2.25,-2.2733,-2.2813,-2.2564,-2.2992,-2.3318,-2.3451,-2.3547,-2.3929,-2.4679,-2.4614,-2.4979,-2.5848,-2.5864,-2.6168,-2.6792,-2.6792,-2.6957,-2.7198,-2.7198,-2.7324,-2.7539,-2.7539,-2.763,-2.7701,-2.7701,-2.8175,-2.8947,-2.9351,-2.9509,-2.9562,-2.9966,-3.0334,-3.065,-3.065,-3.0914,-3.1317,-3.1686,-3.1791,-3.1861,-3.2196,-3.2354,-3.2406,-3.2406,-3.2406,-3.2406,-3.2406,-3.2406,-3.2406,-3.2406,-3.2406,-3.2354,-3.2196,-3.2144,-3.2108,-3.1965,-3.147,-3.1106,-3.1123,-3.1004,-3.0925,-3.0948,-3.0925,-3.0804,-3.0584,-3.0502,-3.0418,-3.026,-3.0276,-3.0293,-3.0293,-3.0293,-3.0293,-3.0293,-3.0293,-3.0182,-2.9924,-2.9881,-2.9766,-2.947,-2.947,-2.9515,-2.9633,-2.9499,-2.938,-2.9305,-2.9167,-2.9167,0.0,0.0,0.0,0.0,0.0,-1.65,0.0,0.0,0.0,-1.7664,0.0,0.0,0.0,0.0,0.0,0.0,0.0,0.0,0.0,-2.077,0.0,-2.2223,-2.2478,-2.2667,-2.2818,-2.2554,-2.2341,-2.2209,-2.2126,-2.2392,-2.303,-2.3081,-2.3388,-2.4068,-2.3929,-2.4395,-2.5479,-2.5495,-2.6013,-2.707,-2.707,-2.7198,-2.7465,-2.7465,-2.7539,-2.7701,-2.7701,-2.7701,-2.7701,-2.7701,-2.7701,-2.7754,-2.8421,-2.8667,-2.8754,-2.9404,-2.9737,-2.9878,-2.9878,-2.9983,-3.0211,-3.0791,-3.1072,-3.1352,-3.216,-3.2406,-3.2406,-3.2406,-3.2406,-3.2406,-3.2406,-3.2406,-3.2406,-3.2406,-3.2406,-3.2406,-3.2406,-3.2406,-3.2406,-3.2406,-3.2179,-3.1912,-3.1709,-3.1617,-3.1542,-3.1355,-3.1487,-3.1449,-3.1083,-3.1123,-3.1106,-3.0874,-3.0891,-3.0925,-3.0925,-3.0925,-3.0925,-3.0925,-3.0925,-3.0804,-3.046,-3.0418,-3.0267,-2.9968,-2.9924,-2.9897,-2.9897,-2.9853,-2.9722,-2.956,-2.935,-2.9335,0.0,0.0,0.0,0.0,-1.9535,0.0,0.0,0.0,-1.795,-1.6949,0.0,0.0,0.0,0.0,0.0,0.0,0.0,0.0,0.0,0.0,0.0,-1.9835,-2.0538,-2.1283,-2.2048,-2.1446,-2.1422,-2.2368,-2.1378,-2.1265,-2.2521,-2.2579,-2.2819,-2.3325,-2.3311,-2.4,-2.5479,-2.5495,-2.6111,-2.7341,-2.7341,-2.7448,-2.7672,-2.7672,-2.7672,-2.7701,-2.7701,-2.7701,-2.7701,-2.7701,-2.7701,-2.7701,-2.7789,-2.7841,-2.7841,-2.7929,-2.8421,-2.9035,-2.9035,-2.9509,-3.0124,-3.0211,-3.0668,-3.1352,-3.216,-3.2406,-3.2406,-3.2406,-3.2406,-3.2406,-3.2406,-3.2406,-3.2406,-3.2406,-3.2406,-3.2406,-3.2406,-3.2406,-3.2406,-3.2406,-3.2354,-3.2319,-3.2319,-3.2037,-3.1948,-3.2196,-3.2037,-3.1821,-3.1785,-3.1579,-3.1428,-3.1411,-3.1428,-3.1428,-3.1428,-3.1428,-3.1428,-3.1428,-3.1428,-3.1295,-3.1044,-3.0828,-3.0666,-3.0502,-3.0335,-3.0182,-3.0146,-2.9897,-2.981,-2.9766,-2.9705,-2.9766,0.0,0.0,0.0,0.0,0.0,0.0,-1.7772,0.0,-1.7645,0.0,0.0,0.0,0.0,0.0,0.0,0.0,-1.6438,0.0,0.0,0.0,0.0,0.0,0.0,0.0,-2.0539,-1.9946,-1.9992,-2.1238,-2.0541,-2.0599,-2.1927,-2.2418,-2.277,-2.2952,-2.2858,-2.3369,-2.4572,-2.4572,-2.5367,-2.6941,-2.6941,-2.721,-2.7701,-2.7701,-2.7701,-2.7701,-2.7701,-2.7701,-2.7701,-2.7701,-2.7701,-2.7701,-2.7701,-2.7701,-2.7701,-2.7701,-2.7912,-2.8193,-2.8193,-2.8421,-2.8789,-2.9263,-2.993,-3.0703,-3.1458,-3.1703,-3.1791,-3.2265,-3.2406,-3.2406,-3.2406,-3.2406,-3.2406,-3.2406,-3.2406,-3.2406,-3.2406,-3.2406,-3.2406,-3.2406,-3.2406,-3.2406,-3.2406,-3.2267,-3.2232,-3.2388,-3.2267,-3.2196,-3.2196,-3.209,-3.2018,-3.2018,-3.2018,-3.2018,-3.2018,-3.2018,-3.2018,-3.2018,-3.1839,-3.16,-3.1334,-3.1061,-3.0902,-3.0821,-3.074,-3.0716,-3.0651,-3.0551,-3.0493,-3.0493,-3.0011,-2.9897,-2.1956,0.0,0.0,0.0,0.0,0.0,0.0,0.0,0.0,0.0,0.0,0.0,0.0,0.0,0.0,0.0,0.0,-1.5898,0.0,0.0,0.0,0.0,0.0,0.0,0.0,-1.8097,-1.8266,-2.0022,-1.9276,-1.9615,-2.159,-2.2268,-2.2659,-2.2816,-2.2659,-2.3003,-2.39,-2.3917,-2.4721,-2.6279,-2.6307,-2.6722,-2.7443,-2.7472,-2.7624,-2.7847,-2.7847,-2.7847,-2.7847,-2.7847,-2.7847,-2.7847,-2.7847,-2.7847,-2.7818,-2.773,-2.7701,-2.7701,-2.7701,-2.7701,-2.7824,-2.8649,-2.9299,-2.9913,-3.0668,-3.1036,-3.1317,-3.1897,-3.223,-3.2406,-3.2406,-3.2406,-3.2406,-3.2406,-3.2406,-3.2406,-3.2406,-3.2406,-3.2406,-3.2406,-3.2406,-3.2406,-3.2406,-3.2406,-3.2406,-3.2406,-3.2406,-3.2406,-3.2406,-3.2406,-3.2406,-3.2406,-3.2406,-3.2406,-3.2406,-3.2406,-3.2406,-3.2406,-3.2179,-3.1965,-3.1746,-3.1504,-3.1351,-3.1235,-3.1235,-3.1196,-3.1134,-3.1134,-3.1134,-3.1134,-3.0435,-3.0284,0.0,0.0,0.0,-1.9902,0.0,0.0,0.0,0.0,-1.8815,0.0,0.0,0.0,0.0,0.0,0.0,0.0,0.0,0.0,0.0,0.0,0.0,0.0,0.0,0.0,0.0,-1.5924,-1.629,0.0,-1.7458,-1.7976,-2.1785,-2.2013,-2.2268,-2.2782,-2.279,-2.3163,-2.39,-2.3917,-2.4398,-2.5437,-2.5588,-2.6047,-2.6835,-2.6943,-2.7451,-2.8174,-2.8174,-2.8174,-2.8174,-2.8174,-2.8174,-2.8174,-2.8174,-2.8174,-2.8146,-2.7818,-2.7701,-2.7701,-2.7701,-2.7701,-2.7824,-2.8649,-2.893,-2.9088,-2.9895,-3.0633,-3.1194,-3.123,-3.1791,-3.2406,-3.2406,-3.2406,-3.2406,-3.2406,-3.2406,-3.2406,-3.2406,-3.2406,-3.2406,-3.2406,-3.2406,-3.2406,-3.2406,-3.2406,-3.2406,-3.2406,-3.2406,-3.2406,-3.2406,-3.2406,-3.2406,-3.2406,-3.2406,-3.2406,-3.2406,-3.2406,-3.2406,-3.2406,-3.2406,-3.2388,-3.2354,-3.2354,-3.2196,-3.1858,-3.1858,-3.1748,-3.1466,-3.1466,-3.1466,-3.1483,-3.1117,-3.1134,0.0,0.0,-2.3241,-2.1205,0.0,0.0,0.0,0.0,0.0,0.0,0.0,0.0,0.0,0.0,0.0,0.0,0.0,0.0,0.0,0.0,0.0,0.0,0.0,0.0,0.0,0.0,0.0,-1.7111,-1.6606,0.0,-2.1035,-2.1697,-2.2306,-2.296,-2.2995,-2.31,-2.337,-2.337,-2.3797,-2.4664,-2.4819,-2.5277,-2.6021,-2.6126,-2.6649,-2.7397,-2.7397,-2.771,-2.8201,-2.8201,-2.8201,-2.8201,-2.8201,-2.8201,-2.8174,-2.8073,-2.7979,-2.7911,-2.7911,-2.795,-2.8071,-2.8355,-2.8443,-2.8585,-2.9337,-3.0118,-3.0845,-3.1377,-3.2022,-3.2523,-3.2523,-3.2473,-3.2406,-3.2406,-3.2406,-3.2406,-3.2406,-3.2406,-3.2406,-3.2406,-3.2406,-3.2406,-3.2406,-3.2406,-3.2406,-3.2406,-3.2406,-3.2406,-3.2406,-3.2406,-3.2406,-3.2406,-3.2406,-3.2406,-3.2406,-3.2406,-3.2406,-3.2406,-3.2406,-3.2319,-3.2073,-3.2073,-3.202,-3.1894,-3.1894,-3.1875,-3.1748,-3.1748,-3.1748,-3.1765,-3.1637,-3.1579,-2.3668,-2.3771,0.0,-2.1874,-2.0661,0.0,-1.8247,0.0,0.0,0.0,0.0,0.0,0.0,0.0,0.0,0.0,0.0,0.0,0.0,-1.1698,0.0,0.0,0.0,0.0,0.0,0.0,-1.3602,-1.5606,-1.5536,0.0,0.0,-2.1,-2.1908,-2.268,-2.2954,-2.3095,-2.3095,-2.3095,-2.339,-2.395,-2.4074,-2.458,-2.5333,-2.5457,-2.6121,-2.7143,-2.7143,-2.7592,-2.8335,-2.8335,-2.8335,-2.8335,-2.8335,-2.8335,-2.8309,-2.8246,-2.8164,-2.8081,-2.8081,-2.8136,-2.8201,-2.8201,-2.8201,-2.8308,-2.8762,-2.9654,-3.0618,-3.1123,-3.1969,-3.2705,-3.2705,-3.2623,-3.2574,-3.2574,-3.2574,-3.2574,-3.2574,-3.2507,-3.2473,-3.2473,-3.2422,-3.2406,-3.2406,-3.2406,-3.2406,-3.2406,-3.2406,-3.2406,-3.2406,-3.2406,-3.2406,-3.2406,-3.2406,-3.2406,-3.2406,-3.2406,-3.2406,-3.2406,-3.2406,-3.2319,-3.2108,-3.2073,-3.2073,-3.2073,-3.2073,-3.2073,-3.2073,-3.2073,-3.2073,-3.2073,-3.2073,-3.2001]},{"header":{"parameterUnit":"m.s-1","parameterCategory":1,"la1":30.6,"la2":29.2853,"lo1":-89.7004,"lo2":-87.6739,"dy":0.0162,"dx":0.0183,"nx":112,"ny":82,"refTime":"2024-08-13T18:00:00:Z","depth":0,"parameterNumber":3,"parameterNumberName":"V-component_of_WINDS"},"data":[0.0,0.0,0.0,0.0,0.0,0.0,0.0,0.0,0.0,0.0,0.0,0.0,0.0,0.0,0.0,0.0,0.0,0.0,0.0,0.0,0.0,0.0,0.0,0.0,0.0,0.0,0.0,0.0,0.0,0.0,0.0,0.0,0.0,0.0,0.0,0.0,0.0,0.0,0.0,0.0,0.0,0.0,0.0,0.0,0.0,0.0,0.0,0.0,0.0,0.0,0.0,0.0,0.0,0.0,0.0,0.0,0.0,0.0,0.0,0.0,0.0,0.0,0.0,0.0,0.0,0.0,0.0,0.0,0.0,0.0,0.0,0.0,0.0,0.0,0.0,0.0,0.0,0.0,0.0,0.0,0.0,0.0,0.0,0.0,0.0,0.0,0.0,0.0,0.0,0.0,0.0,-2.2014,-2.4248,-2.5616,-2.5591,-2.5338,-2.3428,-1.9355,0.0,0.0,0.0,0.0,0.0,0.0,0.0,0.0,0.0,0.0,0.0,0.0,0.0,0.0,0.0,0.0,0.0,0.0,0.0,0.0,0.0,0.0,0.0,0.0,0.0,0.0,0.0,0.0,0.0,0.0,0.0,0.0,0.0,0.0,0.0,0.0,0.0,0.0,0.0,0.0,0.0,0.0,0.0,0.0,0.0,0.0,0.0,0.0,0.0,0.0,0.0,0.0,0.0,0.0,0.0,0.0,0.0,0.0,0.0,0.0,0.0,0.0,0.0,0.0,0.0,0.0,0.0,0.0,0.0,0.0,0.0,0.0,0.0,0.0,0.0,0.0,0.0,0.0,0.0,0.0,0.0,0.0,0.0,0.0,0.0,0.0,0.0,0.0,0.0,0.0,0.0,0.0,0.0,0.0,0.0,0.0,0.0,0.0,0.0,0.0,0.0,0.0,0.0,0.0,-2.0047,-2.5702,-2.5887,-2.5857,-2.6463,-2.5852,-2.3639,-1.9439,0.0,0.0,0.0,0.0,0.0,0.0,0.0,0.0,0.0,0.0,0.0,0.0,0.0,0.0,0.0,0.0,0.0,0.0,0.0,0.0,0.0,0.0,0.0,0.0,0.0,0.0,0.0,0.0,0.0,0.0,0.0,0.0,0.0,0.0,0.0,0.0,0.0,0.0,0.0,0.0,0.0,0.0,0.0,0.0,0.0,0.0,0.0,0.0,0.0,0.0,0.0,0.0,0.0,0.0,0.0,0.0,0.0,0.0,0.0,0.0,0.0,0.0,0.0,0.0,0.0,0.0,0.0,0.0,0.0,0.0,0.0,0.0,0.0,0.0,0.0,0.0,0.0,0.0,0.0,0.0,0.0,0.0,0.0,0.0,0.0,0.0,0.0,0.0,0.0,0.0,0.0,0.0,0.0,0.0,0.0,0.0,0.0,0.0,0.0,0.0,0.0,0.0,0.0,-1.9183,-2.129,-2.6284,-2.6023,-2.5777,-2.6481,-2.5803,-2.3582,-1.9456,-1.766,0.0,0.0,0.0,0.0,0.0,0.0,0.0,0.0,0.0,0.0,0.0,0.0,0.0,0.0,0.0,0.0,0.0,0.0,0.0,0.0,0.0,0.0,0.0,0.0,0.0,0.0,0.0,0.0,0.0,0.0,0.0,0.0,0.0,0.0,0.0,0.0,0.0,0.0,0.0,0.0,0.0,0.0,0.0,0.0,0.0,0.0,0.0,0.0,0.0,0.0,0.0,0.0,0.0,0.0,0.0,0.0,0.0,0.0,0.0,0.0,0.0,0.0,0.0,0.0,0.0,0.0,0.0,0.0,0.0,0.0,0.0,0.0,0.0,0.0,0.0,0.0,0.0,0.0,0.0,0.0,0.0,0.0,0.0,0.0,0.0,0.0,0.0,0.0,0.0,0.0,0.0,0.0,0.0,0.0,0.0,0.0,0.0,0.0,0.0,0.0,0.0,0.0,-2.1531,-2.2957,-2.6174,-2.5764,-2.5612,-2.6326,-2.5306,-2.3065,-1.9372,-1.7204,0.0,0.0,0.0,0.0,0.0,0.0,0.0,0.0,0.0,0.0,0.0,0.0,0.0,0.0,0.0,0.0,0.0,0.0,0.0,0.0,0.0,0.0,0.0,0.0,0.0,0.0,0.0,0.0,0.0,0.0,0.0,0.0,0.0,0.0,0.0,0.0,0.0,0.0,0.0,0.0,0.0,0.0,0.0,0.0,0.0,0.0,0.0,0.0,0.0,0.0,0.0,0.0,0.0,0.0,0.0,0.0,0.0,0.0,0.0,0.0,0.0,0.0,0.0,0.0,0.0,0.0,0.0,0.0,0.0,0.0,0.0,0.0,0.0,0.0,0.0,0.0,0.0,0.0,0.0,0.0,0.0,0.0,0.0,0.0,0.0,0.0,0.0,0.0,0.0,0.0,0.0,0.0,0.0,0.0,0.0,0.0,0.0,0.0,0.0,0.0,0.0,0.0,-2.1631,-2.4558,-2.6298,-2.5615,-2.5379,-2.6218,-2.4265,-2.1806,-1.9075,-1.5992,0.0,0.0,0.0,0.0,0.0,0.0,0.0,0.0,0.0,0.0,0.0,0.0,0.0,0.0,0.0,0.0,0.0,0.0,0.0,0.0,0.0,0.0,0.0,0.0,0.0,0.0,0.0,0.0,0.0,0.0,0.0,0.0,0.0,0.0,0.0,0.0,0.0,0.0,0.0,0.0,0.0,0.0,0.0,0.0,0.0,0.0,0.0,0.0,0.0,0.0,0.0,0.0,0.0,0.0,0.0,0.0,0.0,0.0,0.0,0.0,0.0,0.0,0.0,0.0,0.0,0.0,0.0,0.0,0.0,0.0,0.0,0.0,0.0,0.0,0.0,0.0,0.0,0.0,0.0,0.0,0.0,0.0,0.0,0.0,0.0,0.0,0.0,0.0,0.0,0.0,0.0,0.0,0.0,0.0,0.0,0.0,0.0,0.0,0.0,0.0,0.0,0.0,-2.1035,-2.3362,0.0,-2.4805,-2.4574,-2.5257,-2.4071,-2.1972,-1.8856,0.0,0.0,0.0,0.0,0.0,0.0,0.0,0.0,0.0,0.0,0.0,0.0,0.0,0.0,0.0,0.0,0.0,0.0,0.0,0.0,0.0,0.0,0.0,0.0,0.0,0.0,0.0,0.0,0.0,0.0,0.0,0.0,0.0,0.0,0.0,0.0,0.0,0.0,0.0,0.0,0.0,0.0,0.0,0.0,0.0,0.0,0.0,0.0,0.0,0.0,0.0,0.0,0.0,0.0,0.0,0.0,0.0,0.0,0.0,0.0,0.0,0.0,0.0,0.0,0.0,0.0,0.0,0.0,0.0,0.0,0.0,0.0,0.0,0.0,0.0,0.0,0.0,0.0,0.0,0.0,0.0,0.0,0.0,0.0,0.0,0.0,0.0,0.0,0.0,0.0,0.0,0.0,0.0,0.0,0.0,0.0,0.0,0.0,0.0,0.0,0.0,0.0,-1.8788,-2.1024,-2.3008,0.0,-2.4219,-2.3992,-2.4534,-2.341,-2.1452,-1.8568,0.0,0.0,0.0,0.0,0.0,0.0,0.0,0.0,0.0,0.0,0.0,0.0,0.0,0.0,0.0,0.0,0.0,0.0,0.0,0.0,0.0,0.0,0.0,0.0,0.0,0.0,0.0,0.0,0.0,0.0,0.0,0.0,0.0,0.0,0.0,0.0,0.0,0.0,0.0,0.0,0.0,0.0,0.0,0.0,0.0,0.0,0.0,0.0,0.0,0.0,0.0,0.0,0.0,0.0,0.0,0.0,0.0,0.0,0.0,0.0,0.0,0.0,0.0,0.0,0.0,0.0,0.0,0.0,0.0,0.0,0.0,0.0,0.0,0.0,0.0,0.0,0.0,0.0,0.0,0.0,0.0,0.0,0.0,0.0,0.0,0.0,0.0,0.0,0.0,0.0,0.0,0.0,0.0,0.0,0.0,0.0,0.0,0.0,0.0,0.0,0.0,0.0,-1.8787,-2.1819,-2.3999,-2.4527,-2.395,-2.3714,-2.4249,-2.2101,-1.9952,0.0,0.0,0.0,0.0,0.0,0.0,0.0,0.0,0.0,0.0,0.0,0.0,0.0,0.0,0.0,0.0,0.0,0.0,0.0,0.0,0.0,0.0,0.0,0.0,0.0,0.0,0.0,0.0,0.0,0.0,0.0,0.0,0.0,0.0,0.0,0.0,0.0,0.0,0.0,0.0,0.0,0.0,0.0,0.0,0.0,0.0,0.0,0.0,0.0,0.0,0.0,0.0,0.0,0.0,0.0,0.0,0.0,0.0,0.0,0.0,0.0,0.0,0.0,0.0,0.0,0.0,0.0,0.0,0.0,0.0,0.0,0.0,0.0,0.0,0.0,0.0,0.0,0.0,0.0,0.0,0.0,0.0,0.0,0.0,0.0,0.0,0.0,0.0,0.0,0.0,0.0,0.0,0.0,0.0,0.0,0.0,0.0,0.0,0.0,0.0,0.0,0.0,0.0,-1.8787,-2.1819,-2.3801,-2.3812,-2.3629,-2.3407,-2.3189,-2.2555,-2.0967,-1.807,0.0,0.0,0.0,0.0,0.0,0.0,0.0,0.0,0.0,0.0,0.0,0.0,0.0,0.0,0.0,0.0,0.0,0.0,0.0,0.0,0.0,0.0,0.0,0.0,0.0,0.0,0.0,0.0,0.0,0.0,0.0,0.0,0.0,0.0,0.0,0.0,0.0,0.0,0.0,0.0,0.0,0.0,0.0,0.0,0.0,0.0,0.0,0.0,0.0,0.0,0.0,0.0,0.0,0.0,0.0,0.0,0.0,0.0,0.0,0.0,0.0,0.0,0.0,0.0,0.0,0.0,0.0,0.0,0.0,0.0,0.0,0.0,0.0,0.0,0.0,0.0,0.0,0.0,0.0,0.0,0.0,0.0,0.0,0.0,0.0,0.0,0.0,0.0,0.0,0.0,0.0,0.0,0.0,0.0,0.0,0.0,0.0,0.0,0.0,0.0,0.0,0.0,-1.8628,-2.158,-2.3445,-2.3206,-2.3182,-2.3028,-2.2579,-2.2596,-2.1336,-1.843,0.0,0.0,0.0,0.0,0.0,0.0,0.0,0.0,0.0,0.0,0.0,0.0,0.0,0.0,0.0,0.0,0.0,0.0,0.0,0.0,0.0,0.0,0.0,0.0,0.0,0.0,0.0,0.0,0.0,0.0,0.0,0.0,0.0,0.0,0.0,0.0,0.0,0.0,0.0,0.0,0.0,0.0,0.0,0.0,0.0,0.0,0.0,0.0,0.0,0.0,0.0,0.0,0.0,0.0,0.0,0.0,0.0,0.0,0.0,0.0,0.0,0.0,0.0,0.0,0.0,0.0,0.0,0.0,0.0,0.0,0.0,0.0,0.0,0.0,0.0,0.0,0.0,0.0,0.0,0.0,0.0,0.0,0.0,0.0,0.0,0.0,0.0,0.0,0.0,0.0,0.0,0.0,0.0,0.0,0.0,0.0,0.0,0.0,0.0,0.0,0.0,0.0,-1.8369,-2.1216,-2.301,-2.2738,-2.2712,-2.2579,-2.2338,-2.231,-2.1353,-1.9133,0.0,0.0,0.0,0.0,0.0,0.0,0.0,0.0,0.0,0.0,0.0,0.0,0.0,0.0,0.0,0.0,0.0,0.0,0.0,0.0,0.0,0.0,0.0,0.0,0.0,0.0,0.0,0.0,0.0,0.0,0.0,0.0,0.0,0.0,0.0,0.0,0.0,0.0,0.0,0.0,0.0,0.0,0.0,0.0,0.0,0.0,0.0,0.0,0.0,0.0,0.0,0.0,0.0,0.0,0.0,0.0,0.0,0.0,0.0,0.0,-1.585,0.0,0.0,0.0,0.0,0.0,0.0,0.0,0.0,0.0,0.0,0.0,0.0,0.0,0.0,0.0,0.0,0.0,0.0,0.0,0.0,0.0,0.0,0.0,0.0,0.0,0.0,0.0,0.0,0.0,0.0,0.0,0.0,0.0,0.0,0.0,0.0,0.0,0.0,0.0,0.0,0.0,-1.8163,-2.1131,-2.301,-2.2738,-2.2712,-2.2579,-2.2338,-2.231,-2.1573,-1.9875,-1.8215,0.0,0.0,0.0,0.0,0.0,0.0,0.0,0.0,0.0,0.0,0.0,0.0,0.0,0.0,0.0,0.0,0.0,0.0,0.0,0.0,0.0,0.0,0.0,0.0,0.0,0.0,0.0,0.0,0.0,0.0,0.0,0.0,0.0,0.0,0.0,0.0,0.0,0.0,0.0,0.0,0.0,0.0,0.0,0.0,0.0,0.0,0.0,0.0,0.0,0.0,0.0,0.0,0.0,0.0,0.0,0.0,0.0,0.0,0.0,0.0,-1.7386,0.0,0.0,0.0,0.0,0.0,0.0,0.0,0.0,0.0,0.0,0.0,0.0,0.0,0.0,0.0,0.0,0.0,0.0,0.0,0.0,0.0,0.0,0.0,0.0,0.0,0.0,0.0,0.0,0.0,0.0,0.0,0.0,0.0,0.0,0.0,0.0,0.0,0.0,0.0,0.0,-1.8617,-2.107,-2.2632,-2.2515,-2.2487,-2.2422,-2.231,-2.231,-2.1792,-2.0643,-1.9149,0.0,0.0,0.0,0.0,0.0,0.0,0.0,0.0,0.0,0.0,0.0,0.0,0.0,0.0,0.0,0.0,0.0,0.0,0.0,0.0,0.0,0.0,0.0,0.0,0.0,0.0,0.0,0.0,0.0,0.0,0.0,0.0,0.0,0.0,0.0,0.0,0.0,0.0,0.0,0.0,0.0,0.0,0.0,0.0,0.0,0.0,0.0,0.0,0.0,0.0,0.0,0.0,0.0,-2.2487,-2.3272,-2.4381,-2.4031,-2.4706,-2.593,-2.2308,-2.1064,-2.1423,-1.9841,0.0,0.0,0.0,0.0,0.0,0.0,0.0,0.0,0.0,0.0,0.0,0.0,0.0,0.0,0.0,0.0,0.0,0.0,0.0,0.0,0.0,0.0,0.0,0.0,-2.2493,-2.2836,-1.8866,0.0,0.0,0.0,0.0,0.0,0.0,0.0,0.0,0.0,0.0,0.0,-1.9275,-2.107,-2.2197,-2.2237,-2.218,-2.2197,-2.2237,-2.2237,-2.1995,-2.137,-2.0027,-1.866,0.0,0.0,0.0,0.0,0.0,0.0,0.0,0.0,0.0,0.0,0.0,0.0,0.0,0.0,0.0,0.0,0.0,0.0,0.0,0.0,0.0,0.0,0.0,0.0,0.0,0.0,0.0,0.0,0.0,0.0,0.0,0.0,-1.2601,-1.4035,0.0,0.0,0.0,0.0,0.0,0.0,0.0,0.0,0.0,0.0,0.0,0.0,0.0,-2.2005,-2.2946,-2.4686,-2.5418,-2.5135,-2.6859,-2.7444,-2.7078,-2.674,-2.7003,-2.7734,-2.6341,0.0,-2.3603,-2.1558,0.0,0.0,0.0,0.0,0.0,0.0,0.0,0.0,0.0,0.0,0.0,0.0,0.0,0.0,0.0,0.0,0.0,0.0,0.0,0.0,0.0,0.0,-2.4069,-2.4028,-2.4249,-2.4258,0.0,-2.0906,-1.8628,-1.7687,-1.6499,0.0,0.0,0.0,0.0,0.0,0.0,0.0,-1.9647,-2.1116,-2.2027,-2.2027,-2.2027,-2.2027,-2.2027,-2.2027,-2.1994,-2.1893,-2.116,-2.0336,-1.9521,-1.7491,0.0,0.0,0.0,0.0,0.0,0.0,0.0,0.0,0.0,0.0,0.0,0.0,0.0,0.0,0.0,0.0,0.0,0.0,0.0,0.0,0.0,0.0,0.0,0.0,0.0,0.0,0.0,0.0,0.0,-1.227,-1.4076,-1.519,-1.5394,-1.5442,0.0,0.0,0.0,0.0,0.0,0.0,0.0,0.0,0.0,-2.2357,-2.3766,-2.5013,-2.6056,-2.6911,-2.7368,-2.7348,-2.8615,-2.9063,-2.8783,-2.887,-2.9074,-2.928,-2.8323,-2.7476,-2.6627,-2.4579,-2.3161,-2.2102,0.0,0.0,0.0,0.0,-2.1217,-2.1691,-2.3021,-2.325,-2.2845,-2.2057,0.0,0.0,0.0,0.0,0.0,0.0,0.0,-2.1384,0.0,0.0,-2.5678,-2.553,-2.5816,-2.5966,-2.5463,-2.3873,-2.2124,0.0,-1.9773,-1.8667,-1.6682,0.0,0.0,0.0,0.0,-2.0001,-2.1107,-2.2396,-2.3042,-2.2668,-2.2588,-2.2391,-2.2032,-2.1998,-2.1998,-2.1998,-2.1725,-2.1222,-2.0492,-1.9202,-1.7557,0.0,0.0,0.0,0.0,0.0,0.0,0.0,0.0,0.0,0.0,0.0,0.0,0.0,0.0,0.0,0.0,0.0,0.0,0.0,0.0,0.0,0.0,0.0,0.0,0.0,0.0,0.0,0.0,-1.3921,-1.5697,-1.699,-1.7697,-1.8056,0.0,0.0,0.0,0.0,0.0,0.0,-2.1696,-2.3234,-2.4574,-2.5756,-2.6702,-2.7669,-2.8595,-2.864,-2.8932,-2.946,-2.9836,-3.012,-3.0319,-3.0596,-3.074,-3.0664,-2.9957,-2.9502,-2.9146,-2.6987,-2.5647,-2.4883,-2.3862,-2.3339,-2.3234,-2.3907,-2.439,-2.4923,-2.6574,-2.6882,-2.6426,-2.5495,-2.4547,-2.3549,-2.2145,0.0,0.0,0.0,0.0,-2.3706,-2.4729,-2.6016,-2.7021,-2.6803,-2.7164,-2.7433,-2.6959,-2.626,-2.5196,0.0,-2.2722,-2.1836,-1.9446,0.0,0.0,0.0,0.0,-2.1849,-2.2647,-2.3524,-2.3865,-2.3362,-2.3281,-2.2981,-2.2291,-2.2224,-2.2141,-2.1957,-2.1969,-2.1735,-2.12,-2.0525,-1.9253,-1.7355,0.0,0.0,0.0,0.0,0.0,0.0,0.0,0.0,0.0,0.0,0.0,0.0,0.0,0.0,0.0,0.0,0.0,0.0,0.0,0.0,0.0,0.0,0.0,0.0,0.0,0.0,0.0,0.0,0.0,-2.0789,-2.1224,0.0,0.0,0.0,0.0,-2.2192,-2.2997,-2.4087,-2.5622,-2.7169,-2.8078,-2.823,-2.9679,-3.0489,-3.0575,-3.0615,-3.1005,-3.1717,-3.1139,-3.1216,-3.1897,-3.1929,-3.1882,-3.1882,-3.1866,-3.1461,-3.0603,-2.7802,-2.6509,-2.6262,-2.5691,-2.5309,-2.5179,-2.5508,-2.6037,-2.6716,-2.7005,-2.7081,-2.7201,-2.7942,-2.716,-2.6049,-2.6557,-2.5746,0.0,0.0,-2.633,-2.6891,-2.7081,-2.7715,-2.8312,-2.8312,-2.8345,-2.8362,-2.8312,-2.7715,-2.6789,0.0,-2.4578,-2.3794,-2.2912,0.0,-2.2715,-2.2731,-2.277,-2.3119,-2.3914,-2.4016,-2.3984,-2.3951,-2.3951,-2.3636,-2.2907,-2.2872,-2.2573,-2.186,-2.1869,-2.1911,-2.1832,-2.1206,-2.0438,-1.9567,-1.7472,0.0,0.0,0.0,0.0,0.0,0.0,0.0,0.0,0.0,0.0,0.0,0.0,0.0,0.0,0.0,0.0,0.0,0.0,0.0,0.0,0.0,0.0,0.0,0.0,0.0,0.0,0.0,0.0,-2.1926,-2.347,0.0,-2.4303,-2.4533,-2.4905,-2.5442,-2.6258,-2.6943,-2.7508,-2.9007,-2.9935,-3.0182,-3.1223,-3.1794,-3.1876,-3.1872,-3.1918,-3.1958,-3.17,-3.1769,-3.2012,-3.2012,-3.2012,-3.2012,-3.2012,-3.1866,-3.1542,-3.0522,-2.9507,-2.8602,-2.7931,-2.7615,-2.7558,-2.7753,-2.8013,-2.829,-2.8895,-2.8829,-2.8497,-2.8417,-2.7987,-2.7531,-2.7855,-2.7573,-2.7226,-2.7491,-2.7739,-2.8037,-2.8539,-2.8853,-2.9036,-2.9036,-2.9036,-2.892,-2.8472,-2.8213,-2.7864,-2.7371,-2.5909,-2.4531,-2.3751,-2.3635,-2.3469,-2.3019,-2.3734,-2.4414,-2.4713,-2.5127,-2.5243,-2.4762,-2.4713,-2.4216,-2.3007,-2.2891,-2.2576,-2.1847,-2.1811,-2.184,-2.184,-2.1649,-2.1194,-2.0406,-1.921,-1.7282,0.0,0.0,0.0,0.0,0.0,0.0,0.0,0.0,0.0,0.0,0.0,0.0,0.0,0.0,0.0,0.0,0.0,0.0,0.0,0.0,0.0,0.0,0.0,0.0,0.0,0.0,-2.2605,-2.3534,-2.5523,-2.6791,-2.6727,-2.7429,-2.8027,-2.8302,-2.9076,-2.9661,-2.9903,-3.1127,-3.1891,-3.197,-3.2479,-3.2757,-3.2668,-3.255,-3.2482,-3.2478,-3.2399,-3.2498,-3.2708,-3.2708,-3.2708,-3.2708,-3.2708,-3.2579,-3.2368,-3.2368,-3.1672,-3.0538,-3.0053,-2.9874,-2.9874,-2.9978,-2.9995,-3.0071,-3.0397,-3.0297,-2.9914,-2.923,-2.8982,-2.8942,-2.9062,-2.9062,-2.9062,-2.9102,-2.9102,-2.9201,-2.9665,-2.9781,-2.9781,-2.9781,-2.9781,-2.9665,-2.9201,-2.8903,-2.8738,-2.8738,-2.7363,-2.5971,-2.5243,-2.5094,-2.4862,-2.4116,-2.4862,-2.5475,-2.5475,-2.5905,-2.6021,-2.5524,-2.5475,-2.4878,-2.3404,-2.3272,-2.2841,-2.1847,-2.1797,-2.1797,-2.1797,-2.1591,-2.1271,-2.0777,-1.9617,-1.8059,-1.6104,0.0,0.0,0.0,0.0,0.0,0.0,0.0,0.0,0.0,0.0,0.0,0.0,0.0,0.0,0.0,0.0,0.0,0.0,0.0,0.0,0.0,0.0,0.0,-2.0453,-2.2443,-2.4437,-2.5808,-2.7444,-2.8438,-2.8372,-2.9127,-2.9937,-3.0696,-3.1438,-3.2179,-3.2865,-3.3662,-3.39,-3.3515,-3.3515,-3.3364,-3.3061,-3.2689,-3.2853,-3.351,-3.3242,-3.3469,-3.4101,-3.4101,-3.4101,-3.4101,-3.4101,-3.3728,-3.3113,-3.3113,-3.2708,-3.206,-3.2028,-3.2012,-3.2012,-3.2012,-3.2012,-3.1915,-3.1339,-3.1258,-3.1276,-3.0527,-3.0356,-3.0441,-3.0483,-3.045,-3.0434,-3.0518,-3.0501,-3.0485,-3.0526,-3.0526,-3.0526,-3.0526,-3.0526,-3.0526,-3.0526,-2.9947,-2.945,-2.945,-2.8903,-2.8246,-2.7483,-2.7334,-2.7101,-2.6352,-2.6236,0.0,-2.622,-2.622,-2.622,-2.622,-2.622,-2.5624,-2.4166,-2.4017,-2.3388,-2.1913,-2.1797,-2.1797,-2.1797,-2.1102,-2.0749,-2.0749,-1.8651,-1.7538,-1.7545,0.0,0.0,0.0,0.0,0.0,0.0,0.0,0.0,0.0,0.0,0.0,0.0,0.0,0.0,0.0,0.0,0.0,0.0,0.0,0.0,0.0,-2.2642,-2.4276,-2.3715,-2.5217,-2.6664,-2.7597,-2.9093,-3.0058,-3.0023,-3.1214,-3.2059,-3.2283,-3.3007,-3.3407,-3.3339,-3.3543,-3.3609,-3.3516,-3.3487,-3.3614,-3.3811,-3.3714,-3.3762,-3.3941,-3.3859,-3.3922,-3.4101,-3.4101,-3.4101,-3.4101,-3.4101,-3.4003,-3.3825,-3.3825,-3.3712,-3.342,-3.24,-3.2012,-3.2012,-3.2012,-3.2012,-3.1979,-3.1908,-3.189,-3.1795,-3.1765,-3.17,-3.1716,-3.1745,-3.1429,-3.1079,-3.1149,-3.0813,-3.0443,-3.0485,-3.0526,-3.0526,-3.0526,-3.0526,-3.0526,-3.0526,-3.0361,-3.0212,-3.0212,-3.0063,-2.9533,-2.829,-2.8113,-2.7864,-2.7098,-2.6982,0.0,-2.6286,-2.622,-2.622,-2.622,-2.622,-2.5839,-2.4878,-2.4315,-2.3603,-2.2659,-2.2096,-2.1797,-2.1797,-2.1599,-2.1483,-2.1483,-1.986,-1.8766,0.0,0.0,0.0,0.0,0.0,0.0,0.0,0.0,0.0,0.0,0.0,0.0,0.0,0.0,0.0,0.0,0.0,0.0,0.0,0.0,0.0,0.0,-2.5252,-2.7095,-2.7302,-2.8144,-2.8868,-2.9299,-3.0696,-3.161,-3.161,-3.2697,-3.3404,-3.3404,-3.3974,-3.4223,-3.3981,-3.4117,-3.4136,-3.4032,-3.4001,-3.4055,-3.4101,-3.4101,-3.4101,-3.4101,-3.4101,-3.4101,-3.4101,-3.4101,-3.4101,-3.4101,-3.4101,-3.4101,-3.4101,-3.4101,-3.4101,0.0,0.0,0.0,0.0,0.0,-3.2886,-3.2838,-3.2658,-3.2544,-3.2479,-3.2264,-3.2166,-3.2199,-3.2259,-3.1981,-3.17,-3.1757,-3.1276,-3.0777,-3.0846,-3.0674,-3.0485,-3.0468,-3.0526,-3.0526,-3.0526,-3.0342,-3.0215,-3.0215,-3.0027,0.0,-2.8809,-2.8584,-2.8263,-2.7525,-2.7164,-2.6798,-2.6389,-2.6241,-2.622,-2.622,-2.622,-2.5905,-2.5176,-2.4713,0.0,0.0,0.0,-2.198,-2.135,-2.1334,0.0,0.0,0.0,0.0,0.0,0.0,0.0,0.0,-1.7978,-1.7702,0.0,0.0,0.0,0.0,0.0,0.0,0.0,0.0,0.0,0.0,0.0,0.0,0.0,0.0,0.0,0.0,-2.7233,-2.9196,-3.0713,-3.0938,-3.0938,-3.0938,-3.2093,-3.2938,-3.3024,-3.3709,-3.4157,-3.4157,-3.4465,-3.466,-3.4617,0.0,0.0,0.0,0.0,-3.4448,-3.4101,-3.4101,-3.4101,-3.4101,-3.4101,-3.4101,-3.4101,-3.4101,-3.4101,-3.4101,-3.4101,-3.4101,-3.4101,-3.4101,-3.4101,-3.4101,-3.4101,-3.4101,-3.4101,-3.4101,-3.4101,-3.4003,-3.3404,0.0,0.0,-3.2497,-3.2333,-3.2427,-3.2427,-3.2378,-3.2313,-3.2403,-3.1941,-3.1385,-3.1331,-3.0882,-3.0415,-3.0401,-3.0342,-3.0284,-3.0384,-3.0027,-2.9705,-2.9705,-2.9348,-2.9074,-2.9074,-2.891,-2.8511,-2.7743,-2.7009,-2.6543,-2.6446,-2.6211,-2.6059,-2.6132,0.0,0.0,-2.5292,-2.516,-2.4547,-2.3222,-2.3073,-2.2394,-2.1014,-2.0936,-2.0936,-2.0936,-2.0936,-2.1301,-2.2046,-2.2046,-2.2377,-2.2924,-1.8974,-1.8585,0.0,0.0,0.0,0.0,0.0,0.0,0.0,0.0,0.0,0.0,0.0,0.0,0.0,0.0,0.0,-2.8232,-2.9541,-3.0765,-3.2265,-3.2472,-3.2472,-3.2472,-3.2731,-3.3145,-3.3783,-3.4247,-3.4491,-3.4491,-3.484,-3.4961,-3.4698,-3.4752,-3.4643,-3.425,-3.4201,-3.4201,-3.4101,-3.4101,-3.4101,-3.4101,0.0,0.0,-3.4101,-3.4101,-3.4101,-3.4101,-3.4101,-3.4101,-3.4101,-3.4101,-3.4101,-3.4101,-3.4101,-3.4101,-3.4101,-3.4101,-3.4101,-3.4084,-3.3955,-3.3906,-3.3924,-3.3744,-3.3696,-3.3745,-3.3745,-3.3356,0.0,-3.3013,-3.2555,-3.1841,-3.104,-3.0674,-3.0371,-2.9895,-2.9377,-2.915,-2.9556,-2.9348,-2.909,-2.909,-2.909,-2.9074,-2.9074,-2.9055,-2.8767,-2.8009,-2.7327,-2.6661,-2.6091,-2.5505,-2.5269,-2.5594,-2.5647,-2.5709,-2.5969,-2.5458,-2.4978,-2.4696,-2.4116,-2.3388,-2.251,-2.246,-2.246,-2.246,-2.246,-2.2841,-2.357,-2.357,-2.3653,-2.3752,-2.2311,-2.2261,0.0,0.0,0.0,0.0,0.0,0.0,0.0,0.0,0.0,0.0,0.0,-2.3822,-2.5764,0.0,-2.8903,-3.0403,-3.1627,-3.2645,-3.3386,-3.349,-3.349,-3.349,-3.3642,-3.3922,-3.4316,-3.466,-3.4925,-3.4925,-3.4931,-3.4866,-3.4691,-3.4497,-3.4463,-3.4635,-3.4635,-3.4829,-3.5202,-3.5202,-3.5202,-3.5202,-3.5202,-3.5202,-3.5202,-3.5202,-3.4991,-3.4635,-3.4635,-3.4441,-3.4101,-3.4101,-3.4101,-3.4101,-3.4101,-3.4101,-3.4101,-3.4101,-3.4101,-3.4101,-3.4101,-3.4101,-3.4101,-3.4101,-3.4101,-3.4101,-3.4101,-3.3874,-3.3599,-3.3665,-3.2951,-3.2063,-3.1646,-3.0703,-2.9879,-2.9643,-2.9155,-2.8779,-2.8996,-2.8779,-2.8511,-2.8511,-2.8415,-2.8334,-2.8238,-2.8286,-2.8292,-2.8171,-2.7487,-2.6882,-2.6601,-2.5822,-2.5384,-2.5687,-2.5406,-2.5291,-2.5513,-2.4851,-2.4554,-2.48,-2.4128,-2.3621,-2.347,-2.3454,-2.3454,-2.3454,-2.3454,-2.3636,-2.4,-2.4,-2.4199,-2.4547,-2.4166,-2.4199,0.0,0.0,0.0,0.0,0.0,0.0,0.0,0.0,-2.2863,-2.4741,-2.6143,-2.7471,-2.8989,-3.0282,-3.1369,-3.211,-3.3227,-3.4031,-3.4186,-3.4123,-3.4082,-3.4123,-3.4396,-3.4618,-3.4684,-3.4947,-3.5085,-3.5085,-3.4771,-3.466,-3.4808,-3.4512,-3.4651,-3.538,-3.5396,-3.5687,-3.6303,-3.6303,-3.6303,-3.6303,-3.6303,-3.6303,-3.6303,-3.6303,-3.5979,-3.5396,-3.5396,-3.5072,-3.4522,-3.4522,-3.4441,-3.4311,-3.4311,-3.423,-3.4101,-3.4101,-3.4101,-3.4101,-3.4101,-3.4034,-3.3933,-3.405,-3.3933,-3.3781,-3.3882,-3.3832,-3.3781,-3.3781,-3.3042,-3.2206,-3.2049,-3.0814,-2.9627,-2.9604,-2.9079,-2.8537,-2.8649,-2.8266,-2.7894,-2.7894,-2.771,-2.7473,-2.7386,-2.7423,-2.766,-2.8012,-2.74,-2.6894,-2.699,-2.6197,-2.5687,-2.5842,-2.5315,-2.4885,-2.4863,-2.4342,-2.4179,-2.4657,-2.4087,-2.3872,-2.4149,-2.4183,-2.4183,-2.4149,-2.4183,-2.4249,-2.4364,-2.4364,-2.4661,-2.524,-2.524,-2.5291,-1.6045,-1.6082,-1.7093,-2.0053,-2.0545,-2.1466,0.0,0.0,-2.7023,-2.9438,-3.0058,-3.0627,-3.2127,-3.2541,-3.2904,-3.3697,-3.3699,-3.3802,-3.4449,-3.431,-3.4108,-3.4196,-3.4447,-3.4752,-3.5115,-3.4911,-3.4739,-3.4739,-3.4399,-3.4426,-3.5126,-3.5107,-3.5396,-3.6157,-3.6189,-3.6222,-3.6303,-3.6303,-3.6303,-3.6303,-3.6303,-3.6303,-3.6303,-3.6303,-3.6254,-3.6189,-3.6189,-3.6141,-3.606,-3.606,-3.5671,-3.5056,-3.5056,-3.4667,-3.4101,-3.4101,-3.4101,-3.4101,-3.4101,-3.3764,-3.3407,-3.3933,-3.3419,-3.2656,-3.3161,-3.2964,-3.2602,-3.2602,-3.2501,-3.2136,-3.1125,-3.0633,-3.0253,-2.9818,-2.8708,-2.7915,-2.8427,-2.7787,-2.7144,-2.7144,-2.7181,-2.7233,-2.7233,-2.7233,-2.7269,-2.7321,-2.6822,-2.6406,-2.6308,-2.5671,-2.5386,-2.5788,-2.5241,-2.486,-2.4719,-2.4649,-2.4815,-2.5249,-2.5131,-2.4906,-2.4701,-2.4773,-2.4773,-2.4704,-2.4773,-2.5086,-2.5688,-2.5688,-2.5737,-2.5803,-2.5803,-2.5892,-1.9905,-2.0273,0.0,0.0,-2.3714,-2.4868,-2.7457,-2.8185,-2.8992,-3.1219,-3.1873,-3.2286,-3.3106,-3.3607,-3.4018,0.0,-3.4627,-3.495,-3.5239,-3.4627,-3.4091,-3.3865,-3.3939,-3.4101,-3.4233,-3.4331,-3.4349,-3.4349,-3.4201,-3.4408,-3.5137,-3.5185,-3.5704,-3.6853,-3.6902,-3.7096,-3.7517,-3.7517,-3.7517,-3.7517,-3.7517,-3.7517,-3.7517,-3.7517,-3.729,-3.6869,-3.6481,-3.6303,-3.6303,-3.6303,-3.6125,-3.5732,-3.4963,-3.4505,-3.4186,-3.3738,-3.3594,-3.3543,-3.3245,-3.298,-3.2803,-3.3033,-3.2765,-3.2437,-3.2641,-3.2602,-3.2398,-3.2398,-3.216,-3.1762,-3.1306,-3.055,-2.9925,-2.9675,-2.8963,-2.8228,-2.8067,-2.7774,-2.7428,-2.7076,-2.7093,-2.7181,-2.7093,-2.7144,-2.713,-2.6974,-2.6821,-2.6747,-2.6769,-2.6109,-2.56,-2.5488,-2.4894,-2.4462,-2.4427,-2.4091,-2.4173,-2.4879,-2.4863,-2.5026,-2.5402,-2.5458,-2.5458,-2.5439,-2.5458,-2.5622,-2.5897,-2.5897,-2.5897,-2.5897,-2.6307,-2.6524,-2.2404,0.0,0.0,-2.4954,-2.6383,-2.7695,-2.8763,-2.9675,-3.075,-3.2259,-3.279,-3.3091,-3.3439,-3.388,-3.4287,-3.4533,-3.4912,-3.5262,-3.5481,-3.4559,-3.3707,-3.3247,-3.3168,-3.3168,-3.3168,-3.3714,-3.4101,-3.4101,-3.4279,-3.4716,-3.5445,-3.5671,-3.6335,-3.7582,-3.7614,-3.7873,-3.8391,-3.8391,-3.8391,-3.8391,-3.8391,-3.8391,-3.8391,-3.8391,-3.8116,-3.7598,-3.7096,-3.6761,-3.658,-3.658,-3.6341,-3.5935,-3.4951,-3.4453,-3.4203,-3.3318,-3.2982,-3.2933,-3.2547,-3.2272,-3.216,-3.2342,-3.216,-3.1936,-3.2104,-3.2064,-3.1879,-3.1879,-3.1595,-3.1248,-3.1248,-3.0573,-2.9885,-2.9885,-2.9392,-2.8768,-2.8129,-2.7893,-2.7681,-2.7068,-2.7041,-2.7078,-2.6951,-2.7041,-2.7026,-2.6832,-2.6899,-2.6989,-2.7093,-2.6564,-2.6023,-2.5429,-2.4963,-2.4611,-2.4435,-2.3878,-2.3835,-2.4575,-2.457,-2.4839,-2.5605,-2.577,-2.5844,-2.5824,-2.5844,-2.5844,-2.5824,-2.602,-2.6118,-2.6134,-2.682,-2.7108,0.0,0.0,-2.3607,-2.6663,-2.8298,-2.9568,-3.0985,-3.211,-3.2937,-3.2964,-3.2964,-3.3127,-3.3539,-3.3347,-3.3455,-3.4449,-3.4074,-3.3931,-3.464,-3.3811,-3.287,-3.2125,-3.2044,-3.2044,0.0,-3.3291,-3.4101,-3.4101,-3.4748,-3.5477,-3.6238,-3.6902,-3.7598,-3.8343,-3.8375,-3.8375,-3.8391,-3.8391,-3.8391,-3.8391,-3.8391,-3.8391,-3.8391,-3.8391,-3.8391,-3.8375,-3.8343,-3.7969,-3.7354,-3.7354,-3.6557,-3.5322,-3.5306,-3.4862,-3.4173,-3.2899,-3.2425,-3.2453,-3.2398,-3.1992,-3.1595,-3.2216,-3.1595,-3.0747,-3.1364,-3.1146,-3.0628,-3.0628,-3.0628,-3.0642,-3.0642,-3.0613,-3.0553,-3.0553,-3.006,-2.9421,-2.8782,-2.8158,-2.7534,-2.691,-2.6779,-2.6779,-2.6779,-2.6779,-2.6779,-2.6779,-2.6779,-2.6779,-2.6779,-2.6765,-2.6489,-2.5821,-2.59,-2.5687,-2.5009,-2.4429,-2.4264,-2.4687,-2.4444,-2.4492,-2.4902,-2.5422,-2.568,-2.5616,-2.568,-2.568,-2.5616,-2.6328,-2.6668,-2.6668,-2.7348,-2.7672,0.0,0.0,-2.5905,-2.8056,-2.9204,-3.0204,-3.1582,-3.1887,-3.1982,-3.2704,-3.2069,-3.1479,-3.1715,-3.1891,-3.227,-3.2878,-3.335,-3.3851,-3.4592,-3.3762,-3.3,-3.2757,-3.2724,0.0,0.0,0.0,0.0,-3.4068,-3.4764,-3.5441,-3.5953,-3.6825,-3.7535,-3.8042,-3.8075,-3.8205,-3.8391,-3.796,-3.796,-3.8391,-3.8391,-3.8391,-3.8391,-3.8391,-3.8391,-3.8391,-3.7902,-3.7594,-3.7358,-3.6906,-3.6445,-3.5922,-3.5032,-3.4544,-3.4226,-3.2948,-3.2176,-3.1723,-3.1353,-3.1087,-3.0925,-3.1146,-3.0911,-3.0628,-3.0866,-3.0747,-3.0568,-3.0568,-3.0568,-3.0568,-3.0568,-3.0568,-3.0568,-3.0568,-3.0408,-3.0089,-2.945,-2.9145,-2.8666,-2.7621,-2.7418,-2.7273,-2.6852,-2.6779,-2.6779,-2.6779,-2.6779,-2.6779,-2.6779,-2.6779,-2.6692,-2.6474,-2.6105,-2.5806,-2.5537,-2.4941,-2.474,-2.5179,-2.5168,-2.5104,-2.5102,-2.5557,-2.5608,-2.513,-2.5921,-2.6351,-2.6328,-2.7041,-2.7365,-2.7381,-2.8093,-2.8417,0.0,-2.6377,-2.7545,-2.9675,-3.037,-3.0812,-3.1997,-3.1713,-3.1195,-3.1182,-3.0384,-2.9566,-2.9011,-2.9121,-2.9711,-3.1108,-3.1743,-3.2621,-3.4137,-3.3501,-3.2983,-3.3097,-3.308,-3.3178,0.0,0.0,0.0,-3.3933,-3.5078,-3.5744,-3.5641,-3.6718,-3.7422,-3.7695,-3.7711,-3.7828,-3.8033,-3.7594,-3.7594,-3.8033,-3.8148,-3.8075,-3.777,-3.777,-3.7621,-3.7429,-3.7071,-3.6829,-3.6523,-3.6197,-3.5882,-3.5597,-3.4728,-3.4371,-3.4297,-3.3273,-3.244,-3.1787,-3.1134,-3.0756,-3.0568,-3.0568,-3.0568,-3.0568,-3.0568,-3.0568,-3.0568,-3.0568,-3.0568,-3.0568,-3.0568,-3.0568,-3.0568,-3.0568,-3.0568,-3.0393,-2.9755,-2.9624,-2.9319,-2.8274,-2.7882,-2.7607,-2.72,-2.6924,-2.6779,-2.6779,-2.6779,-2.6779,-2.6779,-2.6779,-2.6779,-2.6779,-2.6402,-2.6141,-2.6141,-2.5546,-2.5316,-2.5579,-2.5548,-2.5453,-2.5332,-2.5944,-2.6036,-2.5604,-2.6543,-2.7057,-2.7057,-2.7753,-2.8093,-2.8109,-2.8838,-2.9178,-2.6896,-2.7719,-2.8514,-3.142,-3.1678,-3.1331,-3.206,-3.1586,-3.0449,-2.8503,-2.8012,-2.7429,0.0,0.0,-2.6254,-2.9038,-2.9544,-3.0526,-3.3262,-3.3134,-3.285,0.0,0.0,0.0,0.0,0.0,0.0,-3.3802,0.0,-3.6374,-3.5473,-3.669,-3.7417,-3.7358,-3.7358,-3.7417,-3.7417,-3.7417,-3.7417,-3.7358,-3.7711,-3.7445,-3.6615,-3.6615,-3.6276,-3.5806,-3.5963,-3.5661,-3.5109,-3.5255,-3.4971,-3.4414,-3.4414,-3.4414,-3.4341,-3.3732,-3.3108,-3.2483,-3.1801,-3.1134,-3.0568,-3.0568,-3.0568,-3.0568,-3.0568,-3.0568,-3.0568,-3.0568,-3.0568,-3.0568,-3.0568,-3.0568,-3.0568,-3.0568,-3.0568,-3.0408,-2.9798,-2.9668,-2.9479,-2.884,-2.8187,-2.7668,-2.7668,-2.72,-2.6779,-2.6779,-2.6779,-2.6779,-2.6779,-2.6779,-2.6779,-2.6779,-2.6779,-2.6779,-2.6779,-2.6199,-2.5836,-2.5836,-2.5682,-2.555,-2.5506,-2.6408,-2.6875,-2.6844,-2.7374,-2.7671,-2.7729,-2.844,-2.8838,-2.8854,-2.9594,-2.9918,-2.7149,-2.8215,-2.9388,-3.1176,-3.1114,-3.0665,-3.0835,-2.9565,-2.8093,-2.7069,-2.5753,-2.4413,-2.3311,0.0,0.0,-2.6908,-2.9476,0.0,-3.3064,-3.3984,0.0,-3.4651,0.0,-3.5437,-3.5369,-3.5886,0.0,0.0,-3.5805,-3.6269,-3.5806,-3.6825,-3.7314,-3.7105,-3.7105,-3.721,-3.7417,-3.7417,-3.7314,-3.7105,-3.7118,-3.7011,-3.6829,-3.6415,-3.6151,-3.6026,-3.5419,-3.5175,-3.5059,-3.452,-3.4264,-3.4196,-3.4196,-3.4196,-3.4182,-3.4158,-3.3775,-3.3137,-3.2483,-3.1526,-3.0568,-3.0568,-3.0568,-3.0568,-3.0568,-3.0568,-3.0568,-3.0568,-3.0568,-3.0568,-3.0568,-3.0568,-3.0568,-3.0568,-3.0568,-3.0524,-3.0364,-3.0335,-3.0147,-2.9508,-2.8492,-2.7668,-2.7668,-2.72,-2.6779,-2.6779,-2.6779,-2.6779,-2.6779,-2.6779,-2.6779,-2.6779,-2.6779,-2.6779,-2.6779,-2.662,-2.6533,-2.6533,-2.6528,-2.6257,-2.5745,-2.6303,-2.6347,-2.5879,-2.6856,-2.7525,-2.791,-2.8653,-2.9243,-2.9643,-2.9821,-2.9918,-2.8381,-2.9489,-3.0458,-3.1197,-3.0905,-3.0197,-2.9304,-2.798,-2.6426,-2.4533,-2.3343,0.0,-2.0747,0.0,0.0,0.0,0.0,0.0,-3.2643,-3.4127,-3.5013,0.0,-3.5878,0.0,-3.6119,-3.6568,-3.6573,0.0,-3.6366,-3.6401,-3.5776,-3.6518,-3.6968,-3.6816,-3.6754,-3.6862,-3.7013,-3.715,-3.6968,-3.6414,-3.6569,-3.6275,-3.5676,-3.5434,-3.5175,-3.4832,0.0,-3.4505,-3.4423,-3.4128,-3.4005,-3.4128,-3.4128,-3.4128,-3.4264,-3.4346,-3.3833,-3.3006,-3.2643,-3.1671,-3.0568,-3.0568,-3.0568,-3.0568,-3.0568,-3.0568,-3.0568,-3.0568,-3.0568,-3.0568,-3.0568,-3.0568,-3.0568,-3.0568,-3.0568,-3.0568,-3.0568,-3.0568,-3.0379,-2.974,-2.9044,-2.839,-2.777,-2.7432,-2.7113,-2.6823,-2.6779,-2.6779,-2.6779,-2.6779,-2.6779,-2.6779,-2.6779,-2.6779,-2.6779,-2.6779,-2.6779,-2.6779,-2.6779,-2.662,-2.6242,-2.6707,-2.6762,-2.6374,-2.725,-2.7969,-2.8489,-2.8884,-2.9273,-2.956,-2.977,-2.977,-2.9904,-3.0828,-3.1274,-3.1366,-3.0828,-2.975,-2.7734,-2.6534,-2.4948,-2.183,0.0,-2.0347,-1.853,-1.975,-2.1805,-2.4202,0.0,-2.9345,-3.211,-3.3777,-3.4739,-3.4809,-3.5975,-3.6708,-3.649,-3.6776,-3.6999,-3.6954,-3.6938,-3.6552,-3.5706,-3.6168,-3.6492,-3.6492,-3.6492,-3.6492,-3.6492,-3.6739,-3.6476,-3.5688,-3.5879,-3.535,-3.4153,-3.4264,-3.3937,-3.3382,-3.3785,-3.3868,-3.3605,-3.3854,-3.3991,-3.4059,-3.4059,-3.421,-3.4332,-3.4312,-3.3587,-3.2614,-3.244,-3.1642,-3.0684,-3.0611,-3.0568,-3.0568,-3.0568,-3.0568,-3.0568,-3.0568,-3.0568,-3.0568,-3.0568,-3.0568,-3.0568,-3.0568,-3.0568,-3.0568,-3.0568,-3.0568,-3.0408,-2.9856,-2.961,-2.9145,-2.8042,-2.7708,-2.7418,-2.6866,-2.6779,-2.6779,-2.6779,-2.6779,-2.6779,-2.6779,-2.6779,-2.6779,-2.6779,-2.6779,-2.6779,-2.6779,-2.6779,-2.6779,-2.6779,-2.7188,-2.7429,-2.7429,-2.7864,-2.8352,-2.8889,-2.8889,-2.8935,-2.9028,-2.947,-2.9425,-3.0027,-3.0505,-3.072,-3.1243,-3.0474,-2.9058,-2.7026,-2.4718,0.0,0.0,0.0,-1.8637,-1.8268,-2.0042,0.0,-2.385,0.0,0.0,0.0,0.0,-3.4578,0.0,0.0,0.0,0.0,0.0,0.0,0.0,0.0,-3.6507,-3.6322,-3.643,-3.6492,-3.6492,-3.6492,-3.6492,-3.6492,-3.6085,-3.5816,-3.5688,-3.5052,-3.4601,-3.4332,-3.3937,-3.3675,-3.3536,-3.3466,0.0,-3.3605,-3.3452,-3.3536,-3.3675,-3.3882,-3.3965,-3.3962,-3.3767,-3.3499,-3.3151,-3.2063,-3.154,-3.1264,-3.0742,-3.0568,-3.0568,-3.0568,-3.0568,-3.0568,-3.0568,-3.0568,-3.0568,-3.0568,-3.0568,-3.0568,-3.0568,-3.0568,-3.0568,-3.0568,-3.0568,-3.0539,-3.0437,-2.9566,-2.8768,-2.855,-2.7636,-2.691,-2.6808,-2.6779,-2.6779,-2.6779,-2.6779,-2.6779,-2.6779,-2.6779,-2.6779,-2.6779,-2.6779,-2.6779,-2.6779,-2.6779,-2.6779,-2.6779,-2.6884,-2.6922,-2.6922,-2.7026,-2.7306,-2.775,-2.775,-2.8012,-2.8432,-2.8543,-2.8543,-2.9627,-3.0151,-3.0412,-3.0366,-2.935,-2.7734,-2.5318,0.0,0.0,0.0,0.0,-1.7577,-1.7224,0.0,0.0,0.0,0.0,0.0,0.0,0.0,0.0,0.0,0.0,0.0,0.0,0.0,0.0,0.0,0.0,-3.6492,-3.6492,-3.6492,-3.6492,-3.6492,-3.6492,-3.6367,-3.6085,-3.5816,-3.5415,-3.4876,-3.4438,-3.4128,-3.3799,-3.3675,-3.3536,-3.3466,-3.3536,-3.3536,-3.3466,-3.3466,-3.3536,-3.3605,-3.3675,-3.3614,-3.3339,-3.324,-3.2774,-3.219,-3.1493,-3.1123,-3.0852,-3.0548,-3.0507,-3.0568,-3.0568,-3.0568,-3.0568,-3.0568,-3.0568,-3.0568,-3.0568,-3.0568,-3.0568,-3.0568,-3.0568,-3.0568,-3.0568,-3.0568,-3.048,-3.0147,-2.9595,-2.8956,-2.8303,-2.7679,-2.7157,-2.6837,-2.6779,-2.6779,-2.6779,-2.6779,-2.6779,-2.6779,-2.6779,-2.6779,-2.6779,-2.6779,-2.6779,-2.6779,-2.6779,-2.6779,-2.6779,-2.6779,-2.6779,-2.6779,-2.6779,-2.7011,-2.7515,-2.7515,-2.76,-2.7898,-2.8143,-2.8143,-2.9012,-2.9689,-3.0089,-2.955,-2.8288,-2.6503,-2.3887,-2.2024,0.0,0.0,0.0,-1.687,-1.6471,0.0,0.0,0.0,0.0,0.0,0.0,0.0,0.0,0.0,0.0,0.0,0.0,0.0,0.0,0.0,0.0,-3.6492,-3.6492,-3.6414,-3.6352,-3.6352,-3.6226,-3.5943,-3.5544,-3.5415,-3.4942,-3.407,-3.3948,-3.3701,-3.3326,-3.3466,-3.3466,-3.3326,-3.3605,-3.3605,-3.3326,-3.3466,-3.3536,-3.3521,-3.3463,-3.3164,-3.2815,-3.2611,-3.1882,-3.1088,-3.096,-3.0635,-3.0266,-3.0266,-3.0387,-3.0568,-3.0568,-3.0568,-3.0568,-3.0568,-3.0568,-3.0568,-3.0568,-3.0568,-3.0568,-3.0568,-3.0568,-3.0568,-3.0568,-3.0568,-3.0422,-2.9929,-2.961,-2.9102,-2.8115,-2.7708,-2.736,-2.6852,-2.6779,-2.6779,-2.6779,-2.6779,-2.6779,-2.6779,-2.6779,-2.6779,-2.6779,-2.6779,-2.6779,-2.6779,-2.6779,-2.6779,-2.6779,-2.6779,-2.6779,-2.6779,-2.6779,-2.6959,-2.7327,-2.7327,-2.7327,-2.7378,-2.7765,-2.7765,-2.8319,-2.8996,-2.9489,-2.9427,-2.7934,-2.5918,-2.3794,0.0,0.0,0.0,-1.6717,-1.6455,-1.7009,-1.7284,0.0,0.0,0.0,0.0,0.0,0.0,0.0,0.0,0.0,0.0,0.0,0.0,0.0,0.0,0.0,-3.6492,-3.6492,-3.6022,-3.5752,-3.5752,-3.5285,-3.5008,-3.4942,-3.4476,-3.4206,-3.407,-3.3646,-3.3312,-3.3326,-3.3326,-3.3326,-3.3326,-3.3326,-3.3326,0.0,-3.3326,-3.3326,-3.3269,-3.2928,-3.2741,-3.261,-3.1547,-3.1125,-3.1031,-3.0397,-3.0168,-3.0111,-3.0111,-3.0341,-3.0568,-3.0568,-3.0568,-3.0568,-3.0568,-3.0568,-3.0568,-3.0568,-3.0568,-3.0568,-3.0568,-3.0568,-3.0568,-3.0568,-3.0568,-3.0553,-3.0495,-2.9552,-2.8739,-2.8608,-2.7636,-2.6852,-2.6794,-2.6779,-2.6779,-2.6779,-2.6779,-2.6779,-2.6779,-2.6779,-2.6779,-2.6779,-2.6779,-2.6779,-2.6779,-2.6779,-2.6779,-2.6779,-2.6779,-2.6779,-2.6779,-2.6779,-2.6832,-2.6884,-2.6884,-2.6884,-2.6884,-2.6922,-2.6922,-2.7503,-2.8288,-2.8704,-2.8304,-2.6657,-2.4594,-2.2548,0.0,0.0,-1.687,-1.6379,-1.6271,-1.6548,-1.6932,-1.7715,0.0,-2.0026,-2.1584,0.0,0.0,0.0,0.0,0.0,0.0,0.0,0.0,0.0,0.0,0.0,-3.5544,-3.5544,-3.5623,-3.5559,-3.5219,-3.5008,-3.4743,-3.4409,-3.4206,-3.3948,-3.3646,-3.3382,-3.3326,-3.3326,-3.3326,-3.3326,-3.3326,-3.3326,-3.3326,0.0,-3.3326,-3.3101,-3.275,-3.2579,-3.2083,-3.1349,-3.0892,-3.0482,-3.0128,-2.9888,-2.9851,-2.9898,-2.9898,-3.0097,-3.028,-3.0387,-3.0447,-3.0447,-3.0568,-3.0568,-3.0568,-3.0568,-3.0507,-3.0447,-3.0447,-3.0341,-3.0341,-3.0387,-3.0447,-3.0332,-2.9956,-2.916,-2.8438,-2.8062,-2.7238,-2.6645,-2.6645,-2.6645,-2.6592,-2.65,-2.6553,-2.6645,-2.6645,-2.6712,-2.6779,-2.6779,-2.6779,-2.6779,-2.6779,-2.6779,-2.6727,-2.6645,-2.6645,-2.6592,-2.65,-2.65,-2.65,-2.65,-2.65,-2.65,-2.65,-2.65,-2.65,-2.6103,-2.698,-2.7426,-2.7149,-2.5533,-2.3533,0.0,0.0,-1.7823,-1.6471,-1.6194,-1.6194,-1.6194,-1.6578,-1.7116,-1.7807,-1.8594,-2.0087,-2.2898,0.0,0.0,0.0,0.0,0.0,0.0,0.0,0.0,0.0,-3.5073,-3.481,-3.4677,-3.5008,-3.5073,-3.4677,-3.4491,-3.4235,-3.3894,-3.3894,-3.3701,-3.3326,-3.3326,-3.3326,-3.3326,-3.3326,-3.3326,-3.3326,-3.3326,-3.3326,0.0,-3.3129,-3.2792,-3.237,-3.2005,-3.1302,-3.0502,-3.0319,-2.9968,-2.9602,-2.9602,-2.9651,-2.9761,-2.9761,-2.9837,-2.9988,-3.0144,-3.019,-3.0266,-3.0401,-3.0462,-3.0462,-3.0462,-3.0341,-3.0266,-3.0266,-3.0158,-3.0111,-3.0219,-3.0266,-3.0136,-2.9691,-2.8943,-2.8239,-2.7794,-2.7018,-2.6418,-2.6418,-2.6418,-2.6418,-2.6326,-2.6379,-2.6418,-2.6418,-2.6553,-2.6674,-2.6712,-2.6712,-2.6712,-2.6659,-2.6674,-2.6606,-2.6472,-2.6418,-2.6379,-2.6286,-2.6286,-2.6286,-2.6286,-2.6286,-2.6286,-2.6286,-2.6286,-2.6286,-2.3979,-2.4841,-2.5503,-2.6135,-2.481,-2.2963,0.0,-1.97,-1.7823,-1.6471,-1.6194,-1.6194,-1.6194,-1.6194,-1.6425,-1.7101,-1.7777,-1.916,-2.1916,0.0,0.0,0.0,0.0,0.0,0.0,0.0,0.0,0.0,-3.4876,0.0,-3.4153,-3.4138,-3.4138,-3.407,-3.3563,-3.3312,-3.3326,-3.3326,-3.3326,-3.3326,-3.3326,-3.3326,-3.3326,-3.3326,-3.3326,-3.3326,-3.3326,-3.3326,0.0,-3.2665,-3.2412,-3.2272,-3.1036,-3.053,-3.0445,-2.9841,-2.9617,-2.9602,-2.9602,-2.9602,-2.9602,-2.9602,-2.9602,-2.9602,-2.9761,-2.996,-3.0111,-3.0111,-3.0111,-3.0111,-3.0111,-3.0111,-3.0111,-3.0111,-3.0111,-3.0111,-3.0111,-3.0111,-3.0111,-3.0111,-2.9083,-2.8197,-2.8197,-2.7154,-2.6286,-2.6286,-2.6286,-2.6286,-2.6286,-2.6286,-2.6286,-2.6286,-2.6286,-2.6379,-2.651,-2.651,-2.6472,-2.6326,-2.6286,-2.6286,-2.6286,-2.6286,-2.6286,-2.6286,-2.6286,-2.6286,-2.6286,-2.6286,-2.6286,-2.6286,-2.6286,-2.6286,-2.146,-2.2717,-2.3656,-2.2486,-2.1701,-2.087,-1.9516,-1.7946,-1.6701,-1.6286,-1.5825,-1.5656,-1.6117,-1.6194,-1.6745,-1.8361,-1.8598,0.0,0.0,0.0,0.0,0.0,0.0,0.0,0.0,0.0,0.0,0.0,-3.4031,-3.3701,-3.3577,-3.3577,-3.3577,-3.3577,-3.3382,-3.3326,-3.3326,-3.3326,-3.3326,-3.3326,-3.3326,-3.3326,-3.3326,-3.3326,-3.3326,-3.3326,-3.3326,-3.3087,-3.2679,-3.2483,-3.1893,-3.1078,-3.0684,-3.0263,-2.9869,-2.9673,-2.9602,-2.9602,-2.9602,-2.9602,-2.9602,-2.9602,-2.9602,-2.9602,-2.9651,-2.9775,-2.9898,-3.005,-3.0111,-3.0111,-3.0111,-2.9974,-2.9884,-2.9884,-2.9837,-2.9789,-2.9898,-2.9884,-2.9884,-2.9884,-2.9231,-2.8535,-2.8124,-2.7357,-2.6661,-2.6236,-2.6165,-2.6111,-2.6056,-2.6111,-2.6165,-2.6165,-2.6233,-2.634,-2.6379,-2.6379,-2.6326,-2.6286,-2.6286,-2.6286,-2.6179,-2.6165,-2.6111,-2.6002,-2.6002,-2.6002,-2.6002,-2.6002,-2.6002,-2.6002,-2.6002,-2.6002,0.0,-2.0424,-2.1209,-2.0489,-1.9919,-1.9223,-1.8084,-1.6793,-1.5733,-1.5487,-1.5303,-1.5318,-1.561,-1.59,-1.6542,-1.7971,-1.8197,0.0,0.0,0.0,0.0,0.0,0.0,0.0,0.0,0.0,0.0,-3.3125,-3.2814,-3.2623,-3.2623,-3.2623,-3.2623,-3.2623,-3.3073,-3.3326,-3.3326,-3.3326,-3.3326,-3.3326,-3.3326,-3.3326,-3.3326,-3.3326,-3.3326,-3.3326,-3.3326,-3.2974,0.0,-3.2145,-3.1443,-3.0502,-3.0263,-2.994,-2.9602,-2.9602,-2.9602,-2.9602,-2.9602,-2.9602,-2.9602,-2.9602,-2.9602,-2.9602,-2.9602,-2.9651,-2.9775,-2.9851,-2.9927,-2.9927,-2.9927,-2.9851,-2.9699,-2.9699,-2.9651,-2.9602,-2.9713,-2.9699,-2.9699,-2.9699,-2.9082,-2.8389,-2.8022,-2.7159,-2.6454,-2.6059,-2.6002,-2.6002,-2.5893,-2.5948,-2.6002,-2.6002,-2.6111,-2.6165,-2.6165,-2.6233,-2.6233,-2.6165,-2.6165,-2.6111,-2.6002,-2.6002,-2.6002,-2.5893,-2.5893,-2.5893,-2.5893,-2.5893,-2.5893,-2.5893,-2.5893,-2.5893,0.0,-1.7915,-1.8284,-1.9502,-1.8854,-1.7761,-1.7131,-1.5979,0.0,-1.4313,-1.4714,-1.5082,-1.4905,-1.5465,-1.6113,-1.6522,0.0,0.0,0.0,0.0,0.0,0.0,0.0,0.0,0.0,0.0,-3.1485,-3.1485,-3.1485,-3.1485,-3.1485,-3.1485,-3.1485,-3.1485,-3.2595,-3.3213,-3.3255,-3.3213,-3.3213,-3.3255,-3.3213,-3.3185,-3.3185,-3.3185,-3.3185,0.0,-3.3185,-3.2848,-3.223,-3.1654,-3.1036,-3.0403,-2.9827,-2.9602,-2.9602,-2.9602,-2.9602,-2.9602,-2.9602,-2.9602,-2.9602,-2.9602,-2.9602,-2.9602,-2.9602,-2.9602,-2.9602,-2.9602,-2.9602,-2.9602,-2.9602,-2.9602,-2.9602,-2.9602,-2.9602,-2.9602,-2.9602,-2.9602,-2.9602,-2.9602,-2.8675,-2.7888,-2.7846,-2.6835,-2.6006,-2.5964,-2.5921,-2.5893,-2.5893,-2.5893,-2.5893,-2.5893,-2.5893,-2.5893,-2.5893,-2.6002,-2.6002,-2.5893,-2.5893,-2.5893,-2.5893,-2.5893,-2.5893,-2.5893,-2.5893,-2.5893,-2.5893,-2.5893,-2.5893,-2.5893,-2.5893,-2.5921,-1.3913,0.0,-1.5745,-1.5037,-1.5006,-1.5114,0.0,-1.4267,-1.3775,0.0,0.0,-1.4684,-1.5435,-1.6143,-1.704,0.0,0.0,0.0,0.0,0.0,0.0,0.0,0.0,0.0,0.0,0.0,-3.1485,-3.1485,-3.1485,-3.1485,-3.1485,-3.1485,-3.1485,-3.1485,-3.178,-3.2145,-3.2623,-3.2145,-3.2145,-3.2623,-3.2145,-3.1921,-3.1921,-3.1921,-3.1921,-3.1921,-3.1921,-3.1555,-3.0951,-3.0811,-3.0389,-2.9813,-2.9673,-2.9602,-2.9602,-2.9602,-2.9602,-2.9602,-2.9602,-2.9602,-2.9602,-2.9602,-2.9602,-2.9602,-2.9602,-2.9602,-2.9602,-2.9602,-2.9602,-2.9602,-2.9602,-2.9602,-2.9602,-2.9602,-2.9602,-2.9602,-2.9602,-2.9602,-2.9602,-2.9602,-2.9378,-2.9026,-2.8563,-2.7846,-2.7172,-2.6666,-2.6202,-2.5893,-2.5893,-2.5893,-2.5893,-2.5893,-2.5893,-2.5893,-2.5893,-2.5948,-2.5948,-2.5893,-2.5893,-2.5893,-2.5893,-2.5893,-2.5893,-2.5893,-2.5893,-2.5893,-2.5893,-2.5893,-2.5893,-2.5893,-2.5893,-2.6146,-1.1927,-1.3627,-1.5114,-1.4683,-1.4546,-1.4552,-1.4642,0.0,0.0,0.0,0.0,0.0,-1.543,0.0,0.0,0.0,0.0,0.0,0.0,0.0,0.0,0.0,0.0,0.0,0.0,0.0,-3.0628,-3.0628,-3.0628,-3.0628,-3.0628,-3.0628,-3.0628,-3.0628,-3.0628,-3.1064,-3.1977,-3.1654,-3.1654,-3.1977,-3.1654,-3.1485,-3.1485,-3.1485,-3.1485,-3.1485,-3.1485,-3.112,-3.053,-3.053,-3.015,-2.9602,-2.9602,-2.9602,-2.9602,-2.9602,-2.9602,-2.9602,-2.9602,-2.9602,-2.9602,-2.9602,-2.9401,-2.9184,-2.9477,-2.9324,-2.9198,-2.9477,-2.9602,-2.9602,-2.9602,-2.9602,-2.9602,-2.9602,-2.9602,-2.9602,-2.9602,-2.9602,-2.9602,-2.9602,-2.9378,-2.9083,-2.8759,-2.8183,-2.7551,-2.6905,-2.6526,-2.6217,-2.5936,-2.5893,-2.5893,-2.5893,-2.5893,-2.5893,-2.5893,-2.5893,-2.5893,-2.5893,-2.5893,-2.5893,-2.5893,-2.5893,-2.5893,-2.5893,-2.5893,-2.5893,-2.5893,-2.5893,-2.5893,-2.5907,-2.6174,-2.6497,-1.1012,-1.3076,-1.5194,-1.5518,-1.5185,-1.4833,-1.5008,0.0,0.0,0.0,0.0,0.0,0.0,0.0,0.0,0.0,0.0,0.0,0.0,0.0,0.0,0.0,0.0,0.0,0.0,-2.9602,-2.9602,-2.9602,-2.9602,-2.9602,-2.9602,-2.9602,-2.9602,-2.9602,-2.9602,-3.0122,-3.119,-3.1204,-3.1246,-3.1345,-3.1246,-3.1204,-3.1204,-3.1204,-3.1204,-3.1204,-3.1204,0.0,-3.0375,-3.0375,-3.008,-2.9602,-2.9602,-2.954,-2.9401,-2.9401,-2.9338,-2.9275,-2.9275,-2.9275,-2.9275,-2.9275,-2.8853,-2.8441,-2.9071,-2.8853,-2.8505,-2.9135,-2.9401,-2.9602,-2.9602,-2.9602,-2.9602,-2.9602,-2.9602,-2.9602,-2.9602,-2.9602,-2.9602,-2.9602,-2.9195,-2.883,-2.883,-2.824,-2.7593,-2.7045,-2.6793,-2.6483,-2.5964,-2.5893,-2.5893,-2.5893,-2.5893,-2.5893,-2.5893,-2.5893,-2.5893,-2.5893,-2.5893,-2.5893,-2.5893,-2.5893,-2.5893,-2.5893,-2.5893,-2.5893,-2.5893,-2.5893,-2.595,-2.6048,-2.6568,-2.6905,-1.157,-1.3348,-1.434,-1.3169,-1.3586,-1.424,-1.4268,0.0,0.0,0.0,0.0,0.0,0.0,0.0,0.0,0.0,0.0,0.0,0.0,0.0,0.0,0.0,0.0,0.0,-2.9602,-2.9602,-2.9602,-2.9602,-2.9602,-2.9602,-2.9602,-2.9602,-2.9602,-2.9602,-2.9602,-2.9701,-2.9897,-2.9897,-3.015,-3.067,-3.015,-2.9897,-2.9897,-2.9897,-2.9897,-2.9897,0.0,-2.9841,-2.9757,-2.9757,-2.9687,-2.9602,-2.9602,-2.9198,-2.8698,-2.8698,-2.8325,-2.7815,-2.7815,-2.7815,-2.7815,-2.7815,-2.7749,-2.767,-2.7815,-2.7736,-2.767,-2.7802,-2.8675,-2.9602,-2.9602,-2.9602,-2.9602,-2.9602,-2.9602,-2.9602,-2.9602,-2.9602,-2.9602,-2.9602,-2.9532,-2.9462,-2.9462,-2.8535,-2.7748,-2.765,-2.6722,-2.5992,-2.5907,-2.5893,-2.5893,-2.5893,-2.5893,-2.5893,-2.5893,-2.5893,-2.5893,-2.5893,-2.5893,-2.5893,-2.5893,-2.5893,-2.5893,-2.5893,-2.5893,-2.5893,-2.5893,-2.5893,-2.616,-2.6666,-2.6764,-2.7383,-1.0207,-1.1911,-1.3207,-1.2969,-1.4309,-1.5739,-1.585,0.0,0.0,0.0,0.0,0.0,0.0,0.0,0.0,0.0,0.0,0.0,0.0,0.0,0.0,0.0,0.0,-2.9602,-2.9602,-2.9602,-2.9602,-2.9602,-2.9602,-2.9602,-2.9602,-2.9602,-2.9602,-2.9602,-2.9602,-2.9602,-2.9602,-2.9602,-2.9757,-3.0024,-2.9743,-2.9602,-2.9602,-2.9602,-2.9401,-2.898,0.0,-2.8789,-2.8481,-2.8481,-2.8481,-2.8481,-2.8481,-2.8274,-2.7986,-2.7986,-2.7736,-2.7484,-2.7484,-2.7484,-2.7484,-2.7484,-2.7217,-2.6947,-2.7351,-2.7217,-2.7015,-2.7417,-2.7947,-2.8481,-2.8481,-2.8481,-2.8481,-2.8481,-2.8481,-2.8481,-2.8481,-2.8481,-2.8597,-2.8917,-2.898,-2.9024,-2.9105,-2.8647,-2.8043,-2.7355,-2.6764,-2.6273,-2.5936,-2.5893,-2.5893,-2.5893,-2.5893,-2.5893,-2.5893,-2.5893,-2.5893,-2.5893,-2.5893,-2.5893,-2.5893,-2.5893,-2.5893,-2.5893,-2.5893,-2.5893,-2.5893,-2.5893,-2.6217,-2.6821,-2.7172,-2.7818,-0.9171,-1.0616,-1.215,-1.3439,0.0,-1.6744,-1.7444,0.0,0.0,0.0,0.0,0.0,0.0,0.0,0.0,0.0,0.0,0.0,0.0,0.0,0.0,0.0,-2.9602,-2.9602,-2.9602,-2.9602,-2.9602,-2.9602,-2.9602,-2.9602,-2.9602,-2.9602,-2.9602,-2.9602,-2.9602,-2.9602,-2.9602,-2.9602,-2.9602,-2.9602,-2.9401,-2.9324,-2.9338,-2.9198,-2.8853,-2.8492,-2.8492,-2.8247,-2.7736,-2.7736,-2.767,-2.7484,-2.7484,-2.7417,-2.7217,-2.7069,-2.7002,-2.7002,-2.7002,-2.7002,-2.7002,-2.7002,-2.6607,-2.6277,-2.6799,-2.6607,-2.6277,-2.6812,-2.7002,-2.7069,-2.7417,-2.7484,-2.7484,-2.7484,-2.7484,-2.7484,-2.7484,-2.7484,-2.767,-2.8182,-2.8126,-2.8102,-2.8181,-2.8,-2.7488,-2.6547,-2.627,-2.6007,-2.573,-2.5674,-2.5729,-2.5893,-2.5893,-2.5893,-2.5893,-2.5893,-2.5893,-2.5893,-2.5893,-2.5893,-2.5893,-2.5893,-2.5893,-2.5893,-2.5893,-2.5964,-2.6104,-2.6104,-2.6497,-2.7256,-2.7762,-2.831,-0.9845,-1.0608,-1.1388,-1.4191,-1.4983,0.0,-1.7675,-1.764,0.0,0.0,0.0,0.0,0.0,0.0,0.0,0.0,0.0,0.0,0.0,0.0,0.0,-2.9462,-2.9602,-2.9602,-2.9602,-2.9602,-2.9602,-2.9602,-2.9602,-2.9602,-2.9602,-2.9602,-2.9602,-2.9602,-2.9602,-2.9602,-2.9602,-2.9602,-2.9602,-2.9602,-2.8917,-2.857,-2.857,-2.7934,-2.7934,-2.8492,-2.8492,-2.8492,-2.8427,-2.8427,-2.8051,-2.7484,-2.7484,-2.7082,-2.6414,-2.5721,-2.5441,-2.5441,-2.5441,-2.5441,-2.5441,-2.5441,-2.5441,-2.5382,-2.5441,-2.5441,-2.5382,-2.5441,-2.5441,-2.5779,-2.7136,-2.7484,-2.7484,-2.7484,-2.7484,-2.7484,-2.7484,-2.7484,-2.7484,-2.7537,-2.7184,-2.6867,-2.6828,-2.5994,-2.5255,-2.5163,-2.4616,-2.4434,-2.5005,-2.5061,-2.5286,-2.5839,-2.5893,-2.5893,-2.5893,-2.5893,-2.5893,-2.5893,-2.5893,-2.5893,-2.5893,-2.5893,-2.5893,-2.5893,-2.5893,-2.6174,-2.675,-2.675,-2.7369,-2.8549,-2.8605,-2.8956,-0.8907,-1.023,-1.1697,-1.3878,0.0,0.0,0.0,0.0,0.0,0.0,0.0,0.0,0.0,0.0,0.0,0.0,0.0,0.0,0.0,0.0,-2.7945,-2.8422,-2.8464,-2.8464,-2.8464,-2.8816,-2.904,-2.904,-2.9392,-2.9401,-2.8917,-2.8917,-2.8712,-2.8274,-2.8675,-2.8931,-2.8917,-2.8803,-2.8817,-2.8817,-2.8532,-2.8117,-2.771,-2.7868,-2.7947,-2.7855,-2.7855,-2.7591,-2.7124,-2.6718,-2.6377,-2.6126,-2.6126,-2.5988,-2.5652,-2.5382,-2.5312,-2.5312,-2.5312,-2.5312,-2.5312,-2.5312,-2.5241,-2.5182,-2.5241,-2.5241,-2.5182,-2.5312,-2.5312,-2.5441,-2.5988,-2.6126,-2.6126,-2.6126,-2.6126,-2.6126,-2.6126,-2.6126,-2.6164,-2.6286,-2.6123,-2.5961,-2.5694,-2.5271,-2.4852,-2.4413,-2.4164,-2.4092,-2.4337,-2.4394,-2.4452,-2.4667,-2.4724,-2.5021,-2.5839,-2.5564,-2.5508,-2.5893,-2.5893,-2.5893,-2.5893,-2.5893,-2.5893,-2.5893,-2.5893,-2.6202,-2.6807,-2.6807,-2.7256,-2.8127,-2.8127,-2.824,-0.8688,-1.0166,-1.1898,0.0,0.0,0.0,0.0,0.0,0.0,0.0,0.0,0.0,0.0,0.0,0.0,0.0,0.0,0.0,0.0,-2.7186,-2.7551,-2.7748,-2.7776,-2.7776,-2.7776,-2.8155,-2.8334,-2.8066,-2.8652,-2.8567,-2.7554,-2.7746,-2.7554,-2.687,-2.7432,-2.7771,-2.7744,-2.7893,-2.7802,-2.7524,-2.7524,-2.7258,-2.6773,-2.7069,-2.7136,-2.6989,-2.6989,-2.6731,-2.6277,-2.5791,-2.5441,-2.5312,-2.5312,-2.5312,-2.5312,-2.5312,-2.5312,-2.5312,-2.5312,-2.5312,-2.5312,-2.5312,-2.5241,-2.5182,-2.5241,-2.5182,-2.5111,-2.5182,-2.5182,-2.5111,-2.5111,-2.5241,-2.5312,-2.5312,-2.5312,-2.5312,-2.5312,-2.518,-2.509,-2.5191,-2.4992,-2.4716,-2.4453,-2.416,-2.3844,-2.339,-2.3327,-2.3327,-2.3551,-2.3551,-2.3598,-2.3833,-2.3962,-2.4496,-2.5412,-2.5286,-2.5355,-2.5893,-2.5893,-2.5893,-2.5893,-2.5893,-2.5893,-2.5893,-2.5893,-2.6202,-2.6807,-2.6807,-2.7144,-2.7776,-2.7776,-2.7776,-0.9564,-1.0534,0.0,0.0,0.0,0.0,0.0,0.0,0.0,0.0,0.0,0.0,0.0,0.0,0.0,0.0,0.0,0.0,-2.6722,-2.6793,-2.7045,-2.7692,-2.7762,-2.7762,-2.7762,-2.7762,-2.744,-2.6668,-2.7308,-2.7083,-2.5495,-2.6179,-2.6241,-2.5432,-2.582,-2.609,-2.609,-2.6801,-2.6693,-2.5812,-2.5812,-2.5742,-2.5755,-2.5111,-2.5182,-2.5824,-2.5824,-2.5894,-2.6114,-2.6114,-2.5779,-2.5312,-2.5312,-2.5312,-2.5312,-2.5312,-2.5312,-2.5312,-2.5312,-2.5312,-2.5312,-2.5312,-2.5312,-2.5312,-2.5312,-2.5182,-2.5123,-2.5123,-2.4921,-2.479,-2.479,-2.5052,-2.53,-2.53,-2.5312,-2.5312,-2.5312,-2.4891,-2.4518,-2.4506,-2.3688,-2.2979,-2.2967,-2.2408,-2.1925,-2.1925,-2.1812,-2.1925,-2.2482,-2.2592,-2.2834,-2.342,-2.3975,-2.4381,-2.4697,-2.516,-2.5592,-2.5893,-2.5893,-2.5893,-2.5893,-2.5893,-2.5893,-2.5893,-2.5893,-2.6202,-2.6807,-2.6807,-2.7144,-2.7762,-2.7762,-2.7762,-0.9514,-1.1213,0.0,0.0,0.0,0.0,0.0,0.0,0.0,0.0,0.0,0.0,0.0,0.0,0.0,-2.3946,-2.4709,-2.5354,-2.5519,-2.5547,-2.5431,-2.5177,-2.5015,-2.497,-2.497,-2.5283,-2.5401,-2.5145,-2.577,-2.5683,-2.4655,-2.4835,-2.4655,-2.3935,-2.4505,-2.4816,-2.4816,-2.4912,-2.4999,-2.5054,-2.44,-2.4472,-2.5123,-2.5217,-2.5487,-2.5824,-2.5824,-2.5824,-2.5824,-2.5382,-2.5052,-2.4921,-2.4921,-2.4921,-2.4921,-2.4921,-2.4921,-2.4992,-2.5111,-2.5182,-2.5182,-2.5241,-2.5241,-2.5182,-2.5182,-2.5052,-2.4861,-2.4861,-2.4578,-2.4308,-2.4696,-2.4567,-2.4506,-2.4826,-2.4921,-2.4921,-2.4921,-2.4495,-2.4068,-2.3847,-2.3173,-2.2538,-2.2297,-2.1981,-2.1761,-2.1761,-2.1761,-2.1761,-2.1925,-2.1987,-2.2322,-2.3242,-2.2811,-2.3113,-2.4738,-2.4323,-2.4337,-2.5216,-2.5286,-2.5453,-2.5893,-2.5893,-2.5893,-2.5893,-2.5893,-2.6202,-2.6807,-2.6807,-2.6905,-2.7102,-2.7102,-2.6863,-1.0969,0.0,0.0,0.0,0.0,0.0,0.0,0.0,0.0,0.0,0.0,0.0,0.0,0.0,0.0,-2.3712,-2.4099,-2.4452,-2.4523,-2.4523,-2.4394,-2.4021,-2.3859,-2.38,-2.38,-2.3978,-2.4004,-2.3712,-2.4249,-2.4192,-2.3128,-2.3384,-2.3204,-2.2484,-2.3043,-2.3323,-2.3323,-2.3526,-2.3802,-2.407,-2.3547,-2.3514,-2.4108,-2.4472,-2.4646,-2.4582,-2.4662,-2.4771,-2.4963,-2.459,-2.4601,-2.479,-2.479,-2.479,-2.479,-2.479,-2.466,-2.4472,-2.459,-2.453,-2.4434,-2.4491,-2.4434,-2.4364,-2.4364,-2.4236,-2.4108,-2.4108,-2.3793,-2.3548,-2.3875,-2.3711,-2.3723,-2.4613,-2.4637,-2.4472,-2.4472,-2.3896,-2.3352,-2.3112,-2.2574,-2.2126,-2.1871,-2.1686,-2.1549,-2.1549,-2.1561,-2.1498,-2.1498,-2.1498,-2.1726,-2.2421,-2.2075,-2.2384,-2.3872,-2.3505,-2.3551,-2.4337,-2.4394,-2.4553,-2.4951,-2.5314,-2.5564,-2.5564,-2.5564,-2.5744,-2.6105,-2.6105,-2.6105,-2.6105,-2.6105,-2.5911,0.0,0.0,0.0,0.0,0.0,0.0,0.0,0.0,0.0,0.0,0.0,0.0,0.0,0.0,0.0,-2.3533,-2.3551,-2.3479,-2.3669,-2.3682,-2.3741,-2.3787,-2.3669,-2.3551,-2.3551,-2.342,-2.3002,-2.231,-2.2895,-2.2701,-2.1285,-2.1889,-2.1951,-2.1221,-2.1617,-2.1858,-2.1858,-2.2518,-2.284,-2.2887,-2.2887,-2.2887,-2.291,-2.3213,-2.3121,-2.2673,-2.2889,-2.3212,-2.3619,-2.3839,-2.4202,-2.4577,-2.4577,-2.4577,-2.4577,-2.4577,-2.4331,-2.3908,-2.3908,-2.3614,-2.3317,-2.3305,-2.3305,-2.3305,-2.3305,-2.3171,-2.3024,-2.2956,-2.2786,-2.2616,-2.2662,-2.2639,-2.2926,-2.4272,-2.4272,-2.3908,-2.3908,-2.3156,-2.2474,-2.2474,-2.2051,-2.1635,-2.1698,-2.1537,-2.1388,-2.1388,-2.1273,-2.1221,-2.1221,-2.1221,-2.1233,-2.1285,-2.1577,-2.2002,-2.2372,-2.2786,-2.3135,-2.342,-2.342,-2.342,-2.342,-2.4394,-2.4878,-2.4878,-2.4948,-2.5005,-2.4948,-2.5005,-2.5005,-2.5005,-2.5005,-2.5005,0.0,0.0,0.0,0.0,0.0,0.0,0.0,0.0,0.0,0.0,0.0,0.0,0.0,0.0,0.0,-2.2747,-2.2834,-2.2834,-2.2834,-2.2834,-2.2665,-2.2223,-2.2013,-2.1939,-2.1939,-2.1753,-2.1639,-2.1463,-2.1577,-2.1526,-2.1221,-2.1336,-2.1411,-2.1233,-2.1273,-2.133,-2.133,-2.1498,-2.1763,-2.2154,-2.2154,-2.2154,-2.2177,-2.2616,-2.2788,-2.2685,-2.2753,-2.281,-2.2903,-2.2971,-2.304,-2.3144,-2.3144,-2.3144,-2.3144,-2.3144,-2.3075,-2.2971,-2.3187,-2.3117,-2.3103,-2.3238,-2.3305,-2.3238,-2.3103,-2.3024,-2.2956,-2.2821,-2.2465,-2.218,-2.257,-2.2386,-2.2249,-2.2994,-2.3052,-2.2971,-2.2971,-2.2497,-2.2059,-2.2201,-2.1783,-2.1348,-2.1474,-2.1348,-2.1221,-2.1221,-2.1221,-2.1221,-2.1221,-2.1221,-2.1348,-2.1702,-2.1526,-2.1702,-2.2482,-2.2298,-2.2359,-2.2774,-2.2774,-2.2774,-2.2774,-2.3859,-2.4279,-2.3846,-2.458,-2.4835,-2.4465,-2.4821,-2.5005,-2.5005,-2.5005,-2.5005,0.0,0.0,0.0,0.0,0.0,0.0,0.0,0.0,0.0,0.0,0.0,0.0,0.0,0.0,-2.0996,-2.1272,-2.1272,-2.1296,-2.1656,-2.1692,-2.1677,-2.1726,-2.1537,-2.1388,-2.1388,-2.1273,-2.1221,-2.1221,-2.1221,-2.1221,-2.1221,-2.1221,-2.1221,-2.1221,-2.1221,-2.1221,-2.1221,-2.1221,-2.1296,-2.156,-2.156,-2.156,-2.1571,-2.1835,-2.195,-2.195,-2.195,-2.2088,-2.2317,-2.2317,-2.2467,-2.2685,-2.2685,-2.2685,-2.2685,-2.2685,-2.2524,-2.2317,-2.2451,-2.2301,-2.2159,-2.229,-2.229,-2.229,-2.2159,-2.2159,-2.2093,-2.2016,-2.1766,-2.1617,-2.1881,-2.1755,-2.1629,-2.1893,-2.2134,-2.2317,-2.2317,-2.1916,-2.1624,-2.1689,-2.1417,-2.1221,-2.1273,-2.1221,-2.1221,-2.1221,-2.1221,-2.1221,-2.1221,-2.1221,-2.1285,-2.1526,-2.1348,-2.14,-2.1877,-2.1702,-2.1639,-2.1877,-2.1939,-2.1939,-2.1939,-2.2725,-2.3148,-2.3062,-2.3551,-2.3872,-2.3839,-2.3872,-2.4118,-2.4563,-2.4319,-2.4376,0.0,0.0,0.0,0.0,0.0,0.0,0.0,0.0,0.0,0.0,0.0,0.0,0.0,0.0,-1.9738,-1.9831,-1.9748,-1.9886,-2.0421,-2.054,-2.0764,-2.1257,-2.1218,-2.1167,-2.1197,-2.1146,-2.1066,-2.1221,-2.1221,-2.1221,-2.1221,-2.1221,-2.1221,-2.1221,-2.1221,-2.1221,-2.1221,-2.1221,-2.1221,-2.1221,-2.1221,-2.1221,-2.1221,-2.1221,-2.1221,-2.1221,-2.1221,-2.1399,-2.1801,-2.1801,-2.2042,-2.2421,-2.2421,-2.2421,-2.2421,-2.2421,-2.2157,-2.1801,-2.1801,-2.1514,-2.1221,-2.1221,-2.1221,-2.1221,-2.1221,-2.1221,-2.1221,-2.1221,-2.1221,-2.1221,-2.1221,-2.1221,-2.1221,-2.1221,-2.1491,-2.1801,-2.1801,-2.1456,-2.1221,-2.1221,-2.1221,-2.1221,-2.1221,-2.1221,-2.1221,-2.1221,-2.1221,-2.1221,-2.1221,-2.1221,-2.1221,-2.1221,-2.1221,-2.1221,-2.1221,-2.1221,-2.1221,-2.1221,-2.1221,-2.1221,-2.1221,-2.1577,-2.1939,-2.2359,-2.2543,-2.2798,-2.315,-2.2871,-2.3113,-2.3865,-2.3628,-2.37,0.0,0.0,0.0,0.0,0.0,0.0,0.0,0.0,0.0,0.0,0.0,0.0,0.0,0.0,-1.9206,-1.9678,-1.9688,-1.9723,-1.984,-1.9851,-1.9874,-1.9943,-1.9943,-2.0116,-2.0469,-2.0504,-2.0687,-2.1198,-2.1221,-2.1221,-2.1221,-2.1221,-2.1221,-2.1221,-2.1221,-2.1221,-2.1221,-2.1221,-2.1221,-2.1221,-2.1221,-2.1221,-2.1221,-2.1221,-2.1221,-2.1221,-2.1221,-2.1267,-2.1261,-2.1261,-2.1371,-2.1429,-2.1429,-2.1429,-2.1429,-2.1429,-2.1319,-2.1261,-2.1261,-2.1279,-2.1221,-2.1221,-2.1221,-2.1221,-2.1221,-2.1221,-2.1221,-2.1221,-2.1221,-2.1221,-2.1221,-2.1221,-2.1221,-2.1221,-2.1279,-2.1261,-2.1261,-2.1204,-2.1221,-2.1221,-2.1221,-2.1221,-2.1221,-2.1221,-2.1221,-2.1221,-2.1221,-2.1221,-2.1221,-2.1221,-2.1221,-2.1221,-2.1221,-2.1221,-2.1221,-2.1221,-2.1221,-2.1221,-2.1221,-2.1221,-2.1221,-2.1285,-2.1336,-2.1411,-2.2187,-2.2421,-2.2125,-2.2896,-2.3125,-2.2847,-2.3616,-2.3819,0.0,0.0,0.0,0.0,0.0,0.0,0.0,0.0,0.0,0.0,0.0,0.0,0.0,0.0,-1.8552,-1.8782,-1.8816,-1.8919,-1.9206,-1.9241,-1.9356,-1.9654,-1.9688,-1.978,-1.9987,-2.001,-2.0102,-2.032,-2.0343,-2.0343,-2.0343,-2.0595,-2.0745,-2.0745,-2.1009,-2.1221,-2.1221,-2.1221,-2.1221,-2.1221,-2.1221,-2.1221,-2.1221,-2.1221,-2.1221,-2.1221,-2.1221,-2.1221,-2.1221,-2.1221,-2.1221,-2.1221,-2.1221,-2.1221,-2.1221,-2.1221,-2.1221,-2.1221,-2.1221,-2.1221,-2.1221,-2.1221,-2.1221,-2.1221,-2.1221,-2.1221,-2.1221,-2.1221,-2.1221,-2.1221,-2.1221,-2.1221,-2.1221,-2.1221,-2.1221,-2.1221,-2.1221,-2.1221,-2.1221,-2.1221,-2.1221,-2.1221,-2.1221,-2.1221,-2.1221,-2.1221,-2.1221,-2.1221,-2.1221,-2.1221,-2.1221,-2.1221,-2.1221,-2.1221,-2.1221,-2.1221,-2.1221,-2.1221,-2.1221,-2.1221,-2.1221,-2.1221,-2.1221,-2.1221,-2.1577,-2.1815,-2.1877,-2.2087,-2.2322,-2.2592,-2.2798,-2.2871,0.0,0.0,0.0,0.0,0.0,0.0,0.0,0.0,0.0,0.0,0.0,0.0,0.0,0.0,-1.8084,-1.8084,-1.8084,-1.8221,-1.8655,-1.8701,-1.885,-1.9252,-1.9298,-1.9344,-1.947,-1.9493,-1.9551,-1.9688,-1.9688,-1.9688,-1.9688,-2.0033,-2.0228,-2.0228,-2.0595,-2.0853,-2.0853,-2.0905,-2.1095,-2.1221,-2.1221,-2.1221,-2.1221,-2.1221,-2.1221,-2.1221,-2.1221,-2.1221,-2.1221,-2.1221,-2.1221,-2.1221,-2.1221,-2.1221,-2.1221,-2.1221,-2.1221,-2.1221,-2.1221,-2.1221,-2.1221,-2.1221,-2.1221,-2.1221,-2.1221,-2.1221,-2.1221,-2.1221,-2.1221,-2.1221,-2.1221,-2.1221,-2.1221,-2.1221,-2.1221,-2.1221,-2.1221,-2.1221,-2.1221,-2.1221,-2.1221,-2.1221,-2.1221,-2.1221,-2.1221,-2.1221,-2.1221,-2.1221,-2.1221,-2.1221,-2.1221,-2.1221,-2.1221,-2.1221,-2.1221,-2.1221,-2.1221,-2.1221,-2.1221,-2.1221,-2.1221,-2.1221,-2.1221,-2.1221,-2.1221,-2.1336,-2.1702,-2.1463,-2.1702,-2.2237,-2.2113,-2.2175,0.0,0.0,0.0,0.0,0.0,0.0,0.0,0.0,0.0,0.0,0.0,0.0,0.0,0.0,-1.8084,-1.8084,-1.8084,-1.8096,-1.813,-1.813,-1.8141,-1.8164,-1.8164,-1.8359,-1.8885,-1.8931,-1.9149,-1.9654,-1.9688,-1.9688,-1.9688,-1.9711,-1.9734,-1.9734,-1.9757,-1.9769,-1.9769,-2.0217,-2.0687,-2.1221,-2.1221,-2.1221,-2.1221,-2.1221,-2.1221,-2.1221,-2.1221,-2.1221,-2.1221,-2.1221,-2.1221,-2.1221,-2.1221,-2.1221,-2.1221,-2.1221,-2.1221,-2.1221,-2.1221,-2.1221,-2.1221,-2.1221,-2.1221,-2.1221,-2.1221,-2.1221,-2.1221,-2.1221,-2.1221,-2.1221,-2.1221,-2.1221,-2.1221,-2.1221,-2.1221,-2.1221,-2.1221,-2.1221,-2.1221,-2.1221,-2.1221,-2.1221,-2.1221,-2.1221,-2.1221,-2.1221,-2.1221,-2.1221,-2.1221,-2.1221,-2.1221,-2.1221,-2.1221,-2.1221,-2.1221,-2.1221,-2.1221,-2.1221,-2.1221,-2.1221,-2.1221,-2.1221,-2.1221,-2.1221,-2.1221,-2.1221,-2.1221,-2.1639,-2.1639,-2.1285,-2.2187,-2.2359,0.0,0.0,0.0,0.0,0.0,0.0,0.0,0.0,0.0,0.0,0.0,0.0,0.0,0.0,0.0,-1.7599,-1.7645,-1.7771,-1.8038,-1.8084,-1.8084,-1.8084,-1.8084,-1.8153,-1.8391,-1.8414,-1.8495,-1.8678,-1.869,-1.869,-1.869,-1.9,-1.9183,-1.9183,-1.9516,-1.9629,-1.938,-1.9369,-1.9622,-2.0017,-2.0017,-2.0322,-2.0839,-2.0839,-2.0967,-2.1221,-2.1221,-2.1221,-2.1221,-2.1221,-2.1221,-2.1221,-2.1221,-2.1221,-2.1221,-2.1221,-2.1221,-2.1221,-2.1221,-2.1221,-2.1221,-2.1221,-2.1221,-2.1221,-2.1221,-2.1221,-2.1221,-2.1221,-2.1221,-2.1221,-2.1221,-2.1221,-2.1221,-2.1221,-2.1221,-2.1221,-2.1221,-2.1221,-2.1221,-2.1221,-2.1221,-2.1221,-2.1221,-2.1221,-2.1221,-2.1221,-2.1221,-2.1221,-2.1221,-2.1221,-2.1221,-2.1221,-2.1221,-2.1221,-2.1221,-2.1221,-2.1221,-2.1221,-2.1221,-2.1221,-2.1221,-2.1221,-2.1221,-2.1221,-2.1221,-2.1221,-2.1221,-2.1348,-2.1336,-2.1221,-2.1514,-2.1577,0.0,0.0,0.0,0.0,0.0,0.0,0.0,0.0,0.0,0.0,0.0,0.0,0.0,0.0,0.0,-1.7014,-1.7025,-1.7087,-1.7535,-1.7729,-1.7886,-1.7886,-1.7981,-1.8084,-1.8084,-1.8084,-1.8084,-1.8084,-1.8084,0.0,-1.8084,-1.846,-1.8644,-1.8644,-1.8988,-1.9078,-1.8944,-1.8766,-1.8879,-1.9219,-1.9219,-1.9456,-1.9965,-1.9965,-2.0154,-2.0415,-2.0415,-2.0723,-2.1221,-2.1221,-2.1221,-2.1221,-2.1221,-2.1221,-2.1221,-2.1221,-2.1221,-2.1221,-2.1221,-2.1221,-2.1221,-2.1221,-2.1221,-2.1221,-2.1221,-2.1094,-2.1031,-2.1031,-2.0892,-2.0764,-2.0624,-2.056,-2.0624,-2.0764,-2.0828,-2.0828,-2.0828,-2.1031,-2.1221,-2.1221,-2.1221,-2.1221,-2.1221,-2.1221,-2.1221,-2.1221,-2.1221,-2.1221,-2.1221,-2.1221,-2.1221,-2.1221,-2.1221,-2.1221,-2.1221,-2.1221,-2.1221,-2.1221,-2.1221,-2.1221,-2.1221,-2.1221,-2.1221,-2.1221,-2.1221,-2.1221,-2.1221,-2.1221,-2.1221,-2.1221,-2.1221,-2.1221,0.0,0.0,0.0,0.0,0.0,0.0,0.0,0.0,0.0,0.0,0.0,0.0,0.0,0.0,0.0,-1.6318,-1.6137,-1.6008,-1.6523,-1.6985,-1.7347,-1.7358,-1.7741,-1.8038,-1.8038,-1.8061,-1.8061,-1.8061,-1.8084,-1.8084,-1.8084,-1.8084,-1.8084,-1.8084,-1.8084,-1.8214,-1.8474,-1.8417,-1.8558,-1.8758,-1.8758,-1.8769,-1.878,-1.878,-1.878,-1.878,-1.878,-1.9666,-2.1112,-2.1135,-2.1146,-2.1094,-2.1094,-2.1094,-2.1094,-2.1094,-2.1094,-2.1094,-2.1094,-2.1094,-2.1094,-2.1094,-2.1094,-2.1094,-2.1094,-2.0828,-2.0506,-2.0571,-2.0302,-1.9901,-1.9431,-1.9299,-1.9431,-1.9901,-2.0031,-2.0042,-2.0096,-2.0635,-2.1158,-2.1158,-2.1158,-2.1221,-2.1221,-2.1221,-2.1221,-2.1221,-2.1221,-2.1221,-2.1221,-2.1221,-2.1221,-2.1221,-2.1221,-2.1221,-2.1221,-2.1221,-2.1221,-2.1221,-2.1221,-2.1221,-2.1221,-2.1221,-2.1221,-2.1221,-2.1221,-2.1221,-2.1221,-2.1221,-2.1221,-2.1221,-2.1221,-2.1221,-0.5557,0.0,0.0,0.0,0.0,0.0,0.0,0.0,0.0,0.0,0.0,0.0,0.0,0.0,0.0,0.0,-1.5012,-1.511,-1.5963,-1.5902,-1.5875,-1.6269,-1.6443,-1.6636,-1.6985,-1.7381,-1.7588,0.0,-1.7932,-1.803,-1.7822,-1.7656,-1.749,-1.7468,-1.7256,-1.721,-1.7294,-1.7066,-1.7138,-1.7473,-1.7473,-1.7821,-1.8384,-1.8384,-1.8312,-1.8301,-1.8301,-1.8307,-1.8416,-1.903,-1.9318,-1.9233,-1.9278,-1.9222,-1.9233,-1.9233,-1.9222,-1.9267,-1.9267,-1.9222,-1.9233,-1.9233,-1.9233,-1.9299,-1.9431,-1.9299,-1.91,-1.9233,-1.91,-1.89,-1.8747,-1.869,-1.8767,-1.8911,-1.8967,-1.9034,-1.9431,-1.9704,-2.0031,-2.0635,-2.1031,-2.1221,-2.1221,-2.1221,-2.1221,-2.1221,-2.1221,-2.1221,-2.1221,-2.1221,-2.1221,-2.1221,-2.1221,-2.1221,-2.1221,-2.1221,-2.1221,-2.1221,-2.1221,-2.1221,-2.1221,-2.1221,-2.1221,-2.1221,-2.1221,-2.1221,-2.1221,-2.1221,-2.1221,-2.1221,-2.1221,-2.1221,0.0,0.0,0.0,0.0,0.0,0.0,0.0,-0.8909,0.0,0.0,0.0,0.0,0.0,0.0,0.0,0.0,-1.3396,-1.3587,-1.505,-1.4967,-1.4881,-1.5257,-1.5367,-1.5526,-1.5884,-1.624,-1.6521,-1.6521,-1.6916,-1.7174,-1.7224,-1.7082,-1.706,-1.719,-1.7032,-1.692,-1.6818,-1.6648,-1.6613,-1.6767,-1.6767,-1.6891,-1.714,-1.714,-1.7009,-1.6739,-1.6739,-1.6597,-1.6282,-1.6786,-1.7406,-1.8011,-1.8193,-1.8263,-1.8238,-1.8439,-1.8499,-1.8479,-1.8479,-1.8479,-1.8489,-1.8499,-1.8509,-1.8509,-1.8633,-1.8509,-1.8307,-1.8432,-1.8094,-1.7755,-1.7949,-1.7891,-1.7755,-1.7969,-1.8037,-1.8104,-1.8442,-1.8633,-1.91,-2.0172,-2.0571,-2.0764,-2.0764,-2.0764,-2.0764,-2.0903,-2.0828,-2.0828,-2.1158,-2.1031,-2.1031,-2.1158,-2.1221,-2.1221,-2.1221,-2.1221,-2.1221,-2.1221,-2.1221,-2.1221,-2.1221,-2.1221,-2.1221,-2.1221,-2.1221,-2.1221,-2.1221,-2.1221,-2.1221,-2.1221,-2.1221,-2.1221,0.0,0.0,0.0,0.0,0.0,0.0,-0.8124,-0.8042,-0.8036,0.0,0.0,0.0,0.0,0.0,0.0,0.0,0.0,-1.1931,-1.3914,-1.4049,-1.4001,-1.4161,-1.4338,-1.4511,-1.4676,-1.4987,-1.5183,-1.5183,-1.5566,-1.6,-1.6448,-1.647,-1.6623,-1.7047,-1.7058,-1.6922,-1.6761,-1.6761,-1.6591,-1.6316,-1.6316,-1.6087,-1.5614,-1.5614,-1.5313,-1.4834,-1.4834,-1.474,-1.4639,-1.4639,-1.5613,-1.7046,-1.7392,-1.7551,-1.7601,-1.7942,-1.8121,-1.816,-1.816,-1.817,-1.82,-1.823,-1.8172,-1.823,-1.824,-1.8037,-1.7765,-1.7765,-1.7148,-1.6612,-1.7097,-1.689,-1.6612,-1.7107,-1.7245,-1.7245,-1.7304,-1.7569,-1.823,-1.9562,-1.9901,-1.9966,-1.9901,-1.9966,-2.0107,-2.0313,-2.0161,-2.0226,-2.0892,-2.07,-2.07,-2.1031,-2.1094,-2.1094,-2.1094,-2.1094,-2.1094,-2.1094,-2.1094,-2.1094,-2.1094,-2.1158,-2.1158,-2.1221,-2.1221,-2.1158,-2.1158,-2.1158,-2.1221,-2.1221,-2.1221,-2.1221,-0.7159,-0.7513,-0.7858,-0.7064,0.0,0.0,-0.7028,-0.7251,-0.775,0.0,0.0,0.0,0.0,0.0,0.0,0.0,0.0,-1.1177,-1.2743,-1.2715,-1.2624,-1.2939,-1.3008,-1.3155,-1.3518,-1.3991,-1.4246,-1.4246,-1.4759,-1.5279,-1.5635,-1.5437,-1.5499,-1.5959,-1.598,-1.6158,-1.6488,-1.6488,-1.6259,-1.5856,-1.5856,-1.5546,-1.5069,-1.5069,-1.4775,-1.4369,-1.4369,-1.4105,-1.3744,-1.3744,-1.4337,-1.5245,-1.526,-1.5296,-1.5304,-1.5384,-1.5597,-1.5854,-1.5854,-1.6067,-1.6342,-1.6342,-1.6351,-1.6342,-1.6542,-1.6412,-1.6211,-1.6211,-1.607,-1.6008,-1.6079,-1.6,-1.6008,-1.6079,-1.614,-1.6211,-1.6682,-1.6811,-1.7079,-1.7774,-1.8777,-1.9299,-1.89,-1.9166,-1.9299,-1.8967,-1.9233,-1.9507,-1.9639,-1.9966,-2.0237,-2.0302,-2.0302,-2.0302,-2.0302,-2.0302,-2.0302,-2.0302,-2.0302,-2.0431,-2.0711,-2.07,-2.0903,-2.1158,-2.1221,-2.1031,-2.07,-2.1031,-2.1221,-2.1221,-2.1221,-2.1221,0.0,-0.7806,-0.8121,-0.7688,0.0,0.0,0.0,-0.7248,-0.732,-0.8262,0.0,0.0,0.0,0.0,0.0,0.0,0.0,0.0,-1.1122,-1.1538,-1.1868,-1.2098,-1.2049,-1.2049,-1.2344,-1.2731,-1.3105,-1.3491,-1.3611,-1.3942,-1.4512,-1.443,-1.4592,-1.505,-1.5231,-1.5457,-1.5685,-1.5695,-1.5568,-1.5313,-1.5313,-1.502,-1.4538,-1.4538,-1.43,-1.3881,-1.3881,-1.37,-1.3511,-1.3511,-1.3742,-1.4119,-1.4316,-1.4393,-1.4418,-1.4615,-1.4795,-1.4949,-1.4949,-1.5078,-1.5274,-1.5454,-1.5506,-1.554,-1.5877,-1.5867,-1.5805,-1.5805,-1.5805,-1.5805,-1.5805,-1.5805,-1.5805,-1.5805,-1.5805,-1.5867,-1.614,-1.6202,-1.6272,-1.6551,-1.7354,-1.7959,-1.7969,-1.8172,-1.8307,-1.823,-1.8307,-1.8509,-1.8834,-1.8967,-1.91,-1.9278,-1.9288,-1.9299,-1.9299,-1.9299,-1.9299,-1.9299,-1.9299,-1.9507,-1.9901,-1.9966,-2.0172,-2.0635,-2.0635,-2.0571,-2.0366,-2.056,-2.0764,-2.0903,-2.1094,-2.1094,0.0,0.0,0.0,0.0,0.0,-0.787,0.0,0.0,0.0,-0.8425,0.0,0.0,0.0,0.0,0.0,0.0,0.0,0.0,0.0,-1.0299,0.0,-1.1323,-1.1207,-1.1178,-1.1314,-1.1492,-1.1941,-1.2822,-1.2455,-1.254,-1.3431,-1.346,-1.3708,-1.4248,-1.4592,-1.4803,-1.5008,-1.5018,-1.4943,-1.4775,-1.4775,-1.4538,-1.407,-1.407,-1.3881,-1.3511,-1.3511,-1.3511,-1.3511,-1.3511,-1.3511,-1.3536,-1.3862,-1.3982,-1.4024,-1.4341,-1.4504,-1.4572,-1.4572,-1.4624,-1.4735,-1.5018,-1.5155,-1.5292,-1.5685,-1.5805,-1.5805,-1.5805,-1.5805,-1.5805,-1.5805,-1.5805,-1.5805,-1.5805,-1.5805,-1.5805,-1.5805,-1.5805,-1.5805,-1.5805,-1.6132,-1.6612,-1.7038,-1.7166,-1.7304,-1.756,-1.7364,-1.7432,-1.8037,-1.7969,-1.7959,-1.8277,-1.8287,-1.8307,-1.8307,-1.8307,-1.8307,-1.8307,-1.8307,-1.8509,-1.9034,-1.91,-1.9375,-1.9835,-1.9901,-1.9977,-1.9977,-2.0042,-2.0237,-2.0506,-2.0839,-2.0828,0.0,0.0,0.0,0.0,-0.88,0.0,0.0,0.0,-0.8039,-0.7502,0.0,0.0,0.0,0.0,0.0,0.0,0.0,0.0,0.0,0.0,0.0,-0.9943,-1.024,-1.0496,-1.0754,-1.0518,-1.0915,-1.2463,-1.1547,-1.1426,-1.2548,-1.2645,-1.2976,-1.3739,-1.38,-1.4208,-1.5008,-1.5018,-1.4773,-1.4309,-1.4309,-1.4061,-1.3571,-1.3571,-1.3571,-1.3511,-1.3511,-1.3511,-1.3511,-1.3511,-1.3511,-1.3511,-1.3554,-1.3579,-1.3579,-1.3622,-1.3862,-1.4161,-1.4161,-1.4393,-1.4692,-1.4735,-1.4958,-1.5292,-1.5685,-1.5805,-1.5805,-1.5805,-1.5805,-1.5805,-1.5805,-1.5805,-1.5805,-1.5805,-1.5805,-1.5805,-1.5805,-1.5805,-1.5805,-1.5805,-1.5867,-1.5938,-1.5938,-1.6412,-1.6542,-1.614,-1.6412,-1.6742,-1.6811,-1.7235,-1.751,-1.7501,-1.751,-1.751,-1.751,-1.751,-1.751,-1.751,-1.751,-1.7706,-1.8104,-1.8432,-1.87,-1.8967,-1.9233,-1.9507,-1.9671,-1.9977,-2.0107,-2.0172,-2.0226,-2.0172,0.0,0.0,0.0,0.0,0.0,0.0,-0.7959,0.0,-0.7764,0.0,0.0,0.0,0.0,0.0,0.0,0.0,-0.7448,0.0,0.0,0.0,0.0,0.0,0.0,0.0,-1.0017,-0.9674,-1.0022,-1.1352,-1.0579,-1.0552,-1.172,-1.2046,-1.2299,-1.2657,-1.2867,-1.3154,-1.3481,-1.3481,-1.3488,-1.3506,-1.3506,-1.3492,-1.3511,-1.3511,-1.3511,-1.3511,-1.3511,-1.3511,-1.3511,-1.3511,-1.3511,-1.3511,-1.3511,-1.3511,-1.3511,-1.3511,-1.3613,-1.375,-1.375,-1.3862,-1.4042,-1.4273,-1.4598,-1.4975,-1.5343,-1.5463,-1.5506,-1.5737,-1.5805,-1.5805,-1.5805,-1.5805,-1.5805,-1.5805,-1.5805,-1.5805,-1.5805,-1.5805,-1.5805,-1.5805,-1.5805,-1.5805,-1.5805,-1.6,-1.607,-1.5797,-1.6,-1.614,-1.614,-1.6351,-1.6491,-1.6491,-1.6491,-1.6491,-1.6491,-1.6491,-1.6491,-1.6491,-1.6751,-1.7157,-1.7638,-1.8114,-1.8385,-1.8519,-1.8654,-1.8731,-1.8875,-1.8998,-1.9054,-1.9054,-1.977,-1.9977,-0.9207,0.0,0.0,0.0,0.0,0.0,0.0,0.0,0.0,0.0,0.0,0.0,0.0,0.0,0.0,0.0,0.0,-0.7078,0.0,0.0,0.0,0.0,0.0,0.0,0.0,-0.8875,-0.9107,-1.0478,-0.9663,-0.9726,-1.106,-1.1407,-1.167,-1.1877,-1.2175,-1.236,-1.2375,-1.2384,-1.2528,-1.2817,-1.276,-1.2889,-1.3237,-1.3177,-1.3176,-1.3208,-1.3208,-1.3208,-1.3208,-1.3208,-1.3208,-1.3208,-1.3208,-1.3208,-1.3268,-1.345,-1.3511,-1.3511,-1.3511,-1.3511,-1.3571,-1.3973,-1.429,-1.459,-1.4958,-1.5137,-1.5274,-1.5557,-1.572,-1.5805,-1.5805,-1.5805,-1.5805,-1.5805,-1.5805,-1.5805,-1.5805,-1.5805,-1.5805,-1.5805,-1.5805,-1.5805,-1.5805,-1.5805,-1.5805,-1.5805,-1.5805,-1.5805,-1.5805,-1.5805,-1.5805,-1.5805,-1.5805,-1.5805,-1.5805,-1.5805,-1.5805,-1.5805,-1.6132,-1.6551,-1.6968,-1.7373,-1.7647,-1.7852,-1.7852,-1.792,-1.8066,-1.8066,-1.8066,-1.8066,-1.911,-1.9386,0.0,0.0,0.0,-0.8041,0.0,0.0,0.0,0.0,-0.7602,0.0,0.0,0.0,0.0,0.0,0.0,0.0,0.0,0.0,0.0,0.0,0.0,0.0,0.0,0.0,0.0,-0.7939,-0.8166,0.0,-0.88,-0.8767,-1.0625,-1.0737,-1.1103,-1.1859,-1.1927,-1.2058,-1.2375,-1.2384,-1.2432,-1.2406,-1.2136,-1.2215,-1.2513,-1.2279,-1.2294,-1.2544,-1.2544,-1.2544,-1.2544,-1.2544,-1.2544,-1.2544,-1.2544,-1.2544,-1.2605,-1.3268,-1.3511,-1.3511,-1.3511,-1.3511,-1.3571,-1.3973,-1.411,-1.4187,-1.4581,-1.4941,-1.5215,-1.5232,-1.5506,-1.5805,-1.5805,-1.5805,-1.5805,-1.5805,-1.5805,-1.5805,-1.5805,-1.5805,-1.5805,-1.5805,-1.5805,-1.5805,-1.5805,-1.5805,-1.5805,-1.5805,-1.5805,-1.5805,-1.5805,-1.5805,-1.5805,-1.5805,-1.5805,-1.5805,-1.5805,-1.5805,-1.5805,-1.5805,-1.5805,-1.5797,-1.5867,-1.5867,-1.614,-1.6673,-1.6673,-1.6881,-1.7442,-1.7442,-1.7442,-1.7451,-1.8056,-1.8066,0.0,0.0,-0.9627,-0.8621,0.0,0.0,0.0,0.0,0.0,0.0,0.0,0.0,0.0,0.0,0.0,0.0,0.0,0.0,0.0,0.0,0.0,0.0,0.0,0.0,0.0,0.0,0.0,-0.8578,-0.8189,0.0,-1.0203,-1.0583,-1.0939,-1.151,-1.1528,-1.158,-1.1652,-1.1652,-1.18,-1.2029,-1.1706,-1.1787,-1.2134,-1.1906,-1.1935,-1.227,-1.227,-1.2337,-1.2482,-1.2482,-1.2482,-1.2482,-1.2482,-1.2482,-1.2544,-1.272,-1.2972,-1.3164,-1.3164,-1.3033,-1.2867,-1.2997,-1.3037,-1.3103,-1.3525,-1.3884,-1.422,-1.4465,-1.4932,-1.5426,-1.5426,-1.5576,-1.5805,-1.5805,-1.5805,-1.5805,-1.5805,-1.5805,-1.5805,-1.5805,-1.5805,-1.5805,-1.5805,-1.5805,-1.5805,-1.5805,-1.5805,-1.5805,-1.5805,-1.5805,-1.5805,-1.5805,-1.5805,-1.5805,-1.5805,-1.5805,-1.5805,-1.5805,-1.5805,-1.5938,-1.6342,-1.6342,-1.6403,-1.6603,-1.6603,-1.6682,-1.6881,-1.6881,-1.6881,-1.689,-1.7088,-1.7235,-0.9563,-0.9725,0.0,-0.8893,-0.8506,0.0,-0.7234,0.0,0.0,0.0,0.0,0.0,0.0,0.0,0.0,0.0,0.0,0.0,0.0,-0.4726,0.0,0.0,0.0,0.0,0.0,0.0,-0.6415,-0.7612,-0.7577,0.0,0.0,-1.0186,-1.0685,-1.1062,-1.1258,-1.1326,-1.1326,-1.1326,-1.1345,-1.1488,-1.1226,-1.1202,-1.1478,-1.1201,-1.129,-1.1732,-1.1732,-1.1926,-1.2174,-1.2174,-1.2174,-1.2174,-1.2174,-1.2174,-1.2236,-1.2428,-1.2613,-1.2797,-1.2797,-1.2674,-1.2482,-1.2482,-1.2482,-1.253,-1.2806,-1.3203,-1.3632,-1.3938,-1.4485,-1.4991,-1.4991,-1.5213,-1.5363,-1.5363,-1.5363,-1.5363,-1.5363,-1.5505,-1.5576,-1.5576,-1.5726,-1.5805,-1.5805,-1.5805,-1.5805,-1.5805,-1.5805,-1.5805,-1.5805,-1.5805,-1.5805,-1.5805,-1.5805,-1.5805,-1.5805,-1.5805,-1.5805,-1.5805,-1.5805,-1.5938,-1.6272,-1.6342,-1.6342,-1.6342,-1.6342,-1.6342,-1.6342,-1.6342,-1.6342,-1.6342,-1.6342,-1.6482]}]]